GFSWCAN_850_thetae_000.txt.gz
Theta_e
297 297 297 296 295 294 295 295 295 296 297 298 297 298 297 295 298 296 304 305 304 307 309 311 313 314 317 320 325 325 328 326 326 323 324 324 327 329 335 336 338 336 338 335 336 337 337 337 336 336 347 344 346 346
296 297 298 296 295 294 294 297 298 298 297 295 297 297 297 296 296 295 304 304 303 303 307 308 307 309 310 315 318 322 322 326 326 328 327 329 332 332 338 335 334 338 339 340 343 345 343 346 346 345 344 343 346 345
296 298 297 295 296 295 296 295 295 294 295 294 295 295 295 295 295 295 299 301 303 306 309 310 311 314 313 312 313 314 319 323 325 326 325 327 333 330 338 335 337 337 335 341 338 338 343 342 342 342 342 341 342 341
296 294 294 296 295 293 294 294 293 293 293 294 294 294 294 294 294 294 300 301 302 306 310 313 313 313 313 314 315 314 315 318 322 322 323 324 326 326 329 331 330 332 334 334 336 339 333 339 340 341 341 340 339 337
297 294 296 295 294 296 295 294 292 292 292 293 294 294 294 294 295 298 301 302 302 304 309 310 311 313 313 313 314 315 315 318 319 320 322 323 323 325 325 326 328 327 330 335 334 338 337 337 341 340 339 337 337 335
296 295 294 294 295 295 293 292 292 292 292 293 293 294 295 297 296 302 307 306 305 305 306 313 314 315 315 314 314 314 316 317 318 320 321 321 323 323 323 325 325 329 329 333 334 336 337 336 336 334 334 333 332 332
295 294 294 295 296 295 295 294 293 292 293 293 294 297 297 297 301 305 306 306 305 306 307 311 316 315 314 314 314 314 315 316 317 318 320 320 322 322 321 322 322 325 327 327 330 327 331 327 332 333 333 332 332 331
293 293 293 295 296 294 295 294 293 292 293 294 298 304 306 305 304 305 305 303 304 307 308 312 316 316 316 317 316 314 315 316 317 317 318 320 320 321 322 321 321 322 323 324 323 328 329 326 334 333 333 332 330 329
293 293 293 295 295 294 294 294 293 293 294 298 303 307 306 306 307 308 306 305 306 307 311 313 315 318 316 317 318 318 317 317 316 318 317 318 320 323 322 320 321 321 323 323 322 321 328 322 332 333 332 332 329 328
293 293 293 294 294 294 293 293 293 297 302 302 305 307 310 309 307 306 307 307 308 309 309 312 313 315 314 316 318 320 318 317 318 318 316 320 320 319 320 320 321 322 322 322 322 323 327 332 332 332 331 330 329 327
293 293 294 294 294 294 293 293 293 300 302 304 307 308 308 306 307 309 310 311 312 313 312 312 313 316 314 316 318 318 320 319 320 320 318 318 318 320 318 319 320 321 320 323 322 324 327 330 332 331 330 329 328 327
294 294 294 294 294 294 293 293 292 298 299 299 300 303 306 308 310 312 313 313 314 315 314 314 316 316 315 316 318 319 320 320 320 318 319 319 321 318 317 318 318 319 320 322 322 323 325 326 332 330 329 328 326 326
294 294 294 295 294 295 294 293 292 293 299 303 305 306 308 308 310 312 313 314 317 315 315 316 317 316 317 316 317 320 321 320 319 322 321 320 322 319 318 318 319 318 319 321 322 322 323 329 331 329 328 326 325 324
295 294 294 295 295 295 295 293 293 297 303 306 305 304 308 310 310 313 314 315 315 315 315 313 315 316 318 319 319 319 320 322 324 323 322 327 324 324 326 320 320 319 319 320 321 322 328 329 329 328 326 325 323 321
296 294 294 295 296 296 295 293 294 298 303 305 306 307 310 310 310 310 310 311 313 313 313 313 314 317 319 319 320 319 321 322 323 326 325 322 320 322 325 327 327 323 321 323 325 328 328 328 326 325 323 323 320 317
297 296 295 296 297 296 295 294 298 301 303 303 305 307 309 310 310 311 311 311 312 312 312 315 315 315 316 319 320 321 322 323 320 324 322 322 320 320 325 327 328 328 329 329 328 326 325 323 322 323 320 318 315 313
296 298 298 297 297 296 294 301 302 302 303 304 307 306 306 307 310 310 310 310 311 312 316 313 313 314 313 319 321 322 323 320 320 321 320 321 323 324 324 325 327 327 327 325 323 321 322 322 321 318 315 314 314 313
297 298 297 296 296 299 301 300 302 302 303 303 305 307 307 308 309 310 311 312 312 313 313 313 312 315 317 319 319 318 316 317 317 318 319 321 321 322 324 323 322 323 322 322 322 321 320 317 315 314 313 313 314 314
298 298 297 296 299 301 301 301 301 303 304 304 305 305 307 309 310 311 311 312 312 311 310 311 314 316 318 317 315 314 315 315 316 318 319 321 323 323 322 322 321 321 321 320 319 316 314 314 313 313 312 312 312 312
298 297 296 296 299 302 300 301 301 302 304 306 306 308 309 310 310 309 310 311 311 311 311 313 315 315 314 313 313 313 314 315 316 318 320 321 321 321 320 319 317 316 314 313 313 312 312 312 312 312 312 312 311 313
297 296 295 296 300 300 300 302 303 303 304 306 308 308 307 307 308 309 311 311 313 313 313 313 311 310 313 313 313 314 317 319 319 320 319 318 318 317 316 315 314 314 313 312 312 312 313 314 313 313 314 316 315 315
297 297 299 299 300 300 301 302 302 303 304 307 307 304 304 307 309 309 310 310 311 310 311 311 312 312 311 313 316 317 317 318 319 319 318 317 315 314 313 313 313 313 312 312 313 314 314 314 314 315 316 315 316 316
298 299 300 299 300 299 299 303 305 305 305 306 303 304 307 309 308 309 309 308 309 308 310 312 311 311 311 313 315 316 317 317 316 316 315 315 314 314 314 314 314 315 315 315 314 313 314 315 316 315 316 316 315 315
299 300 301 302 302 302 303 305 305 304 303 303 304 308 307 308 307 307 307 304 307 308 309 310 311 312 312 312 313 314 315 315 315 315 315 314 314 314 314 314 314 314 315 314 314 314 315 314 314 313 313 313 313 313
297 298 301 298 302 303 303 305 303 303 305 306 308 310 309 308 308 306 304 303 307 308 309 311 312 312 312 313 313 314 315 315 315 315 315 315 314 314 314 313 314 313 313 313 313 313 313 313 313 313 313 312 312 311
301 301 301 303 303 304 304 306 305 306 306 310 311 311 310 308 308 306 303 303 306 308 308 310 311 312 312 313 313 313 314 314 314 314 314 314 314 314 314 313 313 314 314 314 313 313 312 313 313 311 310 310 307 306
304 304 304 302 302 301 301 302 302 303 312 313 313 311 309 309 307 305 304 304 306 307 308 308 310 311 311 312 313 313 313 313 313 313 314 314 314 314 314 314 314 313 313 313 313 312 312 311 310 309 307 306 306 305
301 300 303 302 301 301 303 307 311 313 313 312 310 310 310 309 308 307 306 306 307 307 307 307 307 307 308 309 310 310 309 309 309 310 310 309 309 310 311 311 312 312 311 311 311 310 309 309 308 307 307 307 306 306
302 304 302 303 307 307 311 311 311 310 310 310 310 311 311 310 309 309 309 309 309 308 309 307 307 307 307 307 307 307 307 308 308 307 307 307 306 306 306 307 307 307 308 308 309 308 308 307 306 305 306 306 306 306
310 308 311 311 311 311 311 311 310 310 310 310 310 311 311 311 310 310 309 308 309 308 308 308 308 307 307 307 307 307 307 307 307 307 307 307 307 307 307 307 307 306 306 306 306 306 305 306 307 307 307 307 307 307
310 311 311 311 311 311 311 310 310 310 310 310 310 310 311 311 310 309 309 309 309 309 309 309 309 310 309 309 308 308 307 307 307 307 307 307 307 307 307 307 307 307 307 307 307 307 307 307 307 307 306 306 306 306
311 311 312 312 312 311 311 311 311 311 311 311 311 311 311 311 311 310 310 309 309 309 309 310 310 310 310 310 309 309 308 308 308 308 308 309 308 308 308 308 308 308 307 307 307 307 307 307 308 308 308 307 307 307
311 311 312 312 312 312 312 311 311 312 311 311 311 311 311 311 312 311 310 310 310 310 310 311 311 311 310 311 310 309 309 308 307 307 306 305 305 306 306 307 307 306 306 307 307 307 308 308 308 308 308 308 307 307

GFSWCAN_850_thetae_003.txt.gz
Theta_e
297 297 297 298 297 295 294 296 298 298 296 295 294 295 297 294 293 297 303 303 302 304 305 306 309 311 312 316 322 321 326 325 326 325 323 324 324 325 328 330 332 331 329 329 334 335 334 348 343 346 348 347 348 347
297 296 298 298 297 297 295 296 295 295 294 294 294 294 294 293 292 296 302 302 300 301 304 307 307 308 307 309 312 319 321 322 327 328 326 327 328 333 337 337 338 340 339 342 339 343 342 343 347 345 347 344 344 345
297 296 295 295 295 295 294 294 294 293 294 294 294 294 294 294 293 295 295 300 301 303 306 308 308 312 311 310 310 311 319 321 321 321 325 325 332 327 335 335 337 332 335 339 339 338 338 337 340 341 345 343 341 340
296 296 295 295 295 294 295 294 293 293 293 293 293 293 294 294 295 295 297 301 301 303 307 312 312 312 314 314 313 313 313 315 316 320 322 321 325 326 328 332 330 331 333 334 336 335 335 333 339 336 332 339 338 338
296 297 295 296 294 294 294 293 292 293 293 293 293 293 294 295 296 296 304 302 302 302 306 307 310 313 313 313 313 314 314 315 316 320 319 323 324 325 325 325 328 328 332 333 334 336 332 337 332 336 336 335 336 336
297 297 295 295 296 295 295 294 293 293 293 293 293 294 295 298 297 305 307 305 304 304 305 308 310 313 314 313 313 313 314 315 317 318 319 321 324 323 324 324 330 332 332 332 332 333 336 335 335 333 333 333 333 332
296 296 294 294 295 296 295 295 294 293 293 293 294 298 300 297 300 305 307 306 305 305 305 308 313 316 314 314 314 314 314 315 317 317 319 320 321 323 322 322 322 322 326 329 328 330 330 330 328 332 332 331 332 331
294 294 293 293 294 295 294 294 294 293 293 294 299 306 306 304 304 306 307 304 303 305 306 309 315 316 316 316 317 314 314 315 316 317 317 319 320 322 322 321 320 323 325 326 324 325 330 331 333 333 332 332 331 330
294 293 293 293 294 294 294 294 293 293 296 299 304 307 306 306 307 308 307 306 305 307 309 313 314 317 315 316 318 319 318 318 316 318 317 318 320 323 322 320 321 320 321 322 323 322 328 329 329 333 331 330 329 329
295 293 293 294 294 294 294 293 293 299 303 303 306 307 309 308 306 306 307 308 308 308 308 310 312 314 315 315 318 319 318 320 319 318 317 317 316 317 319 319 319 321 320 322 324 325 325 325 330 331 331 330 329 328
295 294 294 294 294 294 294 293 295 302 303 305 306 308 308 307 307 309 310 311 312 312 312 312 312 315 315 317 318 317 320 321 320 319 319 319 318 318 317 317 319 320 319 321 321 322 326 328 326 323 321 323 328 326
295 294 295 295 295 294 294 293 292 294 299 300 303 304 307 308 309 311 314 313 314 316 313 314 313 316 316 316 318 318 320 320 320 319 321 320 320 318 319 319 318 319 321 319 318 321 326 328 327 326 329 329 329 326
295 295 295 295 295 295 295 293 292 293 300 304 305 306 308 309 307 312 314 315 317 315 316 315 317 317 316 316 316 320 321 321 320 322 321 324 322 322 324 327 323 319 321 320 319 321 322 329 328 329 327 327 326 325
296 295 295 295 295 295 295 293 293 299 304 306 306 303 308 309 309 312 314 314 313 314 314 313 314 317 316 319 319 318 320 321 324 324 324 323 323 322 321 322 325 324 319 320 319 320 322 329 328 327 327 326 324 324
297 296 295 295 296 296 296 293 295 299 303 306 307 307 309 309 311 311 311 312 313 313 312 313 314 315 319 319 320 319 320 322 323 322 322 322 321 318 319 320 324 324 324 320 318 323 326 327 327 327 325 324 323 322
297 296 295 296 297 297 295 294 300 303 305 304 305 307 309 311 311 311 312 311 312 312 312 315 315 313 315 317 320 320 321 322 319 319 319 320 319 320 319 321 324 321 322 325 327 326 325 325 325 325 323 322 321 321
297 298 298 298 298 297 295 302 304 304 303 304 306 307 307 309 311 310 310 311 312 312 316 314 312 313 312 317 320 321 321 318 317 317 317 318 318 320 320 322 324 324 325 324 325 325 324 324 324 323 321 319 319 317
297 298 298 298 297 298 301 302 304 303 303 304 305 307 307 309 311 312 312 312 312 313 314 314 312 314 316 318 319 317 315 315 315 315 316 317 319 321 322 323 322 322 323 321 321 321 321 321 319 319 319 316 316 317
298 299 298 297 299 303 304 302 302 303 304 305 305 306 308 311 311 310 310 311 312 311 311 311 314 315 316 316 314 313 314 314 314 314 315 319 321 321 322 320 320 320 319 318 318 317 318 319 319 316 316 316 315 315
298 298 297 297 300 303 301 302 302 302 304 306 309 310 310 310 309 310 311 312 312 311 310 311 313 313 311 311 312 313 313 314 314 315 317 319 321 321 320 320 318 317 317 317 316 317 316 315 314 314 313 313 313 313
297 297 296 298 301 302 302 303 304 304 305 306 309 307 307 308 309 310 310 310 313 312 311 312 310 312 312 312 313 315 317 319 319 318 316 316 316 315 314 314 315 314 313 313 313 313 313 313 313 313 313 313 313 314
298 298 300 300 302 302 301 303 303 305 305 307 305 305 305 306 308 308 309 308 309 306 308 309 311 311 311 312 315 317 318 319 318 317 315 314 313 314 313 313 312 313 313 313 313 313 312 313 314 315 315 316 316 316
299 301 302 301 301 300 299 304 304 305 306 304 303 305 307 308 307 307 306 303 304 307 309 310 311 311 312 314 315 317 317 316 315 314 314 313 314 313 313 312 313 313 314 314 314 314 314 315 316 316 316 316 315 315
300 301 302 303 303 303 303 305 305 303 302 302 304 308 307 307 305 303 303 302 305 310 311 311 312 313 314 314 314 315 315 315 314 314 313 313 314 315 314 313 314 314 313 313 314 314 314 315 313 313 313 313 313 313
298 298 302 300 303 303 304 304 303 302 304 305 308 309 308 305 304 304 303 302 307 310 312 312 313 313 313 314 314 315 315 315 314 314 314 314 314 314 314 314 314 314 314 314 313 313 313 313 314 313 312 311 311 310
300 302 303 303 304 303 304 305 304 306 307 311 311 309 307 306 306 305 302 305 307 308 308 311 312 312 313 314 314 314 314 314 314 314 314 314 314 314 314 313 313 313 313 313 313 313 313 312 312 311 310 306 305 305
304 304 304 302 302 301 301 302 302 303 310 313 311 309 307 307 307 305 306 307 306 307 308 310 311 311 312 312 313 314 314 314 314 314 314 314 315 315 314 314 313 313 312 312 312 312 311 311 309 307 306 306 306 306
301 301 302 303 302 302 303 307 311 313 313 311 309 310 309 308 308 307 308 308 309 309 308 307 307 309 310 309 310 311 311 311 310 310 311 311 312 312 313 312 312 312 312 313 311 310 309 308 308 307 306 306 306 305
304 304 303 304 308 308 311 311 310 310 310 309 309 309 309 308 309 309 309 309 310 309 308 307 307 308 308 308 308 308 308 308 307 307 307 307 307 307 307 307 307 309 310 310 309 309 308 305 305 306 306 306 306 307
310 309 310 311 311 311 311 311 310 310 311 311 311 311 311 311 310 310 310 310 310 310 309 308 307 307 307 307 307 307 307 307 307 307 308 307 307 307 307 306 306 306 306 306 307 307 306 307 307 307 307 306 306 306
311 311 311 311 311 311 311 311 311 311 311 311 311 311 311 310 310 310 310 310 310 310 310 310 310 310 310 310 309 309 309 308 307 307 308 308 308 307 307 307 307 307 307 307 307 307 307 308 308 308 308 307 307 307
312 313 312 312 312 311 311 311 311 311 311 311 311 311 311 311 311 311 311 310 310 310 310 311 311 310 309 309 308 307 305 306 308 309 308 309 309 308 308 308 308 307 307 307 308 308 308 308 308 308 308 308 308 307
312 312 312 312 312 312 312 312 312 311 311 311 311 312 312 312 312 311 311 311 311 311 312 311 311 311 311 311 310 309 308 308 308 308 307 306 306 307 306 306 307 307 308 308 308 308 308 307 307 307 307 306 305 304

GFSWCAN_850_thetae_006.txt.gz
Theta_e
297 298 296 297 298 298 297 295 295 295 294 294 295 294 294 293 293 297 302 302 301 302 303 304 304 308 311 313 315 316 321 320 323 323 318 318 320 319 322 328 335 324 323 327 329 333 334 339 345 344 341 346 342 338
296 297 296 296 295 295 295 294 294 294 293 294 294 295 294 294 293 296 302 302 301 300 302 304 305 308 309 310 309 314 319 319 324 320 322 321 328 325 328 333 329 333 330 333 330 329 338 337 340 344 344 344 343 342
298 298 296 296 294 295 294 295 294 293 293 293 293 293 294 294 294 295 296 299 301 301 304 307 307 307 309 310 308 309 318 319 320 317 320 319 325 322 328 330 331 329 332 332 333 333 335 336 341 342 341 341 343 341
297 296 296 296 295 295 294 294 293 293 293 293 293 293 294 294 295 295 297 300 301 301 302 308 311 311 311 312 310 310 311 315 314 318 319 317 320 322 323 325 325 326 329 329 331 332 334 336 334 333 330 331 334 339
297 296 297 297 295 295 295 295 294 293 293 293 293 293 294 295 297 301 304 303 303 302 302 305 308 312 313 313 313 312 312 314 314 316 318 316 319 321 319 319 325 325 326 329 331 334 332 333 336 333 332 336 334 335
298 296 297 297 295 295 296 295 294 294 293 293 293 294 297 298 297 305 306 305 304 303 304 302 308 312 313 313 313 313 313 313 315 316 318 317 316 321 318 321 328 330 329 331 332 334 334 332 332 335 336 335 336 336
296 296 295 295 293 294 295 294 294 294 293 293 294 298 304 300 300 304 307 306 305 304 304 305 305 314 316 315 314 314 313 313 315 316 317 317 321 321 316 318 324 328 328 328 329 329 331 332 332 332 332 333 333 333
296 295 294 293 293 294 295 294 294 294 293 294 298 306 305 304 304 306 307 305 304 305 305 305 307 314 315 316 316 314 313 314 314 315 317 316 318 319 317 317 320 321 327 326 323 326 330 332 331 332 332 332 331 331
297 295 294 293 294 294 294 294 293 293 295 299 304 306 306 307 307 308 308 306 304 306 308 310 310 313 314 315 317 317 317 313 315 313 314 315 313 316 316 318 320 322 323 322 323 323 325 331 332 332 331 331 330 330
297 296 294 294 294 294 294 293 293 297 302 303 306 308 310 308 307 306 307 307 307 306 306 307 310 309 313 315 314 315 316 315 314 313 316 312 312 316 318 319 318 318 319 320 322 325 324 327 328 332 331 330 329 328
296 296 294 294 295 294 294 293 293 301 303 305 306 308 307 307 307 308 309 308 310 311 309 310 311 310 315 313 312 315 313 314 316 314 314 314 312 313 316 315 316 317 318 319 319 322 323 322 324 329 330 330 328 328
297 295 294 295 295 294 294 293 292 295 297 300 304 304 306 307 308 309 309 310 310 313 312 312 314 315 316 316 315 315 316 314 316 315 317 315 318 322 321 322 324 323 319 319 319 320 320 324 326 328 330 328 328 328
297 296 295 295 295 295 295 293 292 293 298 303 304 305 307 308 302 311 312 314 316 315 315 314 315 315 316 316 315 314 317 317 316 317 319 320 320 320 319 319 322 323 322 320 319 319 319 325 325 324 322 325 327 327
297 296 295 295 295 295 295 293 293 299 303 305 306 296 300 301 305 310 313 311 312 313 312 313 313 314 315 314 315 317 315 317 319 322 323 320 320 319 319 320 320 323 324 321 320 320 319 323 326 325 323 324 326 326
297 296 295 295 295 296 295 293 294 299 304 305 307 300 305 307 309 310 311 312 312 312 312 312 314 315 313 315 315 317 318 321 320 316 316 318 318 317 316 319 319 322 322 322 322 320 320 324 325 324 324 324 326 325
297 296 295 295 296 297 295 294 300 302 304 305 305 305 306 308 309 310 311 311 311 311 312 314 311 311 314 314 317 319 320 321 319 318 316 315 316 316 317 319 320 322 320 324 321 320 320 325 322 323 324 324 324 323
297 297 297 296 297 296 296 302 303 304 304 304 304 306 306 306 310 310 311 312 311 311 311 311 310 311 312 315 317 319 318 316 315 314 314 315 315 316 319 322 323 319 318 322 325 325 324 324 324 324 323 321 321 320
297 297 298 298 297 296 300 302 303 303 302 303 303 304 306 312 312 311 311 311 311 313 313 312 312 313 314 316 316 315 313 313 313 314 314 314 316 319 322 322 322 322 322 322 323 322 322 323 323 322 321 319 319 316
298 298 298 298 298 303 304 303 302 303 304 304 306 309 311 310 309 310 311 310 311 311 311 311 312 314 314 313 312 311 312 313 313 313 314 317 320 320 321 321 321 321 319 319 319 320 321 321 320 319 318 317 316 316
298 298 298 297 301 303 302 301 302 302 302 305 309 308 309 308 309 310 310 310 312 311 310 311 312 311 310 311 311 311 312 314 313 313 315 316 319 320 320 320 319 318 318 318 318 318 317 317 317 316 316 316 316 315
298 297 297 300 301 301 302 301 302 305 305 307 306 305 306 308 308 309 309 309 312 308 309 309 308 310 310 310 312 313 315 317 316 315 313 313 314 314 315 315 315 316 315 315 315 314 314 314 313 313 313 313 313 313
296 297 300 301 302 302 301 302 303 305 305 305 304 305 306 306 308 307 307 305 306 306 307 307 309 310 310 312 314 315 315 316 315 314 314 313 313 313 314 314 314 313 313 313 313 313 313 313 313 313 314 315 316 315
300 301 301 301 301 300 300 304 304 304 304 304 304 306 307 308 305 305 304 303 304 307 309 310 312 312 313 314 315 314 314 314 314 313 313 313 313 314 314 313 313 313 313 314 314 315 315 315 315 315 316 316 315 314
299 300 301 302 302 302 303 304 304 303 302 303 305 306 306 305 303 302 303 304 307 309 312 313 313 314 314 315 314 314 314 314 313 313 313 313 313 314 314 314 314 314 315 315 315 314 314 315 315 315 314 314 313 312
298 298 301 301 302 303 304 303 303 302 304 305 308 307 305 304 303 303 302 305 308 309 311 313 314 314 314 314 314 314 313 314 314 314 314 313 314 314 313 313 314 314 314 314 314 313 313 313 312 311 311 310 309 307
297 302 303 303 303 302 303 304 303 305 306 309 309 307 304 305 305 304 304 307 307 308 309 312 313 314 315 314 314 314 314 314 314 314 314 314 314 314 314 314 313 313 313 313 312 312 311 311 310 307 305 305 305 305
303 303 303 302 302 302 302 302 303 303 308 310 309 307 306 307 306 306 306 307 308 309 311 312 312 314 314 314 314 314 314 314 314 314 314 314 313 313 313 313 313 312 312 312 311 310 308 307 306 306 306 306 306 305
302 302 302 303 302 302 303 306 309 311 311 309 309 308 308 307 308 307 308 310 309 309 310 310 309 310 310 309 310 311 311 311 312 312 312 312 312 311 311 311 311 311 310 309 309 309 308 307 307 306 306 306 306 306
305 306 304 306 308 307 310 310 310 309 309 309 308 308 308 308 308 309 310 310 308 308 308 308 310 310 310 310 309 308 307 306 306 306 307 307 306 306 305 308 310 310 309 309 308 307 305 306 306 306 306 306 306 306
310 309 310 311 310 310 310 310 309 309 309 309 309 309 309 309 310 310 310 309 308 307 307 307 307 307 307 307 308 308 308 307 307 306 306 306 306 306 306 307 307 307 307 307 307 307 307 307 307 307 307 307 307 306
311 311 311 311 311 310 310 311 311 311 311 311 311 311 310 310 310 310 310 310 310 309 309 309 309 309 309 308 307 307 307 307 308 308 307 307 307 307 307 307 307 307 308 307 308 308 308 308 308 308 308 308 308 308
312 312 311 311 311 311 311 311 311 311 311 311 311 310 310 311 311 311 310 310 311 311 310 310 310 309 309 309 307 307 307 308 308 308 308 308 308 307 307 307 307 307 308 308 308 308 308 307 307 307 307 306 306 305
312 312 311 311 311 312 312 312 311 311 311 312 312 311 311 311 311 311 311 311 311 311 311 311 311 310 310 310 309 309 309 308 307 306 306 307 307 307 307 307 307 307 307 307 307 307 307 307 307 306 305 304 302 301

GFSWCAN_850_thetae_009.txt.gz
Theta_e
298 298 296 296 296 296 295 295 294 296 295 294 294 295 295 295 293 297 302 302 300 301 301 302 305 307 308 310 312 313 318 318 321 322 319 316 317 317 321 332 334 323 322 324 326 331 334 337 339 337 337 341 337 343
296 297 297 297 296 295 295 294 296 297 294 294 294 294 294 295 294 294 301 301 301 300 300 301 303 304 306 306 309 308 317 318 321 316 317 318 325 323 325 330 327 331 328 327 325 328 335 336 339 342 343 340 337 339
299 299 298 296 296 295 295 294 294 293 294 296 294 293 294 294 294 295 296 296 299 301 303 306 309 308 306 307 307 306 315 319 319 317 318 317 319 319 326 326 328 326 329 331 329 332 334 336 339 341 343 342 340 337
297 297 297 296 297 295 294 294 295 294 296 295 293 293 293 294 295 296 300 299 301 301 300 307 310 309 309 311 310 309 315 315 315 317 318 316 315 318 320 321 323 323 327 327 329 331 333 334 334 338 340 341 341 340
297 298 298 297 297 295 295 295 295 294 294 293 293 293 294 296 297 302 304 303 303 302 301 304 308 311 311 312 312 310 309 309 310 315 317 318 315 317 317 316 322 323 324 327 329 330 330 333 332 332 333 335 337 336
298 298 297 296 296 295 294 295 295 294 294 293 293 294 297 299 296 305 305 305 304 303 303 301 306 313 315 313 313 313 312 310 312 314 315 317 317 319 319 317 323 329 329 330 331 332 333 334 334 333 334 335 335 336
297 296 296 295 294 294 294 295 294 294 294 293 294 298 305 304 299 304 306 306 304 303 304 304 304 313 315 315 313 312 312 312 314 315 315 316 320 320 318 319 319 326 328 329 329 330 331 331 331 334 335 335 335 335
297 296 296 294 293 293 294 294 294 294 294 294 297 304 304 303 303 306 306 305 304 304 305 304 305 311 314 315 315 313 313 313 313 314 315 314 316 319 318 318 319 319 321 328 328 327 327 328 330 332 332 333 333 333
297 296 296 294 293 294 294 294 294 293 294 298 303 306 306 307 307 308 308 306 303 305 306 308 309 313 313 314 315 317 315 310 312 311 313 313 311 316 317 318 319 318 322 325 323 323 324 331 331 332 332 332 332 331
296 297 297 295 294 294 294 294 293 298 302 303 306 307 309 307 307 307 306 306 306 306 306 304 307 309 311 314 312 313 314 313 314 312 313 310 311 314 319 318 318 318 321 319 320 321 322 325 330 331 331 331 331 329
296 297 297 295 294 294 294 294 293 301 304 305 306 307 306 307 306 307 308 308 308 310 308 308 309 307 313 312 310 313 312 312 317 315 312 311 315 319 319 320 321 317 317 317 318 318 319 321 323 325 330 330 330 329
296 296 296 295 294 295 294 294 293 297 298 301 304 304 305 306 307 308 309 309 308 312 311 311 313 313 315 315 314 313 314 312 316 313 318 317 319 319 318 318 319 322 323 318 317 319 319 322 322 321 324 329 329 328
297 296 295 295 295 295 294 293 293 293 297 300 303 305 306 307 301 309 312 314 314 314 313 314 314 314 315 316 314 312 316 316 315 316 319 321 317 316 318 316 317 319 322 323 321 318 319 320 320 324 326 327 326 325
297 297 295 295 295 295 295 294 293 297 303 304 305 295 299 299 303 307 310 309 312 313 313 312 312 313 314 311 314 317 315 315 317 320 319 316 317 315 315 315 316 319 320 322 322 319 319 319 320 324 325 325 324 325
297 297 295 295 295 295 295 293 294 301 303 304 306 300 303 305 308 309 309 310 311 311 311 312 312 312 311 313 313 316 317 320 319 317 316 317 315 314 315 316 317 319 320 321 323 320 320 320 324 324 323 324 324 323
297 296 295 295 295 296 295 294 298 302 303 304 305 303 305 305 307 309 309 311 311 311 312 312 308 309 313 313 315 317 319 321 318 316 315 314 314 314 315 316 319 321 321 321 322 320 319 322 324 323 323 323 323 324
297 296 295 296 297 296 296 301 303 303 303 303 303 304 304 304 304 309 311 312 312 311 309 308 307 311 312 314 315 317 318 315 313 313 313 313 314 315 317 319 321 320 320 321 321 321 324 321 320 320 321 322 323 324
297 296 297 297 297 297 301 302 302 304 303 302 302 304 308 310 310 310 309 309 310 311 312 311 312 312 312 314 315 313 311 311 312 312 313 313 315 317 318 319 321 321 321 322 322 323 323 322 322 320 321 323 322 322
297 297 298 297 298 303 303 302 302 302 303 303 306 308 310 309 309 310 310 310 311 311 311 311 310 313 314 312 311 311 311 311 311 313 313 315 319 319 319 320 320 319 319 319 320 321 321 322 321 320 319 318 318 318
298 298 298 298 302 302 302 301 302 301 302 305 306 305 307 307 307 309 309 308 311 311 311 311 312 309 309 310 310 310 310 312 312 313 313 316 317 318 318 318 317 317 318 318 318 319 318 318 317 317 317 317 316 316
298 297 299 301 301 301 301 300 302 304 304 306 304 304 306 308 308 308 308 307 310 307 308 308 308 309 309 310 311 313 313 314 315 313 313 314 315 316 316 316 316 316 316 316 316 316 316 316 316 316 316 316 315 314
297 299 300 301 301 301 301 302 302 304 304 304 303 305 306 307 306 305 305 306 306 307 307 307 308 310 311 313 313 314 314 314 313 313 314 314 314 313 313 314 314 314 314 315 314 313 313 313 313 313 313 313 313 313
300 301 301 301 300 300 301 303 303 303 303 304 305 306 306 306 304 304 305 304 304 307 309 310 311 313 313 314 314 314 313 313 314 314 314 314 313 313 313 313 313 313 313 313 313 313 313 314 315 315 315 315 315 315
299 300 301 302 301 302 302 305 303 303 303 304 305 305 304 304 304 303 303 304 306 309 313 313 314 314 314 314 313 313 313 313 314 314 313 314 314 314 315 314 315 315 315 315 315 315 316 315 315 314 314 314 313 313
297 299 301 301 302 303 303 303 303 302 304 305 306 305 304 304 303 303 302 305 308 310 313 313 314 314 313 313 314 313 313 313 314 314 314 314 314 314 314 314 313 313 313 314 313 313 312 312 312 311 310 310 308 306
295 301 303 302 303 302 303 304 303 305 306 309 307 305 305 306 305 304 305 307 308 309 313 314 314 314 314 314 314 314 314 314 314 314 313 314 314 314 313 313 313 312 312 312 312 311 310 306 305 304 304 304 304 305
303 303 303 303 302 302 302 303 303 304 309 309 307 306 306 307 306 306 307 308 309 310 313 314 314 314 314 314 314 314 314 314 313 313 313 313 314 313 313 313 313 312 311 309 307 306 306 305 306 306 305 305 305 305
302 302 302 303 302 303 304 306 307 309 310 308 308 308 306 306 306 307 308 308 309 312 313 313 313 313 313 313 313 312 312 312 312 311 311 311 311 310 310 308 308 308 308 307 307 307 306 306 306 305 305 306 306 306
306 306 304 304 306 306 309 310 309 309 309 309 308 307 308 308 309 310 309 309 309 310 310 310 309 308 307 307 306 306 306 307 307 305 305 307 307 309 309 308 308 309 308 308 307 306 306 305 306 305 306 306 306 306
310 308 309 309 308 309 309 310 310 309 309 309 309 309 309 310 310 308 308 308 308 308 309 309 309 309 309 308 307 307 306 306 306 306 306 306 306 307 307 307 307 307 306 305 306 306 306 306 306 306 306 307 306 306
310 310 310 310 310 310 310 310 310 310 311 310 311 311 310 310 308 307 307 308 308 308 308 307 307 307 307 307 307 307 307 307 307 307 307 307 307 307 307 307 307 307 308 308 308 307 308 307 307 307 307 307 307 306
311 311 310 310 311 311 311 311 311 310 310 310 311 311 310 310 310 309 309 309 309 309 309 309 309 308 307 307 307 307 307 307 307 307 308 308 307 307 307 307 307 307 307 307 307 307 307 307 307 307 306 306 304 303
311 311 311 311 311 311 311 311 311 311 311 311 311 311 311 311 311 311 310 310 311 311 310 310 310 310 309 309 309 308 307 307 306 306 307 307 307 307 307 307 307 307 307 307 307 307 307 307 306 306 304 302 300 298

GFSWCAN_850_thetae_012.txt.gz
Theta_e
298 298 297 297 297 296 295 295 294 296 296 294 295 295 295 295 294 295 301 301 300 300 300 302 304 307 308 308 310 311 314 316 317 320 319 315 316 316 323 329 331 320 320 322 324 329 330 335 337 335 331 341 339 340
297 297 298 298 297 295 295 295 294 295 295 296 297 295 294 294 295 294 298 300 300 300 300 300 300 302 304 305 306 308 314 316 320 315 315 316 322 320 323 329 325 329 324 321 322 324 331 336 337 339 341 341 337 341
297 299 299 298 296 296 295 294 294 296 296 296 295 294 294 294 294 296 296 296 297 300 302 304 308 307 306 306 305 306 310 318 318 317 316 315 317 317 324 324 327 325 328 330 328 330 333 335 338 338 341 341 337 341
298 298 297 297 297 297 295 295 296 295 294 294 293 293 294 294 296 297 302 300 301 302 299 306 308 307 308 307 308 307 311 314 314 316 317 313 315 315 317 318 320 322 326 326 327 328 332 334 335 338 340 339 337 338
297 298 297 298 297 297 296 294 295 296 294 294 293 293 294 298 298 302 303 303 303 302 300 304 308 310 312 312 311 309 308 309 307 310 314 317 314 314 315 313 317 322 323 326 329 328 330 331 332 337 339 338 338 339
297 297 298 297 296 296 295 294 295 295 294 294 293 294 298 302 297 305 305 304 303 302 302 300 306 312 314 313 312 312 309 306 306 313 312 316 316 318 322 317 317 325 328 327 328 332 332 332 333 332 332 334 337 336
296 296 297 296 296 294 294 293 295 294 294 294 293 297 303 304 300 305 306 305 304 303 304 303 303 312 314 314 312 311 310 309 311 314 314 316 318 319 316 317 319 320 321 328 330 329 331 332 330 334 334 335 335 335
298 298 297 296 294 293 293 294 294 294 294 293 296 303 303 303 303 306 306 305 304 304 305 303 304 310 313 314 314 312 311 310 312 313 313 313 315 318 317 316 318 317 318 319 325 326 325 327 330 331 332 333 334 334
298 298 296 296 294 293 294 294 294 293 295 297 301 305 306 306 307 308 307 306 304 304 305 306 309 309 312 313 313 316 313 309 310 309 310 312 311 314 315 319 318 317 318 317 321 323 322 322 329 330 332 331 333 332
297 297 297 297 295 294 294 294 294 297 302 303 306 307 308 306 308 307 305 306 305 305 305 303 305 305 310 313 312 312 312 311 313 310 311 309 309 313 318 319 320 319 316 322 323 323 321 321 323 328 330 330 331 331
297 296 297 297 295 294 294 294 293 299 303 304 306 306 305 307 306 306 307 307 307 308 307 307 307 306 311 311 310 311 310 310 315 314 313 310 315 317 317 316 318 320 321 319 318 318 318 319 319 322 329 330 331 330
297 296 296 296 295 294 294 294 293 298 300 303 304 304 305 306 306 307 308 309 308 311 311 310 312 311 313 314 313 311 313 310 315 313 316 315 319 315 314 315 315 317 320 321 321 316 316 318 319 321 324 324 327 330
298 296 296 296 294 295 294 294 293 294 297 298 302 304 306 305 300 307 311 312 313 312 313 313 313 313 314 315 313 309 314 313 313 315 318 319 317 316 314 314 315 316 318 319 322 321 316 316 319 321 322 322 324 327
298 297 296 295 294 295 294 293 293 296 301 303 304 296 298 299 302 305 308 308 311 313 312 312 311 311 312 310 312 316 314 313 317 320 319 316 316 314 314 314 315 316 317 319 320 322 320 318 318 320 322 325 326 327
298 297 296 295 295 295 295 293 295 300 303 304 305 298 302 304 306 308 308 309 310 310 310 311 311 310 309 311 311 315 317 318 319 317 315 314 313 314 314 315 315 316 318 319 320 322 319 318 319 321 324 324 323 323
298 297 295 295 295 295 294 294 297 301 303 304 304 303 303 303 305 307 308 310 311 311 310 311 307 307 312 313 314 316 317 319 317 315 313 312 313 313 314 315 317 318 320 320 321 322 319 321 321 323 323 324 323 322
297 296 295 295 296 295 294 299 302 302 303 303 303 303 303 302 303 306 311 310 309 311 307 306 306 310 310 313 314 316 317 314 311 311 312 312 313 313 314 316 319 319 322 321 319 319 322 323 323 322 322 322 322 323
296 295 296 297 296 297 301 302 302 303 303 302 302 304 308 309 309 309 310 310 310 310 311 310 311 310 312 313 315 312 311 310 310 311 312 313 314 315 316 318 319 318 319 319 323 322 320 320 320 320 320 321 321 322
296 297 297 296 299 302 302 302 302 301 302 303 307 306 309 308 307 308 308 309 309 311 310 309 307 310 311 311 311 310 310 310 310 312 313 314 318 317 318 318 318 317 316 318 320 319 320 320 320 320 321 321 320 319
297 297 297 300 302 301 301 300 301 301 301 305 305 305 306 307 307 308 308 308 308 311 310 310 310 310 309 309 309 309 310 312 312 312 313 314 316 317 317 317 316 317 318 318 318 319 320 320 319 318 318 317 317 316
297 297 301 301 300 301 300 300 301 303 304 305 303 303 305 307 308 307 306 306 308 307 308 308 309 309 309 310 311 312 313 313 314 313 313 313 314 315 316 316 316 316 317 317 317 317 316 316 316 316 316 316 316 315
298 300 300 300 300 300 301 302 302 304 304 303 303 305 306 307 305 304 304 305 306 307 308 307 309 309 311 312 313 313 313 313 314 313 313 313 313 313 314 314 315 316 316 316 316 315 315 315 316 315 313 314 314 314
300 300 300 300 300 301 301 302 303 303 302 304 305 306 305 304 304 305 305 304 305 307 309 310 312 313 313 313 313 314 314 314 313 313 313 313 314 314 314 314 313 313 313 313 313 313 313 313 313 313 313 314 314 314
300 300 300 301 301 301 302 303 303 303 303 304 305 305 305 304 303 303 303 303 306 310 313 313 313 313 313 313 313 313 313 313 313 313 313 314 314 313 313 313 314 314 314 315 315 315 315 314 314 314 313 313 313 313
297 299 301 300 302 302 302 302 302 301 304 306 305 305 305 304 303 303 302 304 307 311 313 314 313 313 312 313 314 314 314 314 315 315 315 315 315 314 315 315 315 315 315 314 314 314 312 311 311 310 309 309 309 307
294 302 303 301 302 302 302 304 303 305 307 308 306 305 305 306 305 304 305 307 308 312 313 314 314 314 313 313 313 314 313 314 314 314 314 314 314 313 313 313 312 311 312 312 312 308 306 306 305 304 303 304 304 304
302 302 303 303 302 302 302 303 304 304 309 309 307 306 305 306 306 306 308 308 310 313 314 314 314 314 314 314 314 314 314 314 314 313 313 313 313 313 312 311 310 309 307 306 305 305 305 305 305 305 305 305 305 305
303 303 303 303 303 303 304 305 307 309 309 308 307 307 307 306 307 308 309 310 312 313 314 314 314 313 313 313 313 313 313 313 313 313 311 309 309 310 310 310 308 307 306 305 306 305 305 305 305 305 305 305 305 305
305 306 305 305 305 306 308 309 309 309 309 308 308 307 307 308 308 309 309 310 310 310 309 310 310 308 308 309 311 311 310 308 309 310 310 309 309 309 309 308 308 307 307 306 306 305 305 305 305 305 306 306 306 306
307 307 307 308 308 309 310 309 309 309 309 309 309 309 309 309 308 308 308 308 309 310 310 309 307 306 306 306 306 305 306 306 306 305 306 306 306 306 306 306 306 305 306 306 306 306 306 306 306 306 306 306 306 306
310 310 309 310 310 310 310 310 310 310 310 310 309 308 308 307 307 307 307 307 307 308 308 308 308 308 307 306 306 306 306 307 307 307 306 306 306 307 307 307 307 307 307 308 307 307 307 307 307 307 307 307 306 306
310 310 310 309 310 310 310 310 310 310 309 309 308 307 307 307 308 307 307 307 308 308 307 307 307 307 307 307 307 307 307 307 307 307 308 307 307 307 307 307 307 307 307 307 307 307 307 307 307 307 306 306 304 303
311 311 311 311 311 311 311 311 311 310 310 310 310 310 310 310 310 309 308 309 310 310 309 309 309 308 307 307 307 307 307 306 306 306 306 307 307 307 307 307 307 307 307 307 307 307 307 306 306 305 303 300 298 297

GFSWCAN_850_thetae_015.txt.gz
Theta_e
297 298 297 297 297 297 295 296 295 297 296 296 297 294 294 295 295 294 297 299 300 300 300 301 306 307 309 310 313 312 316 319 322 326 324 322 322 323 329 331 329 328 328 327 331 334 337 338 341 339 343 344 341 342
298 297 297 298 299 297 296 296 294 296 298 297 296 294 294 294 295 295 296 298 298 299 300 300 301 301 303 307 307 307 315 318 322 323 322 323 327 327 331 333 331 334 331 329 330 330 336 337 339 339 339 340 341 342
297 297 298 298 299 297 296 295 294 297 295 295 294 294 294 294 295 297 297 297 298 300 302 304 307 306 304 303 305 307 308 317 318 317 320 322 325 323 333 332 332 332 332 339 338 336 337 337 338 337 338 341 340 340
297 297 298 298 297 297 297 296 295 297 296 294 294 293 294 295 298 298 302 301 302 302 302 306 307 306 307 306 306 305 309 314 314 314 320 320 321 318 324 324 328 328 330 335 337 335 335 336 336 336 337 337 337 338
296 297 298 297 298 297 297 296 294 294 295 294 294 293 294 298 298 302 303 303 303 302 304 305 308 309 310 309 309 308 306 307 308 312 319 321 319 319 320 321 324 326 330 336 337 332 335 335 333 334 337 337 335 336
297 296 297 298 297 296 296 295 294 294 295 294 294 293 297 303 299 304 305 304 303 302 302 307 306 310 313 314 311 310 308 306 307 313 316 316 316 321 325 326 322 323 322 327 330 330 332 332 334 333 332 334 336 336
296 296 297 296 296 296 295 294 294 295 294 294 293 295 302 303 302 305 305 304 304 303 303 307 310 311 312 312 309 309 307 307 309 313 315 315 317 317 322 324 322 322 320 319 324 328 332 332 332 332 334 334 334 334
296 296 297 297 296 295 294 294 294 294 294 293 294 300 303 302 304 306 306 305 304 304 305 307 311 312 312 314 315 309 310 309 311 314 314 315 316 319 319 320 320 320 319 319 320 322 325 324 328 330 330 333 333 334
297 297 298 297 296 295 294 294 294 294 294 298 299 305 305 306 307 305 306 305 304 304 306 307 312 316 311 313 313 315 311 314 311 314 314 314 315 319 319 320 320 320 320 318 317 322 325 324 325 328 329 330 332 332
297 297 298 297 296 295 294 294 294 294 301 303 305 306 307 306 306 306 305 305 304 305 305 306 305 312 310 314 314 315 314 319 319 316 312 315 314 318 319 318 318 319 320 319 321 325 325 322 324 326 326 330 331 332
297 297 297 297 297 295 294 294 293 297 302 304 305 306 305 306 306 306 307 308 308 308 307 308 307 311 310 316 316 313 317 317 320 318 317 317 318 318 316 317 317 317 318 320 320 320 319 318 319 319 322 329 330 331
297 297 296 297 297 295 295 294 293 298 301 303 304 304 305 306 306 308 309 309 310 313 312 312 312 311 312 314 316 315 317 316 318 317 319 318 319 317 316 315 315 315 317 319 320 319 318 317 316 317 319 323 328 329
298 297 296 296 296 295 295 294 293 297 298 299 302 304 305 305 307 308 310 311 313 312 313 314 313 313 313 314 315 316 317 318 315 319 320 320 317 316 316 315 315 315 315 317 319 320 319 316 316 315 318 321 324 325
299 298 296 296 295 295 294 293 293 294 299 302 303 301 305 306 307 309 311 311 311 312 312 311 312 313 313 316 316 317 316 316 319 320 320 316 314 314 314 314 315 315 315 316 317 319 321 321 318 316 318 320 321 323
299 298 297 296 295 295 294 293 294 298 303 304 304 304 305 305 306 306 307 308 310 311 310 312 312 312 315 316 316 317 318 318 319 316 312 312 312 313 315 314 314 315 316 317 317 319 321 321 318 318 319 323 325 325
299 297 296 295 295 295 294 293 297 301 302 303 303 305 304 305 306 306 308 309 310 311 310 310 312 313 313 313 315 317 318 319 315 314 313 312 313 313 313 313 314 317 318 318 319 320 321 319 319 321 323 324 324 324
297 297 295 295 295 295 294 297 300 302 302 303 304 302 303 303 304 306 309 310 309 310 312 311 313 312 312 313 315 316 318 314 312 311 311 312 312 312 314 314 317 318 318 320 321 319 321 322 323 322 322 322 322 322
297 295 295 295 295 295 300 302 302 303 303 302 305 304 307 308 309 309 309 308 309 311 311 313 312 312 312 312 314 315 312 311 311 311 312 312 313 315 316 317 317 316 317 317 320 320 321 320 320 320 321 321 321 322
295 296 296 295 299 301 302 302 302 302 302 303 306 305 307 307 306 307 307 308 308 308 310 311 310 312 312 313 313 311 310 310 310 312 312 313 315 317 317 316 316 316 317 318 319 320 319 319 318 319 320 320 320 321
297 296 297 301 301 301 301 300 301 301 303 304 305 304 305 306 306 307 308 308 308 309 309 310 311 312 312 310 309 309 310 312 311 311 313 314 315 315 315 315 316 317 318 318 318 320 319 319 317 319 319 318 318 317
297 298 301 301 300 301 300 300 301 303 303 305 303 303 305 306 307 306 306 306 307 308 309 309 309 309 308 309 311 312 313 313 313 313 313 313 314 315 314 315 315 316 317 317 317 316 316 316 316 315 316 315 315 315
300 300 300 300 299 300 301 301 302 303 303 303 304 304 306 307 305 305 304 305 306 307 308 308 308 309 311 312 313 313 314 314 313 313 314 314 314 315 315 316 316 315 315 315 315 314 315 315 315 314 313 314 314 313
300 299 300 300 300 301 301 303 303 302 304 304 305 305 305 304 304 304 305 305 305 307 308 310 312 312 313 313 313 313 313 313 313 313 313 314 314 315 315 315 314 314 314 314 314 314 313 314 314 314 314 314 313 313
299 300 300 301 301 301 302 303 302 303 303 305 306 306 305 304 303 303 303 303 306 311 313 312 313 313 313 313 313 312 312 313 313 313 313 314 313 313 314 314 314 314 314 314 314 314 314 314 314 314 313 312 311 310
297 300 301 300 302 303 302 303 302 303 305 307 306 305 305 303 304 303 303 306 308 313 313 313 313 313 313 313 313 314 314 314 314 314 315 315 315 315 315 315 315 314 314 314 313 313 313 313 312 312 311 309 306 305
299 302 303 302 302 302 304 304 304 306 308 308 307 306 305 306 307 305 305 307 309 313 313 314 314 313 313 314 314 314 314 314 314 313 313 314 314 314 313 312 311 311 310 309 309 308 307 306 305 305 305 304 304 305
303 303 303 303 302 302 303 303 304 306 309 309 308 307 306 309 306 306 308 312 313 313 313 313 314 314 314 313 314 314 313 313 313 313 312 312 312 311 311 309 307 306 305 304 304 304 304 304 305 304 304 304 304 305
303 303 303 303 303 303 305 307 309 310 309 309 308 308 308 308 307 308 310 313 314 314 314 314 313 313 314 314 314 314 313 312 310 312 312 311 310 308 307 307 306 305 305 305 305 305 305 305 305 305 305 305 305 305
305 306 305 306 306 306 308 310 309 308 308 309 308 308 308 308 308 309 312 312 313 313 312 311 311 311 311 310 310 311 311 311 310 309 308 308 308 307 306 306 306 306 306 305 305 305 305 305 305 306 306 306 306 305
307 307 307 309 310 311 309 308 308 308 308 309 308 309 309 309 308 310 310 308 307 306 306 306 306 308 308 307 306 306 306 307 308 307 307 307 307 306 305 306 306 306 306 306 306 306 306 306 306 306 306 306 306 306
310 310 310 310 310 309 309 309 309 309 309 309 308 308 307 307 308 308 309 309 310 310 310 308 307 306 306 306 307 307 306 306 306 306 306 306 307 307 307 307 307 307 307 307 307 307 307 307 307 306 307 306 306 305
310 310 311 311 310 310 310 309 309 309 308 308 308 307 307 308 308 307 307 307 307 307 307 307 307 307 307 307 307 307 307 307 307 307 307 307 307 307 307 307 307 307 307 307 307 307 307 307 307 306 306 305 304 301
310 311 311 311 311 311 310 310 310 310 310 309 310 309 309 310 310 308 308 308 309 309 308 307 307 307 307 307 307 307 307 307 307 307 306 307 307 307 308 307 307 307 307 307 307 307 306 306 305 304 302 300 298 297

GFSWCAN_850_thetae_021.txt.gz
Theta_e
301 299 298 298 297 298 299 298 296 295 295 297 295 295 295 295 296 298 304 297 305 309 309 308 310 314 314 315 319 320 320 320 323 323 323 325 326 326 326 328 330 332 330 329 327 328 328 335 338 339 350 348 349 349
301 300 298 298 298 298 300 298 297 295 295 297 295 295 295 295 296 299 306 304 302 303 307 307 306 308 311 314 315 317 318 323 318 322 324 325 327 327 330 328 328 334 330 333 330 329 342 341 346 347 347 348 350 349
300 300 298 297 298 298 298 298 297 296 295 297 295 294 294 295 296 297 304 305 306 308 309 308 310 309 306 307 311 314 315 324 324 324 326 327 327 329 329 329 329 332 329 334 332 332 339 340 343 345 346 347 348 348
300 299 298 297 298 298 298 298 298 297 295 295 295 294 294 295 298 298 305 306 307 308 311 314 311 311 311 308 308 310 313 318 321 320 321 325 326 325 329 329 333 333 335 331 331 339 337 341 341 342 345 346 346 347
299 299 297 297 297 298 298 298 297 296 295 295 295 294 294 297 299 301 305 306 306 308 313 313 312 311 311 310 309 310 311 313 316 318 320 322 321 325 325 326 328 328 333 337 337 337 338 340 340 340 342 343 344 344
297 297 297 297 297 297 297 298 296 295 294 295 295 294 294 301 300 306 310 308 307 307 310 316 314 312 312 311 311 312 312 313 314 316 318 319 322 323 324 326 324 327 330 329 330 333 336 337 338 339 340 340 342 341
296 296 297 297 297 297 297 297 295 294 294 295 294 294 297 302 302 307 309 308 305 307 311 315 315 314 315 314 314 315 315 314 314 315 316 317 319 319 322 324 328 327 327 327 327 328 333 332 334 335 338 338 338 338
296 296 296 297 296 297 297 296 294 294 295 294 294 294 302 302 306 308 307 306 306 308 311 316 317 315 314 315 315 314 314 314 315 315 316 317 317 318 320 319 320 323 325 325 325 326 327 330 331 333 334 337 337 338
297 295 296 296 296 297 297 295 294 295 294 295 297 303 305 306 308 308 306 306 306 309 313 314 317 320 315 317 318 316 316 318 316 317 317 317 319 318 319 318 317 320 322 322 323 324 325 326 330 329 330 333 335 335
299 296 295 296 297 299 296 295 295 294 295 300 305 307 309 309 306 305 308 310 309 310 311 314 315 317 315 316 316 318 317 318 318 318 318 319 320 318 317 318 321 322 321 322 322 323 322 326 328 324 326 328 332 333
300 296 297 298 298 298 296 295 295 295 302 305 308 308 308 306 308 309 310 312 312 314 313 314 315 317 315 318 319 318 321 321 321 321 320 319 320 319 318 320 320 320 320 321 322 322 323 324 325 325 323 323 324 332
300 297 298 298 298 297 296 295 294 301 305 306 307 306 308 309 310 311 312 312 313 315 314 315 315 315 316 317 319 320 318 319 319 320 320 320 325 323 321 320 319 319 319 320 320 321 322 322 324 324 324 323 324 329
299 298 298 298 297 297 296 295 294 301 303 305 307 309 308 309 308 311 313 314 315 314 317 317 317 316 317 318 319 320 319 319 318 319 320 324 321 319 319 319 319 319 319 320 320 321 321 322 322 323 324 322 323 326
299 298 298 298 297 297 295 294 294 299 305 306 307 307 310 310 311 313 314 315 315 316 315 315 315 316 318 320 319 320 319 319 321 321 323 321 319 318 318 318 317 318 319 320 320 321 321 322 323 323 324 323 322 327
299 298 298 297 297 295 295 294 294 301 305 306 306 309 308 310 311 311 312 313 314 314 314 314 314 315 316 318 319 319 320 320 320 323 320 318 318 317 317 318 316 316 316 318 319 320 321 322 324 325 326 323 322 325
299 298 298 297 295 295 294 293 295 303 306 307 307 310 309 310 311 311 312 314 313 313 313 314 315 316 316 316 317 318 318 320 321 319 318 317 316 316 317 317 316 314 315 316 317 320 321 322 324 326 326 325 325 328
299 300 298 296 295 294 294 300 301 305 307 308 309 308 309 311 311 312 314 314 312 312 314 313 315 316 315 315 316 317 319 321 316 316 315 315 315 315 315 315 314 314 315 315 317 320 320 325 327 328 329 328 327 330
302 300 296 295 295 294 300 303 306 306 307 307 308 310 310 312 313 314 313 313 312 312 312 313 314 316 315 315 316 318 316 315 315 315 314 314 314 314 315 316 316 316 317 318 318 319 322 323 323 324 325 324 321 323
300 295 295 295 300 303 304 304 306 307 308 308 310 311 312 312 312 311 311 311 311 311 311 312 314 314 314 314 315 316 315 314 315 313 312 313 314 315 316 316 317 318 319 320 321 321 320 321 321 321 322 322 322 323
295 295 295 301 303 305 305 306 306 308 308 310 310 310 310 310 310 310 310 310 310 310 312 313 314 313 316 315 314 314 313 313 313 312 312 314 314 315 315 317 318 319 320 319 319 319 320 321 320 321 321 321 318 318
299 301 301 302 304 305 305 305 306 307 308 308 309 309 309 309 310 310 309 309 309 311 312 312 313 313 313 313 312 311 313 314 314 313 313 314 314 315 316 317 318 318 318 317 316 317 317 319 319 319 318 318 318 316
302 301 303 302 304 304 305 305 307 307 308 308 308 309 309 310 309 308 306 307 309 311 311 311 311 310 311 311 312 313 313 313 313 313 314 314 315 315 315 316 316 315 316 316 316 315 315 316 316 316 315 314 314 313
300 302 304 302 303 303 304 305 307 307 308 308 308 308 309 308 306 305 307 306 306 308 308 309 311 312 312 313 312 312 313 313 313 314 315 315 315 315 315 315 315 315 315 315 315 315 315 314 314 313 313 312 311 312
300 304 304 304 303 304 305 306 306 306 306 307 307 309 308 307 305 304 305 305 308 312 312 312 313 313 313 312 313 313 313 313 314 315 315 315 315 315 315 314 314 314 314 314 315 313 313 313 313 312 312 311 311 310
300 301 303 301 306 306 306 306 305 305 308 307 308 308 307 304 306 305 306 307 310 313 313 313 313 312 312 313 313 314 314 314 314 314 314 314 316 314 314 315 316 315 314 314 315 316 315 314 312 311 310 308 308 308
303 305 304 307 307 307 307 308 306 307 309 309 308 307 307 308 307 306 307 309 311 313 313 313 314 313 314 314 314 314 315 315 316 316 315 314 314 314 314 314 314 315 315 315 315 313 312 312 310 308 308 308 308 309
307 306 305 304 304 303 304 304 306 307 310 311 309 309 311 310 308 309 311 312 313 313 314 314 314 314 315 316 315 315 315 315 315 314 313 312 312 312 312 310 309 308 308 308 309 309 308 308 308 308 309 310 310 309
303 303 305 304 303 304 308 309 310 312 312 311 310 312 310 309 309 310 312 313 313 314 314 314 314 314 316 315 315 315 315 315 314 312 311 310 309 308 308 308 308 308 308 309 309 310 310 310 310 310 310 310 309 309
305 306 305 307 308 309 310 310 311 311 311 311 311 311 309 309 311 312 313 313 313 314 314 313 314 315 315 313 313 313 313 313 312 310 309 309 309 309 310 309 309 309 309 309 309 310 310 310 310 310 310 309 309 309
309 307 309 311 311 312 311 311 311 311 311 310 310 309 309 310 311 312 312 313 314 314 314 314 313 313 313 312 312 311 310 310 310 310 310 310 311 310 310 310 310 310 310 309 309 308 307 308 308 309 309 309 309 308
311 311 311 311 311 311 311 311 310 310 310 310 310 310 311 312 312 311 310 309 309 309 309 309 309 309 309 309 309 310 310 310 310 310 310 310 311 311 310 310 310 310 310 310 310 310 310 310 310 310 309 309 308 307
311 311 311 313 312 311 310 310 310 309 310 310 310 310 310 309 309 309 310 311 311 311 310 310 310 311 310 310 310 309 309 310 310 311 312 311 311 311 311 311 311 311 311 310 310 310 310 310 309 309 308 308 307 305
312 312 312 312 312 312 312 312 312 312 312 312 312 312 312 312 311 310 311 311 309 309 310 310 310 310 310 310 310 310 310 309 308 308 307 308 308 309 311 311 310 310 310 310 309 309 309 309 308 307 306 305 304 303

GFSWCAN_850_thetae_024.txt.gz
Theta_e
301 302 301 300 298 298 298 299 299 297 295 296 296 296 296 296 297 299 308 306 305 310 312 311 311 314 317 318 321 320 323 322 323 322 323 324 325 327 328 331 331 332 331 329 331 331 329 327 335 344 351 349 349 348
300 300 301 300 298 298 298 299 298 297 296 295 296 296 296 296 296 304 309 308 307 305 308 309 308 309 311 315 316 318 320 321 324 323 324 323 324 327 334 329 330 331 334 333 332 332 342 344 348 348 348 349 349 349
301 300 300 300 299 297 298 298 298 298 296 295 295 295 295 295 296 298 301 308 309 310 311 310 311 311 308 308 313 316 319 322 326 327 327 329 327 327 331 330 331 330 332 335 335 337 342 343 344 344 346 348 347 347
299 301 301 300 299 297 298 298 298 298 296 295 295 295 295 295 298 297 304 308 309 310 312 314 314 313 312 310 309 311 314 316 319 323 323 326 329 327 329 330 330 333 333 334 334 339 341 342 341 341 343 345 347 348
300 300 300 300 298 297 298 298 298 298 296 295 295 295 295 295 300 299 304 309 309 310 314 315 314 313 313 312 311 310 312 315 317 318 318 321 321 323 325 327 328 332 334 340 343 337 340 340 340 340 341 341 343 345
300 299 299 298 297 297 297 298 298 297 295 295 295 295 295 299 301 308 312 310 310 309 311 316 316 315 314 312 311 311 313 315 314 316 318 319 319 324 325 326 326 327 329 331 332 331 332 336 336 338 338 339 342 342
297 297 297 297 297 297 297 297 297 296 295 295 295 295 295 302 301 308 311 310 309 308 312 315 316 315 314 313 313 314 314 314 315 315 316 318 319 320 321 324 326 327 328 328 328 329 331 334 333 333 334 337 339 339
301 296 296 297 297 297 297 297 296 295 295 295 295 295 301 302 306 308 309 307 306 310 312 317 319 317 316 315 316 315 316 315 315 315 316 317 317 319 321 321 320 323 324 326 325 326 327 327 330 331 332 333 337 339
302 300 297 296 296 297 297 297 295 295 295 295 296 302 303 306 309 309 307 306 307 311 314 314 319 320 316 316 318 317 316 318 316 317 317 317 319 320 320 320 319 319 322 323 323 323 325 325 326 329 329 331 333 337
302 301 298 296 296 296 297 297 295 295 294 298 304 307 310 310 307 306 310 312 311 312 312 314 316 321 318 317 318 318 318 318 319 318 318 319 319 318 318 318 320 323 323 322 322 321 323 324 327 328 327 328 329 331
301 301 300 296 296 297 298 296 295 294 300 304 308 309 310 306 309 311 311 312 313 314 313 312 315 318 317 318 321 319 322 321 322 320 320 322 320 322 320 322 322 321 320 320 320 321 321 321 322 326 326 326 325 326
302 300 300 296 297 298 298 295 294 302 305 306 307 308 309 310 311 312 313 313 314 315 315 315 316 316 317 318 320 319 321 320 322 321 322 321 325 324 322 322 322 322 321 322 321 320 320 321 321 323 324 324 325 325
301 300 298 297 298 298 297 295 296 303 303 306 307 309 309 310 309 312 313 315 315 315 316 317 318 317 318 317 319 321 321 321 319 321 320 326 323 323 322 321 320 320 320 320 320 321 321 320 321 322 323 324 325 325
300 299 297 298 298 297 296 295 294 300 304 308 309 309 311 312 312 313 314 316 316 317 317 316 317 317 318 320 320 321 320 319 322 320 322 324 321 320 320 320 320 319 318 319 319 320 321 322 321 322 323 323 324 325
300 298 298 298 298 297 295 294 296 302 305 308 308 309 309 311 313 313 313 314 315 315 315 316 316 316 318 319 319 320 320 321 321 324 323 320 320 319 319 319 319 318 318 318 317 318 320 320 322 323 324 325 325 324
299 298 298 298 297 296 295 294 298 304 307 308 308 310 311 312 312 312 313 315 314 314 315 314 316 317 318 317 318 319 319 321 323 321 317 318 318 319 318 318 317 318 318 317 317 317 319 321 322 324 324 325 327 325
298 300 299 297 295 295 294 300 303 305 307 308 309 310 311 312 312 313 315 315 314 314 316 315 317 318 317 317 317 318 321 319 318 317 316 317 317 316 314 315 316 316 316 316 316 317 318 321 323 323 324 318 325 326
302 301 297 295 295 294 301 303 305 306 307 308 310 310 311 311 314 315 314 314 313 314 314 315 315 317 317 317 317 318 317 315 316 317 316 315 313 314 315 316 317 317 316 316 317 318 320 322 323 323 316 320 322 322
301 297 295 295 299 302 303 305 307 308 307 309 309 310 312 313 313 313 313 312 312 312 312 312 314 315 315 316 317 317 316 315 315 315 314 312 313 314 315 317 317 318 319 318 319 320 321 321 322 322 322 322 321 321
296 295 298 301 302 306 306 306 307 309 310 311 311 311 311 312 312 311 312 312 311 311 311 313 313 315 316 315 315 314 314 314 313 314 312 313 314 315 316 317 319 320 321 321 320 320 320 320 321 321 320 320 320 321
295 300 303 303 305 306 307 305 307 308 309 310 311 311 311 311 311 311 311 310 310 310 311 312 314 315 315 315 314 311 313 313 313 313 313 314 315 316 317 318 318 317 317 317 319 319 318 318 318 317 318 319 319 318
302 302 304 304 306 305 307 307 309 308 308 309 310 310 311 312 312 311 309 310 311 312 312 313 312 312 311 312 312 313 313 313 313 314 314 315 315 316 317 317 317 316 316 316 317 317 318 318 317 317 317 316 316 316
302 304 305 304 304 304 304 306 308 308 310 310 309 309 310 310 308 307 308 308 308 309 309 310 311 312 312 313 311 313 313 313 315 315 315 315 316 316 316 317 316 316 315 315 315 315 316 315 315 313 313 312 312 313
303 305 305 305 303 305 307 307 307 309 308 308 310 310 309 309 306 306 306 306 309 311 312 313 313 313 312 313 313 313 314 315 315 315 315 315 315 315 316 317 316 315 315 314 313 312 312 312 312 312 313 314 314 312
303 300 304 302 306 307 307 307 306 306 307 309 309 310 309 305 307 305 305 308 310 312 313 313 313 312 313 313 314 314 314 315 315 316 315 314 315 315 314 314 315 314 313 313 313 315 316 315 314 312 310 309 310 310
303 305 306 307 308 308 308 308 308 308 309 310 309 308 307 308 308 308 309 309 313 313 312 312 313 314 314 314 314 314 313 314 314 315 315 315 315 317 316 315 316 316 314 315 315 313 312 311 310 309 309 310 310 311
307 308 307 307 307 306 306 305 306 308 310 310 309 309 310 310 309 309 311 312 314 314 314 314 314 314 314 314 315 316 315 313 313 314 314 313 313 312 311 311 311 315 316 314 313 310 309 309 309 310 311 311 311 311
304 304 307 305 304 305 308 310 310 312 312 312 311 312 311 310 311 311 313 313 314 314 314 315 315 315 316 315 314 315 314 314 313 311 310 309 310 310 310 309 309 309 309 310 310 310 311 311 311 311 311 311 311 311
304 305 305 307 308 309 310 312 312 312 313 313 312 311 310 311 312 313 312 313 313 313 315 316 316 315 315 316 316 315 314 312 311 311 311 311 311 310 310 310 310 311 311 311 311 311 311 311 311 311 311 311 310 310
309 308 309 312 313 313 313 312 312 312 313 313 312 312 312 312 313 313 314 314 314 315 314 315 316 315 314 313 312 311 311 312 311 311 312 312 311 311 311 311 311 311 311 310 309 308 308 309 309 310 310 311 311 310
312 311 312 313 313 313 313 312 312 312 312 312 311 312 313 313 314 314 315 315 314 315 315 312 311 310 310 311 312 311 312 312 312 312 312 312 312 312 312 311 311 311 312 311 311 312 311 311 312 311 311 311 310 309
313 313 314 312 312 311 311 311 311 311 312 312 312 312 312 312 312 312 312 312 311 311 311 311 312 312 311 311 311 311 311 312 313 313 313 313 313 313 313 313 312 312 312 311 311 311 311 311 311 310 310 309 309 307
313 313 312 313 313 312 312 312 312 312 312 312 312 311 312 312 311 311 312 312 312 311 311 311 311 311 311 311 311 311 312 311 311 311 311 311 311 311 312 312 311 311 311 311 311 311 310 310 309 309 308 307 306 305

GFSWCAN_850_thetae_027.txt.gz
Theta_e
301 301 301 301 301 299 298 298 299 299 297 296 297 297 297 296 297 302 308 308 307 307 309 311 311 311 312 316 319 319 323 323 323 322 322 323 323 324 325 325 333 329 329 325 328 330 330 342 342 348 336 334 344 337
301 301 300 300 301 300 298 298 298 298 297 296 296 296 296 296 297 304 310 309 308 310 307 308 309 307 309 312 315 315 320 322 329 329 325 326 323 324 327 329 330 330 328 327 325 327 348 347 347 347 348 348 348 347
302 302 301 301 300 300 298 298 298 298 297 296 296 296 296 296 297 298 305 308 309 311 313 313 310 311 310 308 310 314 318 317 318 321 327 328 330 326 329 333 332 332 334 332 334 339 339 341 342 344 346 347 347 348
300 300 300 301 301 300 298 298 298 298 298 296 296 296 296 296 297 298 299 308 310 310 312 315 315 314 314 312 309 310 312 313 316 318 323 324 325 325 324 329 329 331 334 337 340 337 338 334 332 335 341 343 345 345
300 300 300 301 300 300 298 297 298 298 298 296 296 296 296 296 299 299 304 309 310 310 312 313 315 314 314 312 312 310 310 312 314 318 320 320 320 323 324 325 329 327 333 336 337 334 338 338 335 328 339 342 343 344
297 300 300 300 300 299 298 297 298 298 297 296 295 296 296 296 300 311 312 310 310 310 312 315 316 314 314 313 312 311 311 313 314 315 316 318 318 322 324 326 330 329 330 332 332 330 329 334 337 335 338 339 341 340
298 299 300 298 298 297 297 297 297 297 296 295 295 296 295 299 300 307 312 312 310 308 312 315 317 316 315 313 312 311 313 314 314 314 314 316 317 320 322 322 326 327 328 327 327 326 329 332 331 330 331 339 338 338
302 300 299 297 296 297 297 297 297 297 295 295 296 295 298 302 306 309 309 307 305 307 312 316 319 317 315 314 315 314 315 315 315 316 316 317 317 319 321 321 319 322 323 325 325 325 326 326 329 330 330 331 335 338
302 302 301 298 296 297 297 297 297 295 295 295 295 301 303 305 309 310 308 306 306 311 313 315 318 321 319 316 317 316 316 318 316 316 317 317 318 321 321 318 318 320 323 323 323 322 322 323 325 325 328 331 331 334
303 303 302 300 296 296 297 297 296 295 295 296 304 307 309 310 307 306 311 312 311 312 312 314 315 320 316 318 319 320 319 319 320 319 317 317 318 317 317 319 321 322 322 322 321 321 322 323 322 324 328 327 328 327
302 302 302 301 297 296 297 297 295 295 297 304 307 309 310 307 309 311 312 314 313 314 313 312 312 319 317 320 321 319 322 322 322 322 321 322 322 324 323 322 322 322 321 320 320 320 321 320 321 322 322 324 326 327
302 303 301 302 298 296 297 297 295 298 304 306 306 308 309 310 311 312 314 313 314 315 315 315 314 318 318 319 319 319 321 321 323 321 324 324 325 324 323 322 322 322 322 322 321 321 321 321 321 321 322 323 323 324
301 302 301 301 297 296 298 296 295 302 304 305 306 309 309 310 310 311 313 315 316 315 317 318 320 318 318 319 319 321 320 322 320 324 323 325 323 323 322 322 321 320 320 320 320 320 320 321 321 322 322 323 324 323
300 302 301 300 297 297 298 296 295 302 303 307 309 304 310 311 311 313 315 317 316 317 317 317 318 318 318 320 320 321 321 322 322 323 324 324 320 320 320 320 320 320 319 318 318 318 318 320 320 321 322 324 324 325
301 301 300 298 298 298 297 295 296 297 305 308 310 309 310 310 312 315 315 315 316 316 316 316 317 317 319 320 320 321 322 322 323 324 323 321 320 320 319 319 318 318 319 318 318 318 318 317 317 320 320 321 324 325
301 300 298 299 299 297 296 294 295 303 307 309 309 310 311 312 313 313 313 315 315 315 315 315 317 319 318 319 319 320 320 322 320 319 318 318 319 318 317 315 314 314 315 316 316 317 317 316 317 319 321 321 321 321
299 298 298 299 297 296 294 296 302 305 307 308 309 310 310 312 314 315 315 315 315 315 318 316 318 318 318 319 318 320 322 318 318 317 317 317 316 315 313 314 315 315 316 316 316 316 316 316 317 319 320 321 321 321
300 299 298 297 295 294 299 303 305 306 307 307 309 310 312 313 314 315 314 314 315 314 314 316 315 318 319 318 319 319 317 317 316 315 315 315 313 313 313 315 316 317 318 317 316 316 317 319 320 321 320 316 317 318
300 298 296 295 296 302 304 305 307 308 307 308 310 311 313 314 313 313 314 313 313 313 313 313 314 316 317 318 317 316 315 315 315 314 314 313 313 314 314 316 318 319 319 319 318 319 321 321 322 322 319 317 317 319
297 295 295 299 302 306 306 305 306 308 310 310 312 312 313 313 313 312 313 312 312 311 312 313 315 317 316 315 315 315 314 313 313 314 313 314 314 315 317 318 318 320 319 320 321 320 319 321 321 320 320 319 320 319
295 296 300 302 304 306 307 307 306 309 309 311 312 312 311 312 312 312 312 312 310 310 311 312 315 315 314 314 313 312 312 313 313 313 314 314 316 316 317 317 317 318 319 319 319 318 317 318 318 318 319 319 320 320
302 303 304 304 306 307 307 308 309 309 309 310 311 311 312 313 312 310 309 310 310 312 313 312 312 312 311 312 312 313 313 313 314 315 315 315 316 317 317 316 316 316 316 317 318 318 318 317 317 317 317 316 317 316
302 304 306 306 305 304 304 307 308 309 311 311 310 310 311 311 308 308 309 309 309 309 310 311 311 312 312 313 312 313 313 315 315 316 315 316 317 317 316 316 315 315 316 316 317 317 316 315 315 314 313 312 311 311
304 306 306 306 304 304 308 308 309 310 309 309 310 310 310 309 307 307 307 306 309 310 312 313 313 313 312 312 313 313 314 315 315 315 316 316 317 316 315 316 315 315 313 312 312 312 312 313 313 313 313 312 310 310
304 300 304 303 306 308 308 308 307 307 308 310 310 310 309 307 307 305 304 307 310 312 313 313 313 312 313 313 313 314 316 315 315 315 315 315 315 315 314 312 312 312 312 312 312 313 313 313 313 312 312 310 310 310
302 303 306 308 308 309 307 307 308 308 308 310 310 308 307 308 308 307 308 310 312 313 313 312 313 314 314 314 315 315 315 314 315 315 315 315 314 314 314 313 313 314 314 314 315 315 314 313 311 310 310 310 311 311
305 307 308 308 308 308 308 306 307 308 309 310 309 309 309 310 308 309 310 312 314 313 313 313 314 314 314 314 314 314 315 315 316 315 314 314 315 316 316 316 317 315 315 315 311 309 309 309 310 310 311 311 311 311
305 305 307 306 306 306 308 309 309 310 310 310 310 312 312 310 311 311 313 313 313 314 314 314 314 314 315 315 314 313 314 314 313 311 311 311 311 310 310 310 311 311 310 310 310 310 310 311 312 311 311 311 311 311
304 305 306 306 307 308 308 311 312 312 312 312 312 311 310 310 312 312 313 313 314 315 314 315 316 316 315 316 316 315 314 312 311 310 309 309 309 309 309 309 310 310 310 312 311 312 311 311 312 311 311 311 310 311
308 307 309 311 312 313 313 312 313 313 313 313 312 312 312 312 313 313 313 314 313 314 315 316 317 316 316 316 316 315 314 312 312 312 312 312 311 311 311 311 311 311 311 310 310 309 309 309 310 310 311 311 310 310
311 310 311 313 313 312 312 312 312 312 312 312 313 312 313 313 313 314 314 315 317 317 317 316 314 312 313 312 312 312 312 312 312 312 312 312 312 312 312 311 312 312 312 312 312 312 311 311 311 312 311 311 311 310
313 314 314 313 313 312 312 313 312 312 313 313 313 314 314 314 315 313 312 313 315 317 316 313 312 311 312 312 312 312 312 312 313 313 313 313 313 313 313 313 313 312 312 312 311 312 312 311 311 311 310 310 310 309
313 313 313 313 312 312 312 312 312 312 313 313 313 312 311 312 312 312 312 313 312 312 312 312 312 312 311 311 312 312 312 312 312 312 312 312 312 312 312 312 311 311 311 311 311 311 311 310 310 310 309 308 307 306

GFSWCAN_850_thetae_030.txt.gz
Theta_e
301 301 301 301 300 300 300 298 298 298 297 296 296 297 297 297 297 306 308 308 308 307 305 308 310 309 309 313 315 316 319 322 322 317 317 317 317 317 320 320 323 321 320 321 322 326 326 342 342 337 334 340 333 331
301 301 301 300 300 300 300 300 297 298 298 297 296 296 297 297 297 302 309 307 308 307 305 307 308 308 308 309 312 319 319 317 323 326 324 323 319 319 320 321 322 325 320 321 320 321 336 338 340 344 339 339 337 331
301 301 301 302 301 301 300 300 297 298 298 297 296 296 296 297 297 298 303 306 308 310 310 311 308 309 310 308 309 314 315 315 317 318 323 323 327 323 323 324 326 325 330 330 334 336 332 335 338 341 342 343 343 342
301 301 301 301 300 300 301 300 297 298 298 297 296 296 296 296 297 298 299 309 309 310 309 314 313 312 314 313 310 309 312 313 314 317 319 319 320 319 317 317 323 326 328 331 333 334 335 331 333 331 336 334 328 341
300 301 300 300 300 300 300 299 297 297 298 297 296 296 296 296 298 305 308 309 309 309 309 312 314 315 314 313 310 309 309 309 311 315 315 315 317 319 319 318 325 327 329 329 333 332 335 335 332 332 341 340 340 338
297 298 299 301 301 300 299 298 297 297 298 297 296 296 296 296 299 311 311 310 309 309 307 308 315 314 313 313 313 311 310 310 310 315 314 315 318 318 317 322 328 327 331 330 330 330 333 335 332 334 336 338 337 336
300 297 297 300 300 299 297 297 297 297 297 296 296 296 296 296 300 307 311 310 311 309 310 312 312 316 314 314 312 311 310 311 313 313 312 313 314 315 315 318 326 328 328 328 325 327 327 330 330 330 333 335 336 336
301 301 300 300 299 297 296 296 297 297 296 295 296 296 296 300 304 307 308 307 306 305 311 309 312 316 314 314 313 312 312 313 313 314 315 313 313 316 316 317 320 323 324 325 324 323 323 324 324 326 329 330 331 331
302 302 301 301 301 297 296 297 297 297 295 295 296 300 302 305 309 310 309 307 305 310 312 313 312 315 318 316 315 315 314 312 315 313 313 314 310 313 314 317 317 317 322 323 323 322 322 322 324 326 327 329 330 332
303 303 302 301 301 297 296 297 297 296 295 295 304 307 308 309 308 306 309 311 311 309 310 311 314 314 316 317 317 319 318 311 314 312 314 311 311 315 316 319 318 320 322 322 322 321 321 321 321 321 322 322 324 327
303 303 302 303 302 298 296 297 297 295 295 304 307 309 310 308 308 310 311 312 313 312 312 312 311 309 317 315 315 318 315 315 317 315 317 314 312 322 322 322 322 321 321 321 321 321 321 321 321 320 321 322 323 323
302 303 302 302 302 300 296 297 296 296 304 306 306 307 309 309 310 311 309 311 311 311 314 312 312 314 317 318 317 318 316 316 318 317 319 319 317 322 321 321 321 321 321 320 320 320 321 321 321 321 322 323 324 324
301 302 302 302 303 300 296 297 296 301 304 305 306 308 309 309 305 309 311 312 312 314 318 317 316 318 318 319 317 315 316 316 319 319 320 318 319 320 320 320 320 319 319 319 319 319 319 319 320 320 321 321 324 324
300 301 302 302 302 297 296 297 295 301 304 306 308 301 306 304 308 308 309 312 316 316 316 317 317 317 317 316 315 318 317 319 321 321 321 317 320 319 319 319 319 318 318 318 318 318 318 317 317 318 318 319 320 322
299 301 302 301 300 296 298 297 295 300 304 306 309 302 307 309 311 312 314 315 316 316 316 316 316 317 314 316 314 316 320 319 321 319 320 319 319 319 318 318 317 316 315 314 314 315 316 317 318 317 317 317 319 320
300 301 301 300 298 299 298 296 296 299 305 307 308 309 310 311 311 313 313 312 315 315 315 315 315 314 315 314 317 318 319 321 319 316 318 318 318 317 316 315 314 313 315 315 315 316 316 316 316 315 315 317 320 320
300 301 300 298 299 298 296 294 299 304 305 308 308 309 311 311 313 314 314 315 314 315 312 314 315 317 314 316 316 315 316 315 317 317 316 316 314 313 313 314 313 315 316 316 316 316 316 316 316 317 318 318 320 319
301 300 298 299 297 296 295 302 303 305 306 307 307 309 311 312 313 313 314 314 314 314 314 314 314 315 316 317 317 314 316 316 315 314 312 313 314 313 314 314 314 316 318 318 317 316 316 317 317 319 320 318 317 317
300 299 298 297 295 299 303 304 306 307 308 308 308 309 312 313 313 313 313 312 312 312 312 313 311 311 313 315 315 315 315 314 312 312 313 313 313 314 315 316 317 319 319 318 317 318 320 320 320 320 319 316 316 318
299 297 296 296 302 305 305 304 306 307 308 310 311 311 312 312 312 312 312 312 311 311 311 309 312 315 315 315 315 314 312 312 313 313 313 314 315 316 317 317 318 320 319 320 320 320 321 321 320 319 320 318 317 318
295 294 298 302 303 305 306 307 306 308 309 310 311 311 311 312 313 312 312 311 310 310 309 313 313 313 313 313 312 311 311 313 313 313 314 314 316 317 317 317 317 318 319 319 318 318 318 318 317 317 318 319 319 319
295 300 303 304 304 307 307 308 308 309 310 310 311 311 311 312 311 309 308 310 310 312 312 311 311 311 311 311 311 313 313 313 315 315 315 315 316 316 317 316 316 316 318 318 318 317 318 318 317 317 317 317 317 317
302 304 305 306 306 304 304 306 308 310 310 309 310 309 310 309 307 307 308 308 309 309 310 311 312 312 312 312 312 313 314 315 315 316 316 317 316 316 315 315 316 316 317 317 316 316 316 315 315 314 313 313 313 312
304 304 306 306 304 302 307 308 308 308 307 307 307 309 308 307 306 306 305 307 310 310 312 313 313 313 313 312 313 314 314 316 316 317 316 315 316 316 315 315 315 314 313 313 312 312 311 311 310 310 310 310 310 310
304 300 303 304 304 307 307 306 305 305 305 307 308 307 308 307 306 305 304 307 310 312 312 313 313 312 313 313 314 315 315 315 315 315 316 316 315 314 312 312 312 311 312 312 313 313 313 313 313 313 312 311 310 309
298 302 305 308 308 307 305 305 303 306 307 309 309 307 306 307 308 307 307 310 312 313 313 313 312 313 314 314 315 315 315 314 314 314 314 313 312 312 312 312 312 313 315 315 316 315 312 311 311 310 310 310 310 310
303 306 307 308 307 308 307 306 307 307 309 309 308 308 308 309 308 308 310 311 313 312 313 314 314 315 315 314 314 314 315 315 315 316 316 315 315 316 315 314 314 314 314 312 310 310 309 309 310 310 311 311 311 310
306 305 306 307 305 306 308 308 308 309 309 310 309 310 311 310 310 311 313 313 313 313 314 314 314 314 314 314 314 314 314 314 313 312 312 312 312 310 315 316 313 312 311 310 309 309 310 310 310 311 311 311 310 310
305 305 305 306 307 307 307 309 311 311 311 311 311 310 310 310 312 313 313 313 313 314 314 314 315 314 314 314 314 314 315 315 311 309 309 309 309 309 308 309 309 309 310 310 311 311 311 311 311 311 311 310 310 310
307 306 308 309 309 310 311 311 313 313 312 312 311 312 312 312 312 314 314 314 314 314 315 316 316 316 316 316 315 315 315 315 314 310 311 311 311 310 311 311 311 311 311 311 311 310 309 310 310 310 310 311 310 310
310 309 310 312 312 312 312 312 313 312 312 312 313 313 313 313 313 313 313 313 314 315 316 316 316 316 315 316 316 313 312 312 312 312 312 311 311 311 311 311 311 311 312 312 311 311 311 311 311 311 310 311 311 311
313 313 313 313 312 312 312 312 312 312 312 313 313 313 313 314 314 313 314 315 315 316 315 316 317 313 312 313 312 312 312 312 312 312 312 312 312 312 312 313 312 312 312 311 311 311 311 311 311 311 310 310 309 309
313 313 312 313 313 312 312 312 312 312 313 313 313 313 313 314 314 312 312 312 312 312 313 312 312 311 311 311 311 312 312 312 312 313 313 313 313 313 313 312 310 310 311 311 310 310 310 310 310 309 309 308 307 307

GFSWCAN_850_thetae_033.txt.gz
Theta_e
300 301 301 301 300 300 300 300 299 297 298 297 297 297 297 298 297 306 308 307 307 307 305 306 309 308 308 310 311 315 318 322 323 316 316 316 316 316 318 319 321 319 318 318 319 322 323 338 342 332 327 338 335 333
300 301 301 301 300 300 300 300 299 297 298 297 297 296 297 297 297 299 305 307 305 306 305 305 306 308 307 308 308 316 317 317 319 323 321 319 318 316 317 319 320 324 319 319 318 319 334 337 340 340 334 338 335 333
300 300 300 301 302 302 301 300 300 297 298 297 297 296 296 297 297 298 299 303 306 309 308 310 311 311 309 309 308 310 315 315 316 318 321 320 323 318 318 321 322 323 327 329 333 332 332 335 342 342 343 342 341 339
300 300 301 302 302 302 300 300 300 298 297 298 297 296 296 297 296 298 299 306 308 308 308 313 313 310 312 312 311 308 311 313 314 317 318 317 318 316 314 315 318 322 325 330 332 332 333 331 336 336 334 330 330 339
300 302 302 300 300 300 299 300 299 298 297 298 297 296 296 297 297 305 306 309 308 308 308 311 313 314 314 313 311 309 308 309 310 314 313 315 315 314 315 318 326 327 327 328 330 331 331 331 334 337 339 339 337 338
302 301 299 300 300 300 301 299 298 297 297 297 297 296 296 297 298 308 309 309 309 309 308 306 313 314 313 313 313 311 309 309 309 312 312 313 316 315 315 321 326 329 329 329 329 333 333 330 332 337 338 337 335 333
298 298 298 298 299 301 300 298 297 296 297 297 296 296 296 296 298 307 311 310 310 309 307 310 311 315 313 313 312 311 310 310 312 312 311 311 313 313 313 316 327 327 326 329 329 329 330 329 330 334 336 336 335 334
301 301 300 297 298 300 299 297 296 297 297 296 296 296 296 297 300 304 305 307 305 305 309 307 309 314 313 313 313 311 311 311 312 313 313 311 310 312 312 315 320 326 325 324 326 327 326 325 325 327 331 332 331 330
301 301 301 301 301 300 298 296 296 297 296 295 296 297 301 303 309 310 309 308 306 307 311 310 309 314 317 316 313 314 312 310 312 311 310 312 308 310 310 316 318 316 324 323 323 323 323 323 323 327 329 330 330 329
303 302 302 302 301 301 298 296 297 296 295 295 302 306 308 309 309 308 307 310 309 306 307 308 311 313 316 315 316 316 315 309 312 311 311 309 309 313 318 319 318 317 318 322 321 321 321 321 321 320 321 321 322 324
302 303 302 303 302 301 298 296 296 296 295 303 306 307 309 309 307 309 310 310 311 310 311 310 310 309 315 313 313 317 313 313 316 314 312 311 313 319 320 320 321 320 321 321 321 321 321 320 320 319 320 321 322 323
303 304 303 303 302 302 299 296 296 295 304 305 305 307 308 309 309 309 306 309 309 311 311 311 311 309 316 317 316 316 314 313 317 315 317 316 316 319 319 319 319 319 319 319 319 320 320 320 320 320 321 321 321 322
302 302 303 302 302 302 300 296 296 297 304 305 306 306 308 308 302 308 310 309 310 311 315 315 315 317 317 317 315 312 314 314 316 317 318 317 319 318 319 319 319 319 319 319 318 318 318 317 317 318 319 320 321 323
302 302 302 302 302 302 299 296 296 299 303 305 307 300 304 302 305 306 307 308 312 315 315 316 316 316 316 314 313 317 314 316 319 319 320 319 319 318 318 317 317 317 317 316 315 314 314 314 316 317 317 317 317 319
300 301 300 302 302 302 297 297 296 300 304 305 307 307 306 308 308 310 311 313 315 315 315 315 315 315 312 314 312 314 318 318 319 320 319 319 318 317 316 316 315 314 314 313 313 315 315 315 314 314 315 316 316 316
300 300 300 302 302 297 297 297 296 301 304 306 307 307 308 308 310 311 311 312 314 315 314 314 314 312 313 312 316 317 317 320 316 314 318 317 316 314 313 312 313 313 314 314 316 315 316 316 316 316 316 316 316 315
300 301 301 301 300 298 297 295 298 301 304 306 307 308 309 309 310 313 313 314 314 314 311 312 313 315 312 314 315 314 316 314 317 316 315 313 312 312 313 313 314 314 314 316 317 318 316 315 315 315 316 318 318 318
300 301 301 298 299 297 295 298 301 303 305 306 306 307 311 311 313 313 314 313 313 313 313 313 313 314 314 316 315 312 316 315 315 313 312 312 313 313 313 314 315 315 317 318 319 317 316 317 317 318 318 319 317 317
299 300 299 299 297 295 299 303 304 306 306 307 308 308 308 311 313 312 312 311 312 312 312 312 309 309 312 313 314 315 314 313 312 311 312 313 313 314 316 317 318 318 319 319 318 318 319 320 319 318 317 320 317 317
299 299 298 295 298 303 304 304 304 306 307 309 310 311 312 312 312 311 312 311 311 310 310 308 310 314 314 315 315 314 313 312 311 312 313 314 315 316 317 317 318 319 319 319 319 320 320 319 317 317 317 317 316 317
299 298 296 297 302 303 305 306 306 306 308 309 311 311 311 312 312 312 311 311 310 309 309 314 314 313 313 313 313 312 311 311 312 313 314 315 316 317 317 317 317 318 319 318 318 318 317 316 316 316 316 317 317 317
296 295 299 301 303 306 307 307 308 308 309 309 310 311 311 310 310 309 308 309 309 311 311 312 312 311 311 311 311 311 312 313 314 315 315 316 316 316 316 316 316 317 318 318 318 318 318 317 317 317 317 317 317 316
299 303 304 305 305 304 305 306 307 308 308 308 308 308 308 308 307 307 307 308 308 308 308 309 311 312 311 312 312 312 313 315 315 316 316 316 315 315 315 315 316 317 316 316 316 316 316 315 315 315 315 315 314 314
302 304 305 306 305 301 305 307 308 306 307 306 306 308 306 306 306 305 304 305 308 310 310 312 313 312 312 312 313 314 315 316 316 316 316 316 316 315 316 316 316 315 312 311 311 310 311 311 311 311 311 311 311 311
303 300 302 304 303 306 306 304 303 303 304 305 307 306 306 307 305 305 304 307 310 311 313 313 313 313 313 313 314 315 316 315 316 315 315 315 314 313 312 312 312 312 312 312 312 312 311 311 310 309 309 309 309 309
296 302 304 306 307 305 301 302 300 302 304 307 307 307 306 307 307 307 307 309 311 312 313 313 312 312 313 314 315 315 315 315 315 314 313 312 312 313 313 313 313 314 314 314 314 314 314 313 313 311 310 309 309 310
301 304 306 307 307 307 305 306 307 307 308 308 308 308 308 309 308 308 310 311 312 313 313 312 313 314 315 315 315 315 315 315 315 314 312 312 312 314 314 314 314 311 313 311 310 310 309 310 309 310 310 310 310 310
306 305 305 305 305 305 307 307 307 308 308 309 308 310 310 310 309 311 312 314 313 313 314 314 314 314 314 314 314 314 314 314 314 314 314 314 314 313 315 316 315 312 309 309 309 309 309 310 310 310 310 310 310 310
305 304 304 305 306 306 306 308 310 310 310 310 310 310 310 310 311 313 313 313 314 314 314 314 314 314 314 314 313 314 314 313 312 312 311 311 309 310 309 309 310 310 310 310 311 311 311 311 311 311 310 309 309 310
306 306 306 308 308 309 309 310 311 313 312 311 311 311 311 312 313 313 313 314 314 314 315 315 315 315 315 315 316 315 314 313 310 309 310 310 310 309 310 310 310 310 310 311 310 310 310 310 310 310 310 310 310 310
309 307 308 310 312 312 312 312 313 312 312 312 312 312 313 313 313 313 314 314 314 315 315 316 316 316 315 315 316 314 313 312 312 311 311 311 311 311 311 311 311 311 311 311 311 311 310 310 311 310 310 310 310 310
311 311 312 313 312 312 312 312 313 313 313 313 313 313 313 313 313 313 313 313 314 315 315 315 315 313 312 314 315 313 312 312 312 312 311 311 311 312 312 312 312 312 312 311 311 311 310 310 311 311 311 310 310 309
312 312 312 312 312 312 312 312 312 312 312 312 312 313 313 313 314 311 312 312 312 312 313 313 313 312 313 313 313 312 312 312 312 312 312 312 312 312 312 312 312 312 310 309 311 311 310 310 309 309 309 308 308 307

GFSWCAN_850_thetae_036.txt.gz
Theta_e
300 301 301 301 301 300 300 300 299 299 297 297 297 297 297 298 297 301 307 306 306 306 304 305 307 308 308 308 309 312 317 320 321 314 315 315 315 316 317 317 319 317 319 319 319 321 322 336 340 328 323 335 336 335
301 300 301 301 301 300 300 301 300 299 297 298 297 297 297 297 298 298 302 305 305 305 304 304 304 306 306 307 308 311 317 317 318 319 319 317 317 316 315 318 319 322 317 320 318 318 330 335 338 339 334 336 334 333
301 300 300 300 300 301 302 301 300 300 298 297 297 297 296 297 297 298 299 300 303 306 306 309 311 309 309 308 308 308 313 314 315 318 320 318 320 314 318 320 320 321 323 329 331 331 331 334 340 342 342 341 340 335
302 300 300 300 301 302 302 302 300 300 298 297 297 297 296 297 297 298 300 304 307 307 306 312 313 310 310 312 311 309 308 312 313 316 317 314 316 313 313 314 316 319 325 330 332 331 331 332 335 335 331 330 336 341
303 301 300 300 301 301 300 300 300 299 298 297 297 297 296 297 296 303 304 308 308 307 307 310 312 314 314 312 311 310 308 308 309 312 313 315 313 312 312 318 325 326 324 326 329 329 330 331 334 336 338 337 337 338
302 301 300 302 302 300 300 300 300 299 297 297 297 297 296 297 297 307 308 308 309 308 308 303 311 313 312 312 312 312 309 309 308 310 311 312 315 314 313 321 325 327 329 328 331 332 332 332 335 337 338 335 333 330
302 301 301 300 299 300 300 301 299 297 297 297 297 296 296 297 297 307 310 309 309 307 307 308 309 315 313 312 312 311 310 309 312 310 309 309 311 313 312 318 326 327 329 330 331 330 329 330 335 336 337 335 334 334
301 300 298 298 298 298 299 300 298 296 296 297 296 296 296 297 299 303 305 307 306 305 306 306 308 313 312 313 312 310 310 310 311 311 312 309 309 309 308 313 319 325 326 329 329 328 327 328 329 332 333 334 333 331
300 300 300 299 298 297 300 298 297 296 297 296 296 297 300 303 309 309 309 308 307 305 310 308 308 312 316 314 312 312 311 308 311 310 309 310 306 308 306 311 314 320 324 324 325 326 325 325 326 328 330 330 329 329
301 301 301 301 301 300 300 299 296 296 296 295 300 305 307 308 308 307 307 308 308 306 306 307 310 310 315 314 315 315 313 308 312 309 310 307 307 316 318 318 318 318 317 321 323 322 322 323 324 324 324 324 324 324
301 302 302 302 301 301 301 297 296 296 295 302 305 306 307 309 307 308 309 309 309 309 309 307 308 309 314 312 312 315 311 311 315 312 310 309 316 317 317 319 319 319 318 320 320 320 320 320 320 320 320 320 320 321
301 301 303 302 303 301 301 297 296 295 302 304 305 307 308 308 308 308 305 307 307 309 310 310 310 310 313 316 314 314 313 312 316 313 315 316 315 317 318 318 318 318 319 320 320 320 319 319 320 320 320 320 321 321
302 303 302 302 302 302 302 297 296 296 303 305 305 306 308 307 301 307 309 308 308 310 311 311 313 312 316 316 314 311 314 313 314 315 317 317 318 318 318 318 318 318 318 317 317 317 317 317 317 318 318 318 319 320
302 303 303 302 302 302 301 297 296 299 304 305 306 298 303 302 304 305 305 306 310 312 314 314 315 315 315 315 313 315 313 314 317 317 318 318 318 318 317 316 316 315 315 314 314 314 313 313 313 313 314 314 316 316
300 302 301 303 302 302 300 296 296 301 304 305 306 306 304 307 307 308 309 309 311 314 314 314 313 313 312 314 311 313 317 318 317 317 319 318 318 317 316 314 312 312 312 313 313 313 314 315 315 315 315 315 314 314
301 302 302 302 302 302 298 297 296 302 303 305 306 306 308 306 307 310 309 308 312 314 313 313 312 312 312 311 315 316 316 318 314 313 318 318 316 314 312 312 312 313 313 314 314 315 316 317 316 315 315 315 315 316
301 302 301 301 301 298 297 296 300 302 303 305 306 307 307 307 308 310 313 313 314 313 312 311 312 313 310 312 314 312 314 312 316 316 315 312 311 312 313 313 313 314 314 315 316 318 318 317 315 314 315 316 316 318
300 299 301 301 298 297 295 298 299 302 303 305 305 306 307 310 312 312 313 312 312 312 312 312 311 313 313 316 314 311 315 315 315 313 311 311 312 313 313 315 316 316 317 318 317 317 316 318 319 319 317 317 318 316
299 300 300 299 297 295 297 299 303 305 306 305 306 307 307 309 312 311 310 311 312 311 312 311 308 308 310 312 312 314 314 313 312 311 311 312 314 314 316 317 317 318 319 319 319 318 319 319 317 316 317 316 318 317
300 300 298 297 296 302 303 303 303 305 306 307 308 310 311 311 311 311 311 311 310 310 309 308 308 313 314 315 314 314 313 311 311 311 311 314 314 316 317 317 317 319 319 319 318 318 318 317 316 316 316 316 316 316
299 298 298 296 301 303 304 305 305 305 307 308 310 310 310 312 311 311 311 311 310 308 308 312 314 314 314 314 313 312 311 311 312 312 313 314 315 316 317 316 317 317 317 318 317 316 315 315 316 316 316 316 316 316
298 298 296 298 302 304 306 306 307 307 308 308 309 310 310 309 308 308 308 310 309 309 310 311 312 312 312 312 312 311 311 311 313 314 315 315 316 316 316 315 316 317 317 317 317 316 316 316 316 316 315 316 315 315
296 299 303 303 303 304 304 307 307 308 307 307 307 307 307 307 307 307 306 307 308 308 308 308 310 311 311 311 311 311 312 313 315 315 316 316 315 315 315 316 316 316 316 316 315 314 314 314 313 313 313 312 311 310
302 303 304 305 305 301 304 307 307 305 306 305 305 307 305 305 306 305 303 304 307 309 309 310 312 313 312 312 312 313 314 315 316 316 316 316 315 316 316 315 314 312 311 311 310 310 310 310 311 311 311 311 310 310
302 300 302 303 302 305 304 302 302 302 303 304 306 305 305 306 304 305 304 307 309 310 312 312 313 313 313 313 314 315 315 316 316 315 315 314 313 312 311 311 311 311 311 311 311 311 310 310 308 308 309 309 309 308
296 303 304 306 306 303 300 302 299 302 302 305 305 306 306 306 307 306 307 309 310 312 313 313 313 312 313 314 315 315 315 315 314 313 312 311 312 313 313 313 313 313 313 313 313 313 312 311 309 309 310 309 310 309
299 303 305 306 306 306 304 305 305 305 306 306 306 307 307 308 308 308 309 310 312 313 313 312 312 313 315 315 315 315 315 314 313 312 312 312 312 313 314 313 313 314 313 310 309 309 309 309 309 309 309 310 310 310
305 305 303 304 305 305 307 307 307 307 307 308 308 309 309 309 309 310 311 313 313 313 313 314 314 315 314 314 314 314 314 314 314 313 313 313 314 314 314 315 314 310 309 309 309 309 309 310 310 310 310 309 309 310
305 304 304 304 305 305 306 307 309 309 309 309 309 310 310 310 310 312 313 314 314 314 314 314 314 314 314 314 314 314 313 311 310 311 312 312 310 311 310 309 310 310 310 310 310 310 310 311 310 310 309 310 309 309
306 305 305 307 307 308 309 309 309 311 312 310 310 311 311 312 313 313 313 314 314 314 314 314 314 314 314 314 315 314 313 312 310 310 309 309 309 310 309 309 310 310 310 310 310 310 310 310 310 309 309 310 309 310
308 307 307 308 310 310 311 312 312 312 312 312 312 312 312 313 313 314 314 314 314 314 314 314 315 316 315 315 315 314 313 313 313 312 310 310 311 311 311 311 311 311 311 311 310 310 310 309 309 310 310 310 310 310
309 309 312 313 312 312 313 312 313 313 313 313 313 313 313 313 313 314 314 315 315 315 316 315 314 314 313 313 314 313 312 312 312 312 312 311 310 310 311 311 311 311 311 311 311 311 311 310 310 310 310 309 310 309
312 312 312 312 312 311 312 312 312 312 312 312 312 313 313 312 312 312 312 313 312 312 312 313 312 311 312 312 314 313 312 312 311 311 311 311 311 311 312 312 312 312 311 310 310 310 310 310 310 309 308 307 306 306

GFSWCAN_850_thetae_039.txt.gz
Theta_e
305 301 301 301 301 301 300 300 300 299 298 297 298 297 297 298 298 298 302 305 305 305 304 304 306 308 308 307 311 312 320 322 325 323 323 322 323 322 324 323 324 326 327 328 329 330 329 337 342 332 334 338 338 337
305 301 301 301 301 301 300 300 300 300 299 297 298 297 297 297 298 298 299 300 302 302 303 303 304 304 305 306 307 308 317 318 318 325 324 322 324 323 324 327 325 328 328 329 327 327 335 337 339 340 336 338 337 336
305 302 300 300 301 300 300 301 301 300 299 297 297 297 297 297 297 298 299 299 303 305 306 308 311 310 309 308 308 307 312 313 314 318 323 325 326 322 327 327 327 328 326 334 335 336 338 337 337 339 340 342 340 335
307 303 301 300 300 300 301 302 302 300 299 298 297 298 297 297 297 298 300 303 306 306 308 311 312 310 310 310 310 308 307 310 310 315 320 322 323 317 321 321 324 325 329 337 338 336 336 335 335 333 334 338 341 335
307 303 301 300 300 300 301 301 301 299 299 298 297 297 297 297 297 303 304 306 307 306 309 309 310 313 313 311 311 309 308 308 308 312 318 320 317 319 317 325 331 329 332 334 337 335 336 335 334 335 341 340 340 335
306 302 301 300 300 301 301 300 300 300 299 297 297 297 297 297 297 306 307 307 308 307 308 311 309 313 312 312 312 312 310 308 308 310 313 313 313 316 322 329 330 328 328 329 333 332 332 333 334 337 339 335 331 332
303 301 301 301 301 302 300 300 300 300 297 297 296 297 297 297 297 306 309 308 307 307 307 310 313 314 312 312 312 310 310 309 311 309 310 311 313 315 320 325 329 328 328 331 331 331 332 331 336 336 336 335 334 333
303 301 301 301 301 299 299 300 300 299 297 297 296 296 297 297 298 301 306 307 306 305 305 311 314 314 312 313 313 310 310 309 311 311 312 312 310 312 317 318 318 323 326 331 330 327 327 330 333 334 334 334 332 330
302 301 301 299 298 298 298 299 299 298 296 297 296 297 299 304 308 307 308 308 306 306 310 311 315 319 315 313 311 312 311 314 310 314 313 312 313 313 312 315 318 316 323 324 329 328 326 326 327 330 330 330 329 328
302 301 299 299 298 297 299 299 298 296 296 296 299 304 305 307 308 307 306 307 307 305 304 309 310 317 315 315 316 317 314 315 317 315 311 314 315 316 318 318 317 317 318 321 325 325 325 326 327 326 325 324 322 320
301 301 301 301 300 300 301 300 297 296 296 299 305 306 306 308 306 307 309 310 309 310 308 307 308 313 312 318 320 316 319 318 321 317 315 315 319 320 318 318 318 318 317 317 321 322 320 321 321 321 320 320 320 319
300 300 301 301 301 301 301 299 296 296 298 304 305 307 308 307 308 310 310 309 311 311 311 312 311 309 311 315 318 317 319 318 320 317 321 320 322 318 318 318 317 318 318 319 319 320 320 320 320 320 320 320 320 320
301 301 302 301 302 301 301 297 296 297 303 305 306 306 307 306 306 309 310 311 312 312 312 312 313 311 315 316 316 318 319 318 316 321 321 320 319 319 318 317 317 316 316 316 315 315 315 315 315 315 316 317 317 318
302 302 301 302 303 302 301 297 296 300 304 305 306 304 307 308 308 309 310 311 310 311 314 314 316 316 316 318 317 318 317 318 320 321 322 320 319 318 317 316 314 313 313 313 313 313 313 313 313 313 313 313 313 313
302 302 301 302 301 301 301 296 296 303 304 305 306 307 308 307 307 307 307 308 309 310 314 314 314 314 317 318 317 317 320 319 321 322 321 318 318 318 316 314 312 312 312 312 312 313 314 314 315 315 315 315 316 316
301 302 302 302 302 302 298 296 298 303 304 305 305 308 308 308 309 309 310 310 309 313 313 312 315 317 316 316 318 318 319 320 321 319 319 318 317 314 312 312 312 313 313 313 314 314 315 316 317 317 315 315 315 315
300 302 301 302 301 301 297 296 302 303 303 305 307 307 307 308 309 309 312 312 313 313 316 315 315 316 314 317 317 317 320 319 317 317 316 313 311 312 312 313 314 315 315 315 316 317 316 317 317 316 315 315 315 316
301 300 302 301 301 297 296 299 300 301 303 305 306 306 306 307 310 312 312 312 311 312 312 315 313 316 317 318 319 318 317 316 315 313 312 311 311 313 314 316 316 316 316 318 318 316 316 318 318 317 317 316 316 318
301 301 300 299 297 296 298 299 303 305 305 305 305 306 307 307 311 310 310 310 311 310 311 311 313 314 317 316 316 316 315 314 314 312 311 311 313 314 316 317 317 318 318 319 318 317 318 319 316 316 316 316 315 315
300 298 297 295 298 301 301 302 303 304 306 307 307 309 310 311 311 310 310 310 309 309 311 313 313 315 316 314 314 314 313 312 311 311 312 313 314 315 316 316 316 318 318 318 317 318 317 315 315 315 315 316 316 316
300 298 297 298 302 303 303 304 304 305 306 308 309 310 310 311 310 310 310 310 310 310 311 312 313 314 314 314 314 313 312 311 311 311 312 314 315 315 316 316 316 317 317 317 316 316 316 316 316 316 315 315 315 315
298 297 296 298 302 304 305 305 306 307 308 308 309 309 311 311 309 308 308 309 311 310 309 310 312 312 312 312 312 312 311 310 311 312 314 315 316 316 316 315 315 316 316 316 316 316 316 315 315 315 315 314 312 312
298 297 303 303 303 304 304 307 307 307 310 308 307 310 310 309 307 307 308 307 308 308 309 309 309 310 311 311 311 311 311 311 313 315 315 316 315 315 315 316 316 316 315 314 313 312 311 311 311 311 310 310 310 309
302 302 303 304 304 302 304 307 306 305 306 308 309 310 308 307 306 307 308 306 306 308 309 309 310 312 312 312 312 313 314 315 315 316 316 316 315 316 315 314 312 310 309 309 310 310 311 311 311 310 309 309 309 310
302 301 301 302 302 304 306 306 305 305 307 307 308 308 306 305 308 307 308 307 308 309 310 312 312 313 313 313 314 315 315 316 316 316 315 314 310 309 310 309 310 310 310 309 309 309 309 308 309 309 309 309 309 308
299 303 304 306 306 306 305 306 305 305 306 307 308 307 306 308 307 309 308 309 310 311 312 313 313 313 313 314 315 315 315 315 314 312 311 311 312 313 313 313 313 313 313 313 312 311 309 309 309 309 310 310 309 309
302 304 305 305 305 305 305 305 305 306 306 307 308 309 309 309 309 309 309 310 311 312 313 313 312 313 314 314 314 314 313 312 311 312 312 313 313 313 313 313 313 314 312 310 310 309 309 309 309 309 309 310 310 309
304 305 306 304 305 304 307 307 308 308 308 308 309 309 309 309 310 310 311 311 313 313 313 313 315 314 314 315 314 314 314 313 312 312 312 313 314 314 314 314 313 309 309 309 310 309 309 309 309 309 309 309 308 309
305 305 304 304 304 305 306 308 308 309 309 309 309 310 310 310 310 311 312 313 313 313 314 314 314 314 314 314 314 314 312 311 311 313 314 314 313 314 311 310 309 310 310 310 310 310 310 310 310 310 309 310 309 309
306 305 305 306 307 307 308 307 308 309 311 310 309 310 311 311 312 313 314 314 314 314 314 314 314 314 313 314 314 314 313 311 310 310 311 311 310 309 309 309 310 310 310 310 310 310 309 309 309 309 309 309 309 309
307 306 306 307 309 309 310 311 312 312 312 312 312 312 312 313 314 314 313 313 313 314 314 314 314 315 315 314 314 315 314 313 311 310 310 310 310 310 310 310 310 311 311 311 310 310 310 310 309 309 310 310 310 310
308 307 308 312 312 312 312 312 313 313 312 312 312 312 313 313 313 312 313 314 314 314 313 315 315 314 314 313 313 314 313 312 312 312 311 311 311 310 310 311 311 311 311 311 311 310 310 310 310 310 309 308 308 308
312 312 312 312 312 312 311 312 312 312 313 313 313 313 313 313 314 314 314 314 315 315 314 313 312 312 312 312 312 314 313 311 311 311 311 312 311 311 311 312 312 312 311 311 310 310 310 310 309 309 308 307 306 306

GFSWCAN_850_thetae_042.txt.gz
Theta_e
310 305 305 301 301 301 301 300 300 299 298 297 299 298 299 299 300 300 302 303 305 310 309 308 309 312 312 313 319 317 323 326 327 327 327 327 326 327 328 330 331 331 330 331 333 332 334 336 338 335 342 343 341 339
309 303 303 301 301 301 301 300 301 300 299 297 298 298 298 299 299 300 302 300 300 305 309 304 305 305 307 309 310 314 321 321 321 329 328 327 327 327 331 327 329 331 336 332 334 336 340 340 344 344 345 345 342 340
309 306 304 301 301 301 301 300 301 300 299 299 297 298 298 298 299 299 300 300 303 309 310 311 313 313 309 308 310 313 315 313 318 318 326 328 330 328 327 329 331 334 333 332 334 338 342 343 343 342 341 345 342 338
310 309 304 301 301 301 301 301 302 301 300 299 297 298 298 298 298 299 301 304 306 309 311 315 312 313 311 310 310 309 309 309 308 315 323 326 326 323 327 328 329 331 334 338 334 338 339 342 341 340 342 344 344 340
310 310 305 301 300 300 300 301 302 302 300 299 297 297 298 297 298 301 303 305 306 309 312 312 312 313 313 311 311 311 310 308 311 313 321 324 321 324 324 326 326 329 333 331 334 340 341 342 340 340 342 343 341 341
310 310 307 301 300 300 300 301 301 300 300 299 297 297 298 297 297 303 310 307 308 307 311 314 312 315 314 313 314 314 313 311 311 313 315 318 318 322 325 326 331 331 332 332 335 337 338 339 339 342 339 338 341 341
309 310 308 303 300 300 300 301 300 300 300 298 297 297 297 297 298 305 310 309 307 306 311 312 315 316 314 314 314 314 312 312 313 311 312 315 318 318 324 324 329 330 330 333 335 336 336 336 339 340 341 338 338 338
310 310 308 303 300 300 301 301 300 300 299 297 297 297 297 297 297 304 308 307 305 306 309 314 316 316 315 315 316 313 314 312 312 314 313 313 315 317 320 322 325 326 328 333 333 331 330 335 337 336 337 337 335 335
309 305 302 301 300 301 300 300 300 300 297 297 297 297 298 302 308 309 305 305 305 308 311 312 316 318 316 316 316 315 315 316 314 313 313 313 314 315 318 320 321 324 326 328 328 331 329 330 334 334 333 332 330 328
301 301 301 301 301 299 298 299 299 298 296 296 297 305 306 308 307 306 306 310 310 309 308 310 313 318 317 317 317 317 317 317 317 317 315 315 315 318 318 320 322 322 322 324 326 329 329 329 330 329 328 326 324 324
302 302 301 299 298 297 298 299 298 296 296 298 305 308 307 307 307 309 310 311 311 310 309 309 310 315 316 319 318 318 319 319 318 319 318 318 317 322 321 322 322 322 323 323 325 326 326 326 326 326 326 325 325 325
302 302 301 300 299 299 300 300 298 296 299 304 306 306 307 308 309 311 311 311 312 311 312 312 311 309 316 319 319 319 319 319 319 319 319 318 325 322 322 321 320 320 321 321 322 322 322 323 322 323 323 323 323 322
301 301 301 300 301 301 301 299 296 296 302 305 307 308 309 309 309 309 310 311 313 313 315 315 314 311 316 319 319 320 319 319 319 320 320 324 322 322 322 321 320 319 318 318 318 319 319 319 319 320 320 320 320 320
301 301 301 301 301 301 300 296 296 302 305 307 309 308 310 309 309 310 311 313 314 315 317 318 316 316 317 318 318 318 319 319 320 320 322 323 322 322 321 319 319 318 318 317 318 318 318 318 318 319 319 319 319 320
301 301 302 302 302 301 299 296 297 303 305 308 308 310 309 309 309 310 311 312 313 314 317 318 318 317 317 317 318 318 318 319 319 321 322 322 322 320 317 314 317 317 317 317 317 318 318 318 319 320 320 320 320 319
301 302 302 302 302 302 298 296 298 303 305 307 308 309 310 311 311 312 313 314 313 316 317 317 317 317 317 317 317 317 318 319 322 322 321 320 318 317 317 317 317 317 317 318 318 318 319 319 320 320 320 320 319 319
302 303 301 301 301 300 296 298 301 303 306 307 309 310 310 312 313 314 315 315 315 317 318 317 317 316 317 317 317 318 320 322 321 320 320 318 317 317 317 317 317 317 317 317 318 319 319 320 319 319 319 318 317 316
301 302 302 302 301 298 296 301 302 304 306 307 309 310 310 311 313 315 316 316 316 317 317 317 316 317 317 317 318 319 320 320 319 318 317 316 316 317 317 318 318 317 317 317 318 318 317 318 318 317 317 316 316 316
302 301 301 300 298 298 300 300 303 306 307 308 309 309 310 311 314 314 313 313 313 314 315 315 316 316 317 317 318 318 319 318 318 317 316 315 316 317 318 317 316 317 318 319 318 318 318 318 316 315 315 316 316 316
301 301 300 296 297 302 302 303 303 307 309 310 310 312 313 314 314 313 313 313 313 314 315 316 315 317 317 317 318 318 318 317 316 315 315 316 317 317 316 316 317 317 317 317 317 317 317 316 315 315 315 315 315 314
299 297 298 301 303 304 306 306 306 308 309 311 312 313 313 314 314 314 314 312 314 314 315 315 316 316 316 316 317 317 316 315 315 314 313 314 315 315 316 316 316 317 317 316 316 316 316 316 316 315 315 315 315 314
298 297 300 302 303 305 306 307 309 309 311 312 312 312 313 314 313 312 311 312 313 314 313 314 315 315 315 315 314 314 313 311 313 311 312 314 315 316 316 316 316 316 316 316 316 316 315 315 315 314 311 312 313 313
297 299 303 304 305 305 307 308 310 310 312 311 312 312 312 312 312 310 312 312 313 312 312 313 312 310 312 313 312 312 312 312 312 313 314 315 315 315 316 316 316 315 315 315 315 314 312 310 310 311 311 313 313 312
302 303 305 305 305 306 307 309 309 310 310 311 312 312 312 312 310 311 312 311 311 310 311 312 312 313 313 313 313 313 314 314 314 315 316 315 315 315 316 315 315 314 314 314 313 312 311 310 310 312 312 311 311 311
303 302 303 302 305 308 309 309 309 309 311 311 311 311 311 309 311 310 310 311 312 312 312 313 313 313 313 313 314 314 315 315 316 315 315 313 311 311 312 313 312 312 311 311 311 311 311 312 312 312 312 312 311 311
304 305 305 308 308 309 309 309 309 309 309 309 310 310 310 310 310 310 312 313 312 313 314 314 313 313 314 314 314 315 315 315 315 314 313 313 313 313 313 313 312 312 313 313 312 311 311 311 312 312 312 313 311 311
304 307 307 307 308 308 308 308 308 308 308 309 310 310 310 311 312 312 312 311 313 313 313 313 313 313 313 314 314 315 315 315 314 314 314 314 313 313 313 314 314 313 312 313 312 312 313 312 312 311 311 312 311 311
306 307 307 307 308 308 308 308 309 309 309 310 310 311 311 311 312 312 311 312 311 312 313 312 313 314 314 314 314 314 313 313 313 315 315 314 314 314 315 314 313 309 309 311 312 312 312 312 312 311 310 311 311 311
307 307 307 307 306 307 308 308 310 310 310 311 311 311 311 311 310 310 311 312 313 313 314 314 314 313 313 313 313 313 315 315 314 315 315 315 314 314 314 312 310 311 311 311 310 309 311 312 312 311 311 311 311 311
306 305 307 307 307 309 310 309 310 309 309 310 309 309 310 311 311 313 313 313 313 314 313 313 314 314 315 315 314 314 314 314 313 312 311 312 312 311 311 311 311 311 311 311 311 311 310 310 310 311 311 311 311 311
307 306 307 308 309 311 311 310 311 312 312 312 311 310 312 313 314 314 314 314 314 315 315 316 315 316 316 315 315 315 314 313 313 312 312 311 311 311 311 312 312 312 312 312 312 312 312 312 311 311 311 312 312 311
308 307 308 311 312 312 313 312 313 313 312 312 312 313 313 313 314 314 314 314 315 316 315 315 316 316 316 315 316 316 314 313 313 314 313 312 312 312 312 312 312 312 312 312 312 312 312 312 312 312 311 311 310 309
312 312 312 312 312 312 312 312 313 313 314 314 314 314 315 315 315 314 314 314 315 315 316 316 316 315 313 312 314 314 313 311 310 310 311 312 312 311 311 312 313 313 313 312 312 311 311 311 311 311 310 309 308 307

GFSWCAN_850_thetae_045.txt.gz
Theta_e
309 309 305 306 303 301 301 301 300 300 299 297 299 299 299 299 300 306 308 303 310 313 313 311 312 315 316 317 322 322 325 328 329 328 326 327 327 328 329 333 336 333 334 332 333 336 339 336 338 338 342 341 337 337
309 306 304 304 304 300 301 301 300 300 299 298 298 299 299 299 300 302 307 306 304 309 312 310 309 309 311 312 314 319 325 326 325 330 330 330 330 329 331 331 331 333 339 339 336 342 341 343 348 346 346 342 340 340
308 305 306 305 303 301 301 301 301 301 300 299 297 298 298 298 299 300 306 305 311 312 312 312 315 315 313 313 314 317 320 318 323 322 326 329 332 332 328 328 329 334 333 331 336 337 342 341 343 344 345 345 341 340
307 308 308 304 303 301 301 301 301 302 301 299 298 298 298 298 299 300 309 309 311 312 313 317 314 314 314 314 314 314 314 317 316 318 324 326 328 326 329 330 330 332 328 332 331 336 337 341 343 343 345 346 341 341
307 309 307 305 302 301 301 301 301 302 301 300 298 297 298 298 299 302 309 309 309 313 315 315 314 314 315 314 314 315 316 317 317 319 322 324 323 326 326 327 327 328 334 332 341 340 339 345 344 344 344 343 342 342
308 310 308 307 301 301 301 301 301 302 301 300 298 297 298 298 299 308 312 311 310 310 313 316 315 315 315 314 315 317 316 316 315 317 320 320 321 322 325 326 331 330 329 331 336 337 340 341 342 343 341 342 342 343
309 310 310 308 302 301 300 300 301 301 300 300 298 297 298 298 299 308 311 312 308 305 313 314 315 315 315 315 315 316 316 315 315 316 316 319 319 320 323 325 327 330 331 335 336 337 338 339 341 342 340 340 340 340
308 309 310 309 302 301 300 300 301 300 300 298 297 297 298 298 299 306 309 307 305 311 311 315 317 317 315 316 316 316 315 315 315 315 315 318 318 319 322 326 328 323 330 332 331 331 332 338 338 339 339 338 335 334
307 309 309 309 308 304 301 301 301 300 300 297 297 297 298 302 309 312 305 305 304 312 314 312 316 319 317 315 317 317 315 317 315 316 314 316 319 318 321 323 323 326 329 331 329 330 327 329 334 336 334 327 325 327
309 309 309 309 306 305 301 301 300 300 298 297 298 307 308 309 307 304 304 311 311 311 311 313 313 318 315 316 317 317 317 318 318 317 316 316 316 317 319 321 321 321 323 326 328 327 327 327 329 330 331 328 326 325
308 308 308 305 303 302 301 300 300 299 297 299 306 310 310 304 309 311 312 312 312 312 311 310 312 315 316 319 320 317 319 320 318 319 319 318 317 321 322 322 320 321 321 324 328 328 327 329 328 327 327 326 325 326
302 301 301 301 301 300 299 299 299 297 301 305 308 308 308 309 310 312 313 312 313 313 312 312 312 312 317 317 319 319 319 319 320 320 320 318 329 324 323 322 321 321 322 323 324 325 325 326 326 326 326 326 325 325
302 301 301 300 299 298 299 299 297 301 302 306 309 309 310 310 315 311 312 313 314 313 315 315 315 312 315 317 318 318 319 319 319 320 320 326 325 324 323 322 322 321 321 321 321 321 321 322 322 322 323 323 323 324
302 302 301 300 299 300 300 299 297 300 306 308 309 309 311 310 311 311 312 314 316 316 316 316 316 314 316 319 318 319 319 319 322 320 321 326 323 323 322 322 321 321 321 321 321 321 321 321 322 322 322 323 323 323
301 301 301 301 301 301 299 296 298 304 307 309 309 311 309 311 310 311 313 314 314 315 317 318 317 316 317 318 318 318 319 321 319 322 326 324 323 322 322 320 320 321 321 321 321 321 321 321 322 322 323 323 323 322
300 301 301 301 301 300 297 296 303 306 307 309 309 311 310 311 311 311 312 313 314 316 318 317 317 317 318 317 318 318 318 320 323 324 323 323 322 321 320 320 320 320 320 320 320 321 321 321 322 321 321 321 321 321
300 302 302 302 301 299 297 301 304 306 308 309 310 310 311 313 313 313 314 315 316 318 320 317 318 317 317 318 317 318 320 323 322 322 323 322 321 320 320 319 320 319 320 320 320 320 320 321 321 322 322 321 321 321
301 302 302 302 301 298 301 303 305 306 307 308 310 310 311 313 313 314 314 315 317 318 319 319 318 318 318 318 319 320 321 321 321 320 320 320 320 320 319 319 320 319 319 319 320 321 321 321 320 319 320 320 320 320
302 303 302 302 298 299 303 304 305 307 307 308 310 311 311 312 314 315 315 316 317 317 317 316 318 318 319 318 319 320 321 321 321 320 319 319 319 318 318 318 321 319 317 318 318 319 319 319 319 319 319 319 320 318
302 302 300 298 300 301 302 303 305 309 309 309 310 310 312 314 316 315 315 315 315 316 316 317 317 318 318 318 318 319 319 319 318 317 316 317 318 318 318 318 317 318 317 317 318 317 318 317 316 317 317 316 318 317
301 298 297 300 304 305 306 305 307 309 310 311 311 312 314 316 316 315 315 315 316 315 315 315 316 318 318 318 317 317 318 317 317 315 315 314 315 317 316 316 317 317 317 317 317 316 317 317 317 316 316 317 315 314
299 300 302 302 306 307 308 308 310 311 312 313 313 313 315 316 316 315 314 314 315 315 315 316 316 317 317 318 317 317 316 316 315 314 314 314 316 316 316 316 317 317 317 317 317 317 316 316 315 311 315 316 313 313
301 303 305 306 307 307 308 310 311 312 313 314 313 314 314 314 314 313 314 314 315 316 315 316 316 316 315 315 316 315 316 316 315 315 315 315 315 315 316 316 316 315 315 316 316 316 313 311 312 312 314 314 313 314
304 305 306 307 308 308 309 311 311 312 312 313 314 314 314 314 312 313 315 313 313 313 313 314 313 314 315 316 316 317 315 315 315 315 315 314 315 316 316 316 316 316 315 314 313 311 312 313 314 314 313 312 312 312
305 304 305 303 307 308 309 310 310 311 313 313 313 313 313 311 313 314 315 312 313 314 313 314 315 316 316 316 316 314 315 315 315 316 315 315 315 315 316 315 314 314 313 313 313 313 313 313 313 313 313 312 312 312
303 306 305 308 308 309 310 310 310 310 311 311 311 312 311 313 313 311 314 314 314 314 315 316 317 316 315 314 315 315 315 315 315 315 314 314 313 314 313 313 313 313 313 312 313 313 312 313 312 312 313 313 311 312
306 308 309 309 309 309 309 310 310 310 310 311 311 312 312 312 314 313 314 314 315 315 314 314 314 315 315 314 314 315 313 315 315 315 315 314 313 313 314 313 313 314 313 313 313 312 313 313 312 312 312 313 312 312
307 309 308 309 309 309 309 310 310 310 310 310 310 312 312 312 314 314 314 313 314 312 313 313 313 314 314 314 314 316 317 316 315 315 315 314 313 314 314 314 313 311 313 313 313 313 313 313 313 312 312 312 312 312
308 308 308 308 308 309 309 310 310 311 311 311 312 312 313 313 313 313 314 312 312 313 313 313 313 313 315 316 316 315 315 315 315 315 315 314 315 314 314 314 311 312 313 312 309 309 310 312 313 312 312 312 312 312
309 308 308 309 309 310 311 311 312 312 312 310 310 310 311 311 311 312 313 313 313 313 314 314 315 316 316 315 316 316 316 315 315 314 314 314 315 315 313 312 312 312 312 312 313 312 312 311 312 312 312 312 313 313
309 309 309 309 310 311 313 313 312 312 311 312 312 311 311 312 314 313 313 313 314 314 315 316 316 316 316 315 315 315 315 315 314 312 313 312 312 312 312 312 312 312 312 312 313 313 313 312 313 313 313 313 313 312
308 308 309 310 311 312 312 312 312 313 312 312 312 313 314 314 315 315 314 315 316 317 316 316 316 317 316 315 315 316 315 315 313 314 313 312 313 313 313 312 313 313 313 313 313 313 313 313 312 313 313 312 312 311
311 311 311 312 312 312 312 313 315 315 315 316 315 314 314 314 315 315 316 316 317 317 316 317 316 315 316 313 316 316 315 314 312 311 311 311 312 313 313 313 314 313 313 313 313 313 312 312 312 312 312 311 311 310

GFSWCAN_850_thetae_048.txt.gz
Theta_e
311 310 310 309 308 307 301 301 301 300 299 298 299 299 299 300 301 308 313 306 310 315 315 314 314 317 318 319 322 321 326 326 327 329 327 327 328 329 330 332 335 336 338 336 338 338 339 345 335 338 337 334 338 337
312 310 309 309 306 305 302 301 301 300 300 299 298 299 299 299 300 307 312 309 309 310 314 313 311 312 312 315 316 319 322 328 327 331 332 332 330 333 336 335 334 335 342 338 340 342 338 342 346 346 342 342 340 340
312 310 309 307 306 304 302 301 301 301 300 299 298 298 299 299 300 301 308 311 312 313 314 313 314 315 313 315 315 319 322 321 324 323 326 328 335 331 334 332 335 336 330 333 339 343 340 339 345 339 344 341 341 341
312 310 309 308 305 304 302 301 301 301 301 300 299 298 299 299 299 301 311 311 313 314 315 317 317 315 314 315 315 316 317 320 321 321 323 326 328 328 331 330 330 331 332 337 340 341 337 343 343 344 345 343 340 340
312 309 308 307 305 305 301 301 301 301 302 300 299 298 299 298 299 301 310 311 312 314 317 317 315 315 315 315 316 316 318 318 321 321 323 323 325 326 325 329 330 331 334 336 340 341 341 345 344 343 343 341 340 341
310 309 307 307 306 304 301 301 301 301 302 301 299 298 298 298 300 311 313 313 312 312 315 317 317 317 316 315 315 317 318 318 317 320 321 322 324 323 325 327 328 329 331 329 333 341 343 343 343 341 341 341 341 342
310 308 308 306 306 303 301 301 301 302 302 301 299 298 298 298 301 310 313 315 306 305 316 315 315 317 316 316 316 316 317 316 317 318 320 321 322 322 324 326 328 329 324 332 333 336 337 338 341 339 341 340 340 340
309 308 308 307 307 302 301 301 301 302 301 301 298 298 298 298 301 306 309 308 306 313 313 316 319 319 317 316 316 316 317 316 317 317 317 320 321 321 323 322 323 323 321 328 327 331 334 339 337 336 334 332 331 333
308 308 309 309 308 302 301 301 301 301 301 298 298 298 298 302 310 314 311 307 306 314 316 313 317 322 319 316 317 319 318 318 317 317 317 317 321 321 321 322 320 327 329 326 318 329 328 331 336 332 327 324 327 329
308 308 309 309 309 306 301 300 301 301 299 298 298 307 310 312 311 310 303 311 311 312 312 315 315 317 320 317 316 317 318 319 317 318 317 317 318 318 319 317 322 322 321 323 328 329 327 328 330 326 324 327 325 324
309 307 307 308 309 307 303 301 301 300 298 299 307 312 312 308 308 313 314 313 313 313 312 312 313 315 318 318 323 319 321 322 322 319 318 318 319 318 321 322 321 321 320 320 325 330 328 330 328 328 328 327 327 327
307 307 305 306 308 307 307 304 300 298 301 306 310 310 307 310 312 313 314 313 315 314 313 313 313 313 319 318 320 321 320 320 321 317 322 322 330 324 323 322 321 321 322 324 325 326 326 326 326 326 323 326 326 326
307 308 307 307 307 306 305 304 300 302 303 307 310 309 311 311 313 313 314 314 314 314 315 314 316 313 314 316 316 321 323 321 320 321 322 326 325 324 323 322 321 320 320 321 321 321 322 322 323 323 324 324 325 325
303 301 301 301 302 302 303 301 299 302 307 309 310 309 312 311 311 312 313 314 315 315 315 315 316 313 314 317 317 317 318 320 322 320 319 325 325 324 323 323 322 321 321 321 321 321 322 322 323 323 324 324 325 325
301 300 300 300 300 301 299 298 300 305 308 310 309 311 310 312 311 312 315 317 316 316 318 316 318 315 317 318 320 321 321 321 321 324 325 323 324 324 323 322 322 322 322 322 322 322 323 323 323 324 324 324 323 324
301 300 300 300 300 300 299 297 303 307 309 310 310 312 310 311 313 313 313 314 314 315 315 317 318 317 320 320 317 319 318 322 323 323 322 323 323 322 322 321 321 322 322 322 322 322 322 323 323 323 322 324 323 322
301 301 300 300 300 297 296 302 305 307 308 309 310 311 311 313 314 313 313 316 315 318 318 318 319 319 317 320 319 320 322 324 321 320 318 321 321 321 321 321 321 321 321 322 321 321 322 322 322 321 321 322 321 320
302 302 301 300 297 298 302 304 305 306 308 309 311 311 313 315 315 315 315 316 317 317 318 319 319 321 320 318 321 317 315 322 321 320 320 321 322 321 321 320 320 321 321 321 321 321 322 322 321 321 321 321 320 320
302 302 301 299 302 303 304 306 307 307 307 308 311 312 312 313 314 315 316 316 316 318 318 318 319 320 321 320 321 321 322 321 319 321 321 322 321 320 320 320 318 320 321 320 321 321 320 319 319 320 319 319 320 318
302 302 301 299 302 304 304 305 307 310 310 309 311 311 312 313 315 314 315 315 315 316 316 318 318 320 318 314 319 319 320 319 318 318 319 319 320 319 320 319 319 319 319 320 319 319 320 320 319 319 318 318 318 317
302 302 298 301 305 307 307 305 308 310 312 311 311 313 314 315 315 316 316 315 315 315 317 316 318 318 320 318 318 319 319 319 318 318 317 317 316 316 317 319 319 319 320 319 320 318 319 317 317 317 318 317 316 317
301 301 302 303 305 308 309 309 310 311 312 313 313 314 316 317 317 316 316 315 315 316 317 317 319 319 319 320 320 319 318 318 317 316 315 316 317 318 317 316 317 317 318 318 317 318 318 317 316 315 315 315 315 315
302 303 305 306 308 309 309 310 312 312 313 313 313 314 316 316 316 316 315 314 316 317 318 318 319 318 317 316 316 317 318 317 317 316 318 315 315 315 316 316 316 315 315 316 317 317 314 311 312 314 316 316 315 315
304 306 307 308 309 309 310 312 313 314 315 315 315 315 315 315 314 314 316 315 315 316 315 316 315 315 316 318 317 317 316 315 316 315 315 315 315 316 315 315 316 315 316 315 312 313 315 315 315 315 314 314 313 313
306 305 307 305 309 310 311 312 313 313 314 315 315 315 314 313 315 317 318 314 314 315 315 316 315 316 316 317 317 316 314 315 315 316 315 315 315 315 315 316 317 318 316 315 314 314 315 315 314 313 314 313 312 313
305 307 307 309 310 311 312 312 312 313 313 313 313 313 312 313 314 312 315 316 315 315 315 317 317 317 318 317 317 314 315 315 315 314 314 314 314 316 315 315 315 315 314 315 314 314 314 314 312 313 314 314 312 313
306 310 310 310 310 311 311 311 311 311 312 312 313 313 313 313 314 314 315 316 316 316 316 317 317 316 317 317 315 314 314 315 315 315 315 315 315 314 314 314 315 314 315 313 313 312 313 313 313 313 313 314 313 312
308 310 310 310 310 310 311 311 312 312 312 311 312 313 313 313 315 316 315 315 315 315 316 316 316 315 315 314 314 313 314 315 316 317 316 316 316 315 315 315 315 313 314 314 314 314 314 314 314 314 313 313 313 313
309 309 310 310 310 310 310 311 312 312 312 313 314 314 316 315 315 315 315 315 315 315 315 315 314 314 314 315 315 316 317 317 316 316 315 315 315 315 315 315 312 311 312 312 311 311 310 313 314 313 313 313 313 313
309 309 309 310 310 311 312 312 312 314 314 313 313 313 313 313 314 313 314 315 316 314 315 315 315 315 316 316 316 316 316 316 316 316 316 316 316 316 315 315 313 313 313 314 314 313 313 312 312 313 313 314 314 314
309 310 310 311 311 312 314 314 314 314 313 313 312 312 312 311 313 313 314 316 315 316 315 315 316 317 317 317 316 316 316 316 315 314 314 314 314 314 314 313 313 314 313 313 313 313 314 314 314 314 314 314 314 314
309 309 309 310 312 312 313 312 312 312 312 312 312 312 314 314 315 314 314 315 316 316 317 316 316 317 317 317 316 315 314 315 316 316 314 315 315 314 314 313 314 314 314 314 313 314 314 314 314 313 314 314 313 313
311 310 310 313 313 313 312 314 315 315 315 316 316 315 315 315 315 315 316 316 317 317 318 317 317 317 316 314 316 316 316 315 314 313 312 312 312 312 313 314 314 315 314 313 314 313 313 313 313 313 312 312 312 312

GFSWCAN_850_thetae_051.txt.gz
Theta_e
316 315 313 310 310 310 309 306 301 302 300 299 298 299 300 300 301 304 314 308 309 313 316 315 314 315 316 317 320 318 324 328 329 330 326 326 327 326 329 332 333 332 330 330 332 336 335 344 343 338 335 338 339 335
317 315 313 310 310 309 308 306 301 301 300 299 299 298 300 300 301 307 313 311 311 309 312 314 311 312 312 314 315 317 319 325 326 328 330 332 335 333 335 337 332 339 338 343 344 342 337 337 342 338 334 333 337 335
317 316 313 310 310 309 307 305 301 301 301 300 299 298 299 300 300 306 309 311 312 314 315 312 312 314 312 314 316 317 321 320 323 322 324 330 334 331 333 333 332 333 333 334 331 333 335 339 344 334 343 340 332 332
318 317 313 311 310 309 306 305 301 301 301 300 299 298 299 299 300 301 310 311 313 315 316 317 317 317 315 315 315 317 317 319 320 322 323 325 330 329 332 330 329 331 332 332 335 332 334 334 337 342 344 341 341 343
317 316 312 310 309 308 307 304 301 301 301 301 300 299 298 299 300 301 307 311 312 313 316 317 317 316 314 315 316 316 317 317 319 321 324 324 326 327 327 328 329 329 330 332 335 331 331 328 330 338 344 341 340 344
317 314 311 310 309 308 305 303 301 301 301 302 300 299 298 299 300 306 314 312 311 311 314 319 316 315 316 316 315 316 318 319 318 318 321 324 322 324 325 328 328 329 327 329 330 327 328 326 323 341 342 343 344 343
314 313 311 309 308 305 304 303 301 301 302 302 300 299 298 299 302 311 313 315 311 305 316 317 318 317 317 316 316 316 317 317 316 317 321 321 323 322 322 323 328 326 329 327 326 326 326 324 322 332 336 337 339 339
311 311 310 308 307 305 305 301 301 301 302 301 300 299 298 299 300 305 308 308 306 311 315 317 319 318 317 316 317 316 317 317 317 317 317 320 322 322 323 322 323 324 326 324 326 323 325 323 322 331 334 334 335 335
310 309 309 307 307 304 302 301 301 301 301 300 298 298 299 301 311 315 314 306 306 314 317 316 316 322 318 317 316 318 318 320 318 319 318 318 321 322 322 321 318 325 324 326 327 325 323 329 329 328 328 328 327 328
309 309 308 306 305 306 302 301 301 301 301 298 298 304 310 311 311 311 303 310 311 313 314 315 316 318 320 320 320 323 319 322 321 318 317 317 317 318 320 319 318 323 321 319 318 323 329 328 326 326 324 325 327 328
307 308 308 306 307 304 301 301 301 301 298 298 307 311 313 310 307 313 315 315 313 314 312 312 311 314 318 324 324 320 322 322 322 322 323 320 319 320 318 319 321 320 319 322 327 328 327 327 327 327 328 327 326 326
308 309 307 308 308 309 305 301 301 299 299 306 310 310 306 309 313 315 316 314 316 316 314 314 312 312 320 319 322 321 321 322 323 321 324 323 326 323 322 322 321 321 322 323 323 323 324 325 325 326 323 324 327 327
308 306 305 307 308 308 308 301 300 302 303 308 310 310 310 312 314 313 314 316 317 315 314 314 316 313 316 316 319 324 322 321 320 325 323 324 320 320 322 321 321 320 320 321 321 321 322 323 324 324 324 324 325 325
307 308 306 305 304 306 305 303 300 303 307 309 311 307 312 313 313 313 315 316 314 315 315 315 316 314 314 319 318 319 321 322 323 322 322 324 321 317 322 322 322 321 321 321 321 321 323 323 323 324 324 325 325 325
307 308 307 305 304 306 304 301 301 304 308 311 310 309 311 312 311 312 315 317 317 316 317 318 319 317 319 320 321 321 321 321 323 324 324 322 321 321 322 322 322 321 321 320 320 320 321 323 323 324 323 323 324 323
302 302 303 303 303 304 303 302 302 306 309 311 311 312 309 312 313 314 316 317 316 316 317 317 320 320 321 321 321 321 320 322 323 324 320 318 317 320 321 321 321 321 321 322 322 322 322 323 323 322 323 323 322 321
300 300 300 300 300 301 301 300 304 307 310 310 311 311 312 313 316 317 314 316 317 317 320 319 320 319 318 321 319 323 323 322 320 320 318 319 319 321 321 321 320 320 320 320 320 320 320 322 321 322 321 322 321 320
301 300 300 300 299 298 299 304 306 307 309 309 311 312 315 316 316 315 317 316 317 317 318 320 319 322 321 321 323 317 315 317 319 317 317 320 320 321 321 320 319 319 320 321 320 320 321 321 321 320 320 321 319 317
301 300 300 298 299 302 303 305 307 308 308 309 310 312 314 315 316 315 316 316 317 318 318 319 320 321 321 317 314 317 317 319 319 319 320 320 320 319 320 319 319 319 319 319 319 320 319 319 319 319 319 319 318 317
299 299 301 301 302 304 305 307 308 309 310 309 311 312 312 315 315 316 316 315 315 317 317 319 320 318 316 316 318 320 320 319 319 320 319 320 320 319 318 316 317 318 319 320 319 319 319 319 318 317 318 318 317 317
299 300 300 303 305 307 309 306 308 311 312 312 312 312 314 315 314 317 317 316 317 316 317 319 317 317 318 317 319 319 319 318 319 319 318 317 316 316 318 317 317 319 318 319 319 318 318 317 318 317 317 317 316 315
299 301 303 303 306 309 310 310 311 312 313 313 313 315 316 316 315 316 316 317 316 318 319 319 319 318 319 320 318 318 319 317 314 314 316 315 318 316 315 316 318 317 318 317 317 317 317 316 316 316 316 315 316 317
302 304 305 306 308 309 309 311 312 312 314 314 314 315 316 315 317 315 317 315 315 317 316 314 317 318 318 317 317 318 317 316 317 318 317 317 314 314 315 316 316 316 316 316 316 314 313 314 314 315 315 315 316 315
304 305 307 309 309 309 311 312 313 314 315 315 316 316 317 317 316 317 318 316 317 317 317 316 316 316 316 317 319 317 317 315 316 315 315 315 315 315 316 315 315 315 316 313 313 313 314 315 315 315 314 314 314 316
307 306 307 306 310 311 312 313 313 313 315 315 316 316 316 315 317 318 319 316 315 317 316 317 317 317 318 319 317 316 315 315 317 317 315 315 315 315 315 314 316 316 317 316 314 315 315 314 314 313 314 312 313 312
304 307 307 310 311 312 313 313 314 314 315 315 315 315 313 314 316 312 316 317 317 317 318 318 318 317 316 317 317 315 315 315 316 316 315 314 314 316 316 316 316 316 315 315 315 315 314 314 313 313 314 314 313 313
306 311 310 311 312 312 312 312 313 313 313 313 314 313 314 313 315 316 318 317 317 317 316 315 316 316 317 317 315 315 314 315 315 316 315 315 316 315 315 315 315 315 314 315 313 314 314 313 313 314 313 314 314 314
309 311 311 311 311 311 312 312 312 312 312 313 312 313 313 314 318 317 317 316 316 315 316 316 316 317 317 317 315 314 315 315 315 315 315 316 316 315 315 315 315 314 314 314 314 314 314 314 314 314 314 314 314 313
311 310 311 311 311 311 312 312 312 313 314 314 314 315 315 316 316 316 316 315 315 316 315 316 315 314 315 314 314 313 313 315 317 318 317 317 317 316 315 315 315 311 310 311 312 310 310 312 315 314 313 313 313 313
310 309 310 311 311 312 315 315 315 315 315 314 314 314 314 314 314 314 313 314 315 315 315 315 315 314 315 316 316 316 316 316 317 317 316 316 317 315 315 315 315 314 313 313 314 314 314 314 312 313 314 314 314 314
311 311 311 311 312 313 314 313 314 315 315 315 313 314 314 313 313 314 314 316 316 315 315 315 316 316 317 316 316 317 317 316 316 316 316 316 314 316 316 315 314 314 314 314 314 314 314 314 314 314 314 314 314 313
311 312 312 312 313 314 312 312 312 313 312 312 312 313 313 314 316 316 314 316 316 316 316 315 316 317 316 316 316 316 316 316 315 315 315 315 314 314 314 314 314 314 314 313 314 314 315 314 314 314 314 314 313 313
310 310 310 312 313 313 311 312 313 314 314 315 315 315 316 315 315 314 314 315 315 314 316 316 316 317 316 317 317 314 316 316 316 315 314 312 311 312 312 312 314 314 315 314 313 313 312 313 312 312 311 311 311 311

GFSWCAN_850_thetae_054.txt.gz
Theta_e
316 317 316 314 312 311 311 310 309 303 302 301 299 298 299 300 300 302 311 310 309 310 312 314 312 312 314 315 314 317 320 321 324 325 323 322 323 324 321 327 331 325 330 323 325 329 332 336 340 336 332 336 335 331
317 318 316 314 312 311 310 310 309 304 302 301 299 298 299 300 300 303 312 311 310 310 308 311 312 311 312 315 315 317 319 321 325 322 323 324 331 328 329 332 325 330 328 329 336 334 330 333 330 333 334 334 335 335
318 317 316 315 313 311 310 310 308 305 302 301 300 299 298 299 300 303 309 309 309 314 314 312 311 312 311 313 315 316 320 320 322 321 321 322 328 325 328 329 327 326 330 329 327 329 329 328 328 329 328 330 334 335
317 318 317 315 313 311 310 310 308 305 302 301 300 299 298 299 300 300 308 311 312 313 314 316 314 314 314 313 315 316 317 317 317 320 321 318 324 326 326 323 325 327 326 328 329 328 327 327 326 327 327 329 336 337
316 317 317 315 313 311 310 309 306 302 301 301 300 299 298 299 299 300 308 312 312 312 313 316 317 316 316 314 314 315 316 317 318 318 319 317 322 321 321 323 326 327 325 324 325 329 327 328 325 325 328 327 332 331
315 316 315 314 311 310 309 308 305 302 301 301 301 299 298 299 300 302 311 310 310 311 311 312 317 316 315 314 314 315 316 317 319 318 316 322 321 321 318 324 327 329 326 326 327 327 325 324 324 326 326 328 326 329
317 315 316 313 311 310 309 307 304 301 301 301 302 300 298 299 300 311 314 314 313 309 308 315 313 315 315 316 315 315 315 316 316 317 318 320 322 321 316 318 329 325 326 326 325 326 325 323 324 326 325 324 327 323
314 315 313 312 310 309 308 305 303 301 301 302 301 299 298 299 300 307 308 310 307 306 315 311 311 316 316 316 315 316 316 316 317 317 316 318 321 320 317 321 325 325 326 325 324 324 325 324 323 324 325 323 323 327
312 311 311 310 309 308 304 303 302 301 301 302 300 298 298 299 309 313 313 306 305 311 315 315 310 316 317 316 316 316 316 314 316 314 313 316 315 317 316 319 319 322 323 321 322 324 325 328 328 329 327 328 330 331
309 310 310 309 308 305 304 303 301 301 302 300 298 300 304 309 314 309 303 304 306 310 313 312 315 311 317 318 319 319 319 317 319 313 316 312 312 317 319 318 318 322 322 319 322 326 327 328 326 325 326 327 325 325
308 309 309 309 306 305 303 301 301 301 301 297 305 310 313 310 309 311 314 312 311 311 312 312 312 309 315 318 318 319 316 315 315 315 317 315 320 322 320 319 322 320 323 325 325 323 321 326 327 326 326 326 326 326
308 307 308 308 304 304 304 301 301 301 298 305 309 309 306 308 313 313 311 312 311 311 313 311 312 311 319 319 318 318 316 316 318 319 317 319 318 320 322 321 321 322 322 322 323 325 325 326 326 324 324 326 327 327
306 306 308 305 305 306 303 301 301 299 303 307 309 310 309 310 310 312 313 312 311 313 315 313 311 317 316 316 320 317 319 317 318 319 320 318 317 317 319 321 322 322 321 321 321 323 324 324 324 325 325 325 325 325
306 307 307 305 307 304 301 301 300 301 306 309 310 306 308 311 310 310 310 310 313 315 313 314 314 313 315 313 313 316 317 319 320 318 320 315 318 320 320 322 322 321 321 320 321 322 322 323 323 323 323 323 324 324
306 308 305 306 306 307 302 301 300 303 308 310 311 308 310 311 311 311 311 311 316 315 315 316 317 315 313 316 317 315 317 319 320 319 316 321 321 317 317 318 322 321 320 319 319 319 320 321 322 322 322 321 323 323
306 305 303 306 305 307 305 300 301 306 309 310 312 311 310 308 310 312 315 316 316 317 317 317 316 315 318 316 319 319 319 320 317 318 319 318 320 319 320 321 321 320 319 318 319 320 320 320 321 321 321 322 321 320
305 305 304 303 303 304 306 302 304 306 309 310 311 311 311 312 316 317 316 317 315 315 315 316 317 319 315 316 318 317 319 317 319 318 320 320 319 320 320 320 319 318 319 319 319 319 320 321 322 322 321 321 320 318
303 303 302 302 303 302 302 303 305 307 308 309 309 311 316 316 316 316 317 317 317 317 318 317 318 317 317 319 318 313 315 315 318 318 315 318 320 321 320 318 318 318 320 319 319 319 321 321 320 320 320 320 318 316
301 301 301 301 301 303 304 304 306 308 308 308 309 311 315 315 315 316 316 317 318 317 318 318 316 316 315 315 316 316 317 317 319 319 318 319 319 320 319 318 316 317 318 318 318 319 319 320 319 318 318 318 317 315
300 300 300 302 303 304 306 307 307 308 311 309 309 314 313 315 316 315 316 317 316 316 317 315 316 317 316 315 316 318 319 320 319 319 319 319 320 320 319 317 315 316 318 319 319 319 318 318 318 317 317 316 316 316
300 300 302 304 306 307 308 306 307 310 312 313 313 314 314 315 316 315 315 316 316 316 317 317 317 316 317 318 319 319 319 319 319 318 318 319 316 318 317 316 316 318 317 318 318 318 318 318 317 316 315 314 314 313
301 302 304 305 307 309 309 310 311 312 314 313 313 315 315 315 314 315 316 317 317 318 317 317 317 316 318 319 318 318 317 317 315 313 313 316 315 316 315 314 317 317 318 318 318 318 317 317 317 316 317 317 317 317
302 304 306 307 308 309 310 312 312 313 313 313 314 314 314 315 316 315 316 317 317 318 318 318 318 319 319 319 317 315 315 316 315 316 317 317 317 316 314 314 316 316 316 316 316 316 315 314 315 315 315 315 316 316
305 305 308 309 309 308 311 312 313 313 314 314 313 315 314 316 316 316 313 316 317 316 316 316 316 317 317 317 317 318 317 316 315 315 315 315 314 315 315 316 316 315 315 315 313 314 315 315 315 314 313 313 314 315
306 306 307 307 310 311 312 312 313 313 313 314 315 313 314 315 313 311 311 316 317 318 317 317 317 317 317 318 318 316 315 315 315 316 315 315 315 315 315 315 315 316 315 313 314 315 315 315 314 313 314 312 313 313
300 307 308 310 311 311 312 312 312 313 314 314 314 315 315 314 314 307 314 317 317 317 316 316 315 314 315 316 316 315 315 315 316 316 315 315 314 315 316 316 315 315 315 315 315 315 314 314 313 313 313 314 313 313
306 310 310 311 312 312 312 312 313 313 314 313 313 313 312 313 314 316 317 317 317 316 315 314 315 315 315 316 315 315 315 315 315 315 314 314 315 316 316 315 315 315 315 314 315 314 313 313 313 313 313 314 313 313
309 310 311 311 311 312 312 311 311 312 313 313 313 313 314 316 315 317 316 315 314 314 315 316 316 316 317 317 315 314 315 315 315 315 315 315 315 315 315 315 315 314 314 314 314 313 313 313 313 313 313 314 313 313
310 310 310 311 311 312 315 314 314 314 314 315 313 313 315 316 316 316 315 315 315 315 315 315 316 315 315 316 315 314 314 314 315 316 316 317 317 316 315 315 315 315 314 312 311 311 311 311 312 314 314 313 312 312
310 310 311 311 312 313 314 315 315 315 314 314 314 314 314 315 315 314 314 313 313 315 315 315 315 315 315 314 314 314 315 316 316 315 315 316 316 316 315 315 315 315 313 312 312 312 313 313 313 311 312 313 314 314
311 310 311 311 312 314 313 312 312 312 313 313 313 312 313 313 313 314 314 316 315 315 315 315 316 315 316 316 316 316 316 315 316 316 316 315 316 316 316 315 315 315 315 315 314 313 313 314 314 314 314 314 314 314
311 311 312 311 313 313 312 312 312 313 313 312 312 312 313 314 316 315 315 315 315 315 315 316 316 315 315 316 316 317 316 316 316 315 314 314 314 314 314 314 314 314 314 314 314 314 314 314 314 314 314 314 314 313
310 310 311 312 313 313 313 313 313 314 314 315 315 315 315 316 315 314 315 316 315 315 315 315 316 317 317 317 317 317 315 315 316 315 314 314 313 312 311 311 313 313 314 314 314 314 313 313 313 312 312 311 310 310

GFSWCAN_850_thetae_057.txt.gz
Theta_e
315 315 315 317 315 314 313 312 311 311 309 303 302 300 298 299 300 300 311 311 310 309 308 311 312 310 312 314 313 315 320 321 321 325 321 319 322 324 325 327 330 326 329 324 322 323 327 330 333 334 328 329 332 333
315 315 315 317 315 314 313 311 311 311 309 303 302 300 298 299 299 300 311 311 311 310 307 309 313 310 311 311 313 318 318 319 323 320 321 321 328 325 326 331 324 330 327 328 332 329 329 330 327 325 329 332 334 335
315 315 316 317 315 314 312 311 311 310 308 303 301 300 299 298 299 300 309 310 309 310 308 308 310 311 312 311 313 315 319 319 321 320 320 320 325 322 325 326 325 327 326 327 326 328 328 329 325 325 325 327 330 332
314 315 317 317 315 314 312 311 310 310 308 303 301 300 299 298 299 299 307 310 311 312 312 315 315 314 312 313 313 314 317 317 317 320 319 316 321 324 323 321 323 324 324 325 326 325 325 328 326 324 326 326 327 327
314 315 316 317 315 314 312 310 310 309 307 304 302 300 299 298 299 299 306 310 311 311 312 316 316 315 315 314 314 314 315 316 318 317 317 315 319 320 318 321 324 325 322 321 322 324 326 326 324 325 326 328 327 326
313 315 314 317 315 313 312 310 310 309 304 302 302 301 299 298 299 299 304 309 310 311 311 310 316 316 315 314 314 315 315 316 318 318 314 317 320 319 317 324 325 327 326 326 324 326 326 325 324 325 323 324 325 327
311 314 315 316 315 313 311 310 309 307 302 301 301 301 300 298 298 306 312 312 309 310 307 314 312 316 315 314 315 314 315 315 316 315 315 318 320 319 314 317 326 324 324 325 325 324 324 324 324 324 323 323 325 326
309 313 315 314 314 312 311 310 308 305 302 301 301 301 299 298 299 305 308 312 310 305 314 310 310 315 315 315 315 315 315 315 315 315 314 317 319 317 315 318 324 322 325 325 324 322 324 324 324 323 328 328 328 325
308 312 313 315 313 311 310 309 306 303 301 301 302 300 298 298 299 306 308 306 305 311 314 312 309 315 315 315 315 315 315 312 315 311 310 315 313 315 313 319 320 320 324 322 318 320 322 325 327 327 327 327 330 330
309 311 312 312 311 310 309 307 304 302 301 302 300 298 299 303 314 314 309 305 305 307 311 310 313 311 314 315 317 318 317 314 316 313 315 308 310 321 319 318 317 319 323 319 324 324 325 325 327 325 326 328 327 330
308 309 310 310 309 309 307 304 303 301 301 300 298 308 312 312 311 306 310 310 308 309 311 311 312 309 312 316 314 317 314 312 314 313 315 315 319 320 321 320 321 321 323 324 323 322 323 326 326 326 325 326 326 325
306 308 309 309 309 307 304 303 302 301 301 299 307 309 309 305 310 311 310 310 309 310 311 309 309 310 316 319 316 316 315 314 316 316 316 321 317 318 322 321 322 323 322 322 323 325 325 325 324 324 324 326 325 325
305 308 308 308 307 305 304 302 301 301 299 307 307 308 307 308 308 312 312 312 309 311 312 311 309 316 315 317 317 315 317 316 316 317 318 316 317 318 322 321 321 321 322 321 323 324 324 324 324 324 324 324 323 324
301 307 307 308 306 305 302 301 301 299 305 308 309 307 308 309 310 310 311 309 312 313 313 312 312 312 313 312 312 316 315 316 318 317 319 313 318 319 319 321 321 321 321 321 322 322 321 322 323 323 323 323 322 322
300 304 306 306 304 304 302 300 301 301 307 309 310 309 309 310 310 310 311 310 311 313 314 314 314 313 312 315 313 313 316 318 318 317 314 320 318 317 317 320 321 321 320 320 319 319 319 320 321 321 321 321 321 321
304 306 306 304 305 303 301 301 301 306 308 309 310 311 310 307 309 309 310 311 314 314 315 317 312 314 316 314 318 317 317 318 315 314 319 318 320 319 319 317 320 318 318 317 316 316 318 320 320 321 321 321 320 319
306 303 303 304 303 301 301 300 302 306 308 310 310 310 310 310 313 315 315 316 316 317 313 314 316 317 312 315 318 315 316 313 317 319 319 318 318 320 320 320 319 319 318 319 319 318 319 321 320 321 321 320 318 316
303 303 303 304 302 301 301 301 305 306 308 309 308 310 314 315 316 317 317 316 316 318 317 316 316 316 316 318 316 313 316 315 318 318 317 319 319 319 320 316 314 315 318 318 318 318 320 321 320 320 320 318 316 314
302 304 303 303 305 303 303 305 305 307 308 307 308 311 315 315 315 316 317 317 317 317 317 317 314 314 313 313 314 316 316 315 317 319 317 317 319 319 319 318 317 315 315 318 318 318 319 319 319 318 318 317 315 312
301 301 303 304 304 306 306 306 306 308 309 310 310 314 315 315 316 315 315 316 316 316 316 314 313 315 315 315 315 317 319 319 319 319 319 319 319 320 319 319 317 314 315 317 318 318 318 318 318 318 317 317 316 312
301 301 302 305 306 307 307 308 308 308 311 313 313 314 315 315 315 315 315 315 315 315 316 317 316 316 316 318 319 318 319 318 318 318 318 318 319 320 319 317 313 315 317 317 318 318 318 318 317 316 315 314 313 312
301 302 304 305 307 309 309 309 310 312 313 313 314 315 314 313 313 315 316 317 317 317 316 316 316 316 316 316 317 317 317 317 315 314 314 316 316 316 316 314 313 316 317 317 318 318 317 317 314 315 315 315 315 314
304 305 307 308 309 309 310 312 312 313 311 312 313 313 312 314 315 315 315 316 317 317 316 317 317 316 317 317 318 317 316 316 315 315 316 316 316 317 317 315 314 316 317 317 317 317 316 316 315 314 315 315 315 314
305 306 308 309 309 309 311 312 313 313 313 312 311 313 312 315 315 314 312 315 317 317 316 316 317 317 317 318 317 316 318 317 315 315 314 315 315 314 315 315 315 316 316 316 315 315 314 314 314 315 315 313 314 315
306 306 307 306 310 311 311 311 311 311 311 312 312 311 312 314 310 309 310 315 316 317 316 316 316 316 316 316 317 318 317 315 315 315 316 315 315 315 315 315 314 314 314 313 312 314 315 315 314 313 313 312 313 313
300 307 308 310 309 310 310 311 311 311 311 313 313 313 314 312 311 306 312 317 317 317 316 316 315 314 314 315 316 316 315 315 315 316 316 315 315 314 315 315 316 315 313 314 313 313 314 314 314 313 313 313 313 313
307 309 310 310 311 311 310 312 312 312 313 313 311 311 310 312 313 315 317 316 316 315 314 314 314 314 314 316 316 315 315 315 315 315 314 314 315 315 315 315 315 315 314 314 314 314 314 314 313 313 313 313 313 313
309 310 309 310 310 311 310 310 310 311 311 313 312 313 314 314 313 316 316 316 314 314 314 315 315 315 315 317 316 314 315 314 314 314 315 315 315 314 315 315 315 315 314 314 313 314 313 313 313 313 313 313 313 313
309 310 310 310 312 314 314 312 313 314 314 314 311 311 314 315 316 315 315 314 314 314 314 315 315 315 315 315 316 314 315 315 315 315 316 316 316 316 316 314 314 314 314 314 314 312 313 313 313 313 314 313 312 312
310 310 311 311 311 311 313 314 314 314 314 313 313 313 314 314 314 314 314 314 313 313 314 315 315 315 315 315 315 314 314 314 316 315 315 315 316 316 316 316 315 315 315 314 312 311 311 311 312 312 312 312 313 313
310 309 310 311 312 313 312 312 312 312 313 313 312 312 312 312 312 313 314 313 314 314 315 315 315 315 315 313 314 314 315 316 316 316 316 316 315 315 315 314 315 315 314 314 314 314 313 314 313 313 313 314 314 314
310 310 311 310 312 312 312 312 313 313 313 312 312 312 313 314 315 314 315 316 315 315 315 315 314 315 315 316 316 316 316 316 316 316 315 313 314 313 313 313 314 314 314 314 314 315 315 314 314 314 314 314 314 314
310 310 311 312 312 312 313 313 314 314 315 315 315 315 316 315 315 314 315 315 315 315 315 315 316 317 317 317 317 316 316 316 315 315 315 313 312 313 312 311 310 313 314 314 314 314 313 313 313 313 312 313 313 312

GFSWCAN_850_thetae_060.txt.gz
Theta_e
312 312 314 313 315 316 315 314 313 313 311 310 305 302 300 298 299 299 303 310 310 308 306 307 311 311 310 312 311 314 319 320 319 323 318 317 320 324 326 326 329 327 329 323 319 321 324 328 328 333 328 328 332 333
313 313 314 314 314 316 315 314 313 313 312 311 304 302 300 298 298 299 304 310 310 310 308 307 307 311 310 310 311 315 318 318 321 320 319 320 326 323 324 329 324 330 326 327 329 327 326 329 326 325 325 325 328 332
312 313 314 313 314 316 315 314 313 312 311 311 304 302 300 299 298 299 303 308 310 310 309 308 306 309 312 311 311 313 317 319 320 320 318 318 324 320 324 324 325 325 325 325 326 327 327 328 326 325 324 325 325 327
309 313 314 314 315 316 315 313 312 311 311 310 305 302 300 299 298 299 300 308 310 311 311 312 315 309 312 311 313 314 315 317 316 320 318 315 320 322 323 321 322 324 323 324 324 322 323 327 327 324 326 327 327 327
304 312 314 314 316 317 315 313 312 311 311 309 304 301 300 299 298 299 299 306 310 310 310 313 315 314 313 314 313 314 315 315 317 316 316 316 317 320 317 320 323 323 322 319 320 321 325 324 326 325 324 324 325 325
300 309 313 314 315 316 315 313 311 311 310 308 304 302 300 300 298 298 301 304 310 310 310 306 315 315 315 314 314 314 315 315 317 317 313 315 319 318 317 323 324 325 324 324 323 325 325 324 324 325 323 323 324 325
300 305 310 313 313 315 314 313 311 310 310 307 302 302 301 300 298 299 308 310 309 310 309 309 310 315 314 314 314 314 314 315 315 314 313 316 318 317 313 316 324 323 324 323 324 324 323 323 324 323 323 325 328 327
300 303 310 313 313 315 313 312 311 310 308 302 301 301 301 300 298 299 304 309 310 309 308 309 308 313 314 314 314 314 314 314 314 313 313 315 317 315 315 315 322 323 323 324 324 321 319 322 324 325 326 327 328 328
299 303 310 313 314 314 313 311 310 309 304 301 301 301 301 299 298 301 306 308 307 305 313 309 309 313 314 313 314 315 314 310 313 309 309 313 311 314 312 318 317 322 322 322 320 319 320 322 323 326 325 326 327 329
299 304 309 311 314 313 311 310 309 306 302 301 301 300 299 299 302 310 311 307 306 306 309 310 311 311 314 313 315 316 316 312 314 312 313 307 310 319 320 320 317 317 319 321 320 323 323 325 326 325 326 326 326 326
299 305 309 311 311 311 310 309 307 302 301 301 299 300 307 310 312 307 306 307 305 308 309 311 311 309 314 314 312 315 311 310 313 312 313 315 317 318 321 320 320 321 321 324 323 324 325 325 325 325 325 325 325 324
298 307 308 309 310 309 309 308 306 301 301 300 304 308 311 310 308 309 309 309 307 307 309 308 310 311 315 317 314 314 314 312 314 314 314 320 316 317 321 321 323 324 323 322 323 324 324 324 324 324 324 323 323 324
298 306 307 309 309 309 308 306 304 302 301 304 307 308 306 307 307 311 311 310 309 310 310 308 307 313 315 317 315 313 315 314 314 315 317 315 316 317 321 321 321 321 322 322 322 322 323 323 323 323 323 323 323 323
297 304 307 308 308 308 305 304 303 302 301 307 308 308 307 308 308 308 310 311 312 311 311 309 311 310 311 311 311 316 313 314 316 316 317 312 317 318 318 319 321 321 321 321 321 321 321 321 322 322 322 321 321 321
295 301 307 307 308 305 303 302 301 300 304 308 309 309 308 309 310 310 310 310 310 312 311 311 311 313 310 314 311 311 316 318 316 316 313 319 317 317 318 320 320 319 318 318 319 319 320 319 320 320 321 320 320 319
296 298 304 307 306 304 301 301 301 302 308 308 309 310 310 307 307 308 310 310 310 312 313 314 311 314 314 312 315 314 314 316 314 312 317 320 319 319 317 319 319 318 318 318 318 318 318 320 320 320 320 319 318 316
298 300 304 306 304 302 301 301 302 304 307 309 310 310 310 309 309 313 311 312 314 315 312 312 315 315 310 314 317 314 315 312 315 318 317 317 318 319 319 319 316 318 318 319 318 318 319 321 321 320 320 318 315 314
302 302 306 304 301 300 300 302 304 306 308 309 308 309 309 312 314 315 316 315 316 316 315 315 315 315 315 317 315 311 316 317 317 317 319 318 319 319 318 314 315 315 315 317 318 318 320 320 320 320 318 315 313 311
301 306 304 302 300 301 302 303 305 306 308 308 308 309 313 314 314 316 316 316 316 317 317 315 313 313 311 312 313 315 315 314 315 317 316 316 318 318 319 317 317 317 315 316 318 318 319 319 319 319 317 314 311 310
302 302 301 301 302 305 305 306 305 309 309 310 310 313 315 315 315 315 316 316 316 315 315 312 312 314 314 315 314 317 318 318 318 318 318 317 318 318 319 319 318 316 314 317 318 318 318 318 318 317 316 315 312 312
302 302 302 302 305 306 307 308 309 309 312 312 313 313 314 315 315 315 315 315 315 315 314 315 315 315 317 318 318 318 318 318 317 317 317 318 318 319 319 319 318 313 314 316 317 318 318 318 317 317 316 315 312 311
303 304 304 306 308 308 310 310 308 310 311 312 313 314 313 312 312 315 314 316 316 316 316 316 315 316 317 317 318 317 316 315 314 314 313 314 316 317 317 317 315 314 315 317 317 317 318 317 315 314 312 313 312 312
304 305 307 308 309 310 311 310 311 313 311 312 313 312 311 313 314 315 314 315 317 317 317 316 316 316 317 317 317 317 315 316 317 316 314 315 315 315 315 316 316 315 315 317 317 317 316 315 314 314 315 314 314 313
304 307 309 310 309 310 311 312 312 312 313 311 311 312 312 314 314 313 311 314 317 317 316 316 317 317 316 316 316 316 316 317 317 315 314 314 315 315 315 314 314 314 316 317 316 315 316 316 315 315 315 314 313 313
307 307 309 307 310 310 310 310 309 310 311 311 310 310 311 313 308 308 309 315 316 315 315 315 315 315 315 316 316 316 317 317 315 314 315 315 315 315 315 315 316 316 314 314 314 314 314 315 314 313 313 313 312 312
302 307 307 309 309 309 309 310 310 311 311 312 311 312 313 310 310 307 311 316 316 316 316 316 315 314 313 313 314 315 315 315 315 315 316 315 315 314 314 315 315 315 315 313 313 314 314 314 313 312 313 313 313 313
307 308 309 309 310 310 309 311 311 310 310 311 309 309 309 312 313 313 316 316 316 316 315 313 313 314 314 314 316 315 315 315 315 315 314 314 315 315 315 314 314 315 314 314 314 314 314 315 314 313 313 313 313 313
309 309 308 309 313 312 309 310 310 310 310 312 311 313 314 312 311 316 316 316 315 314 313 313 313 314 314 315 316 315 315 314 314 314 315 315 314 314 314 314 315 315 314 314 314 313 313 313 313 313 313 313 312 312
309 309 310 310 312 313 312 311 312 313 313 313 310 310 313 315 315 315 315 314 314 313 313 313 313 314 315 315 315 315 315 314 314 315 315 315 315 315 315 316 315 314 314 314 314 313 313 312 313 313 313 313 313 313
309 310 310 311 310 309 312 313 313 313 313 313 312 312 313 313 313 314 314 314 314 313 313 314 315 315 315 315 315 315 314 314 314 315 315 315 315 315 315 315 315 315 315 315 313 313 313 311 311 311 312 312 312 311
309 309 310 310 312 312 312 311 311 312 312 312 312 312 312 312 312 314 314 313 313 314 314 315 315 315 315 315 315 314 313 314 314 315 316 316 314 314 314 315 315 315 314 313 313 313 313 313 313 313 313 313 313 313
309 309 309 308 311 312 312 312 313 313 314 312 313 314 314 314 315 315 315 315 314 314 315 315 315 315 315 316 316 317 316 315 315 315 316 316 314 314 313 312 312 312 312 314 314 314 314 314 314 314 313 314 312 312
310 310 311 312 312 313 313 314 315 315 315 316 315 315 316 315 314 315 314 315 315 315 314 315 315 316 316 316 316 316 316 316 316 315 315 315 315 313 313 312 311 310 309 309 312 314 314 314 314 314 313 313 313 313

GFSWCAN_850_thetae_063.txt.gz
Theta_e
300 307 312 312 314 315 314 316 315 313 313 312 310 307 303 301 298 299 299 306 308 309 307 306 307 308 310 311 316 316 322 324 326 328 324 324 325 328 330 330 334 334 333 328 325 327 326 330 330 338 333 330 330 332
299 305 312 312 313 313 314 316 315 313 313 312 311 307 302 301 299 298 298 306 309 309 309 307 306 306 306 308 309 312 320 321 322 327 326 328 332 331 332 336 329 337 334 338 337 333 331 330 328 327 326 326 327 328
299 303 312 313 312 313 313 315 315 314 313 312 311 309 303 300 299 298 298 304 308 309 309 308 307 307 309 311 311 313 316 318 318 319 322 327 331 327 332 329 331 331 328 334 331 331 330 329 329 327 326 326 328 328
299 300 311 313 312 313 314 316 315 313 312 312 311 308 304 301 299 298 298 300 308 309 311 310 315 312 310 310 311 313 315 316 316 319 321 323 326 325 328 327 327 328 327 330 327 326 327 328 329 327 326 327 327 328
299 299 305 313 312 313 314 314 315 313 312 311 311 308 302 301 299 298 298 299 304 308 311 310 311 314 312 312 313 314 315 314 316 319 322 323 321 325 324 326 328 327 326 324 323 325 328 328 325 325 326 326 327 329
299 299 301 311 313 313 315 315 314 313 311 311 310 304 301 301 300 298 299 300 303 309 309 313 312 315 314 313 314 314 314 314 316 318 318 317 319 321 326 328 327 326 323 322 326 324 323 324 324 324 323 324 326 328
298 299 300 305 312 313 314 315 313 312 311 310 309 304 302 301 300 299 304 308 306 309 309 309 314 314 313 313 313 313 314 314 314 314 316 320 320 319 322 323 327 325 324 323 323 324 324 323 325 324 325 325 326 328
296 298 300 306 310 312 313 315 312 311 310 310 307 302 302 301 300 299 300 302 308 308 307 315 315 314 313 314 315 313 313 313 314 314 313 319 319 318 321 318 320 324 323 322 323 323 323 321 321 322 325 325 327 329
296 296 300 307 310 312 313 314 311 310 309 307 302 301 302 300 300 299 301 306 308 305 312 312 314 318 313 313 313 315 313 317 313 317 315 316 319 319 319 321 321 321 323 325 321 319 322 323 324 324 326 327 328 329
295 296 300 305 311 313 314 313 310 309 308 302 301 301 300 299 299 307 307 305 304 306 308 312 311 317 314 314 317 319 316 319 320 318 314 316 318 320 320 321 319 317 318 319 322 325 325 327 327 326 326 325 326 327
295 296 301 307 310 313 312 311 310 309 305 302 302 299 301 304 310 310 306 306 305 308 308 311 311 314 313 318 319 316 319 316 320 320 320 320 322 322 320 321 321 320 320 321 323 324 324 325 325 326 325 324 325 325
294 297 305 308 309 312 310 309 309 306 305 301 301 308 310 311 310 309 312 311 309 307 308 310 311 311 315 316 319 316 320 317 319 318 320 322 323 319 320 321 321 322 322 322 323 324 324 324 324 323 321 321 321 321
294 299 306 308 309 310 309 309 308 306 303 300 308 308 307 306 310 312 314 314 313 311 309 308 310 311 316 317 318 320 319 319 317 320 320 323 319 318 320 321 321 321 322 322 322 322 322 323 322 322 322 322 322 322
294 301 306 308 309 309 308 308 305 303 301 306 308 309 308 310 310 313 313 313 312 310 310 308 311 313 312 317 318 318 318 319 320 320 320 322 319 318 319 320 320 321 321 321 321 320 320 321 322 321 321 321 320 320
293 300 305 307 308 308 307 305 304 301 304 307 308 309 309 309 310 310 310 311 310 311 309 311 312 315 316 318 316 318 320 320 321 321 322 320 316 318 320 320 320 318 318 318 318 318 319 320 321 321 320 320 318 317
294 300 305 307 308 307 305 303 302 301 305 307 308 311 311 309 310 309 309 310 310 310 310 312 316 318 318 318 317 316 316 318 321 320 318 318 318 317 319 318 317 317 318 318 318 317 316 317 320 320 319 318 317 315
296 299 304 307 306 305 302 301 301 302 306 309 311 310 311 311 310 311 309 310 310 312 317 316 318 318 315 319 319 319 321 321 318 318 317 319 318 318 319 316 313 315 315 318 318 318 319 320 321 320 319 316 314 312
297 299 303 304 304 301 301 301 303 304 307 308 309 310 308 308 311 313 313 312 313 315 315 319 316 319 320 319 320 320 318 317 317 318 317 318 318 319 316 315 316 315 315 316 318 318 320 320 319 319 317 314 312 311
297 299 304 305 304 301 302 302 304 306 307 308 308 309 311 313 313 313 315 314 315 316 316 316 318 319 320 317 318 317 316 315 317 317 318 319 318 318 318 316 317 317 314 315 317 317 319 320 319 319 316 313 312 310
300 302 305 304 302 303 304 305 304 305 310 310 312 314 313 314 313 314 315 315 315 315 317 318 318 317 317 315 314 315 315 316 317 318 317 316 317 318 318 319 319 318 314 317 317 318 319 319 318 317 315 312 312 310
303 301 302 303 303 305 306 306 308 308 311 311 313 313 313 313 314 314 314 314 315 315 317 316 315 315 316 318 318 318 317 317 317 317 317 318 317 318 318 319 319 317 313 315 317 318 318 318 317 317 316 314 312 312
301 301 302 303 305 306 308 308 309 309 310 313 314 312 313 314 315 313 315 317 317 315 315 315 317 317 317 318 317 317 316 314 315 315 314 313 313 315 317 318 318 316 314 315 316 317 318 318 317 315 315 315 311 311
302 302 304 303 307 307 308 309 310 312 312 312 312 314 315 315 314 314 315 315 317 316 315 315 316 316 317 317 317 316 315 316 317 317 316 315 314 315 315 315 316 316 315 316 317 317 318 316 315 312 313 312 313 313
303 303 306 309 307 309 310 311 311 312 312 313 315 315 315 315 313 315 317 316 316 317 316 316 317 317 316 316 316 317 317 316 317 317 315 314 314 315 315 315 315 314 314 316 316 317 317 315 314 314 314 314 314 314
306 307 309 309 309 310 312 312 312 314 315 313 314 315 314 312 314 315 317 316 315 315 315 315 315 315 315 314 313 314 316 316 315 315 314 315 315 314 315 315 315 316 316 315 315 314 314 315 315 314 313 313 313 312
306 307 308 310 310 312 312 313 314 314 314 314 314 313 312 314 314 315 316 316 315 315 316 316 315 313 312 313 313 315 315 315 315 315 316 315 315 314 314 315 315 315 315 314 313 313 314 314 313 313 312 312 313 313
309 310 308 308 309 310 311 310 311 313 313 313 313 312 313 314 315 317 316 316 316 316 315 313 313 313 313 314 315 315 315 315 315 315 314 314 315 315 315 314 315 315 314 313 314 314 313 314 313 314 313 313 313 313
308 308 311 311 313 312 313 313 314 314 314 312 313 316 315 315 316 316 316 316 315 314 313 313 312 312 313 314 315 315 314 314 314 314 315 315 314 314 314 315 315 315 314 314 314 314 312 313 313 314 313 313 314 313
309 309 310 312 313 313 312 314 314 313 312 312 314 315 315 314 315 315 315 315 314 313 313 313 314 315 314 315 315 315 314 314 314 315 315 316 315 315 315 315 315 315 314 314 314 314 313 313 313 312 313 313 313 313
310 309 311 312 312 313 312 312 313 312 312 312 312 312 312 312 313 313 314 314 314 313 313 314 315 315 315 314 315 315 314 314 314 314 315 316 316 315 314 314 315 315 315 315 314 314 314 313 312 311 311 311 311 312
309 309 310 312 313 312 311 312 312 313 312 312 312 312 312 313 314 314 314 313 313 314 315 315 315 315 315 315 315 314 315 314 314 315 315 315 316 315 313 312 312 312 313 313 314 314 314 314 314 314 313 311 312 313
309 309 310 311 312 312 313 313 314 314 314 314 315 315 314 314 314 315 314 314 314 315 315 314 315 315 315 316 316 316 316 316 316 315 315 315 315 315 315 314 313 312 312 311 310 310 310 312 314 314 314 314 314 313
310 311 311 312 313 314 313 314 315 315 316 316 316 316 316 315 315 314 315 315 316 315 314 314 314 315 316 315 315 315 315 315 315 314 314 314 314 314 314 314 313 312 312 312 310 308 308 308 310 312 313 313 313 314

GFSWCAN_850_thetae_066.txt.gz
Theta_e
299 299 299 308 312 311 314 315 316 316 315 314 313 312 307 305 301 298 300 299 306 311 311 311 310 311 312 315 321 320 325 327 324 325 323 323 323 327 327 332 330 328 329 327 327 327 328 333 334 342 336 334 332 333
299 299 299 304 311 312 314 314 315 315 314 313 313 311 308 304 301 298 300 301 308 309 311 310 307 306 309 310 311 317 325 326 325 329 329 327 326 329 329 327 334 332 334 337 337 338 333 333 331 330 329 330 331 331
299 299 299 305 312 312 312 313 315 315 314 313 313 311 309 306 301 299 298 298 303 309 311 311 312 311 307 309 311 315 320 322 324 323 327 328 327 327 328 328 331 334 333 334 334 331 331 332 332 331 329 330 330 330
299 299 299 303 313 312 312 313 315 315 314 313 312 311 311 309 302 299 298 298 302 308 312 312 313 315 311 311 311 312 314 317 318 321 325 325 324 327 327 330 330 331 331 330 327 325 328 328 328 329 329 329 329 330
298 299 299 301 312 312 312 314 315 314 314 313 312 311 310 306 302 300 299 299 299 305 314 312 311 314 313 311 311 313 317 319 316 319 323 323 324 327 329 328 327 327 329 328 328 327 327 329 328 330 329 329 330 330
298 298 299 300 308 312 312 314 314 314 313 312 312 311 309 303 302 299 302 302 299 301 311 314 315 316 314 312 316 317 318 317 316 316 318 321 325 326 327 326 330 327 324 324 328 327 327 328 328 329 330 329 329 330
298 298 299 299 302 312 312 313 314 314 312 311 311 310 304 302 301 303 304 306 305 304 311 314 317 316 315 316 315 316 315 316 316 317 317 319 322 323 324 324 327 324 323 326 327 327 324 326 325 325 327 329 329 331
298 297 298 299 303 310 312 313 314 313 312 311 310 307 303 302 301 301 300 300 304 307 309 314 319 317 315 316 317 316 315 315 317 318 318 319 323 321 321 324 326 326 325 324 324 327 325 325 327 327 328 330 330 331
297 296 296 298 303 309 312 313 314 312 311 310 308 303 302 302 302 302 300 301 300 307 311 315 318 318 315 317 317 316 317 317 318 317 317 318 320 321 325 324 325 325 325 325 324 322 324 326 326 328 329 328 330 330
296 296 296 297 306 309 313 314 312 310 309 309 302 302 306 303 301 302 306 307 304 307 309 312 316 320 316 317 317 319 318 320 320 320 319 318 318 324 323 324 325 324 323 324 323 323 324 324 328 327 327 328 329 329
295 295 295 297 306 310 313 312 311 309 308 302 303 302 305 300 308 307 311 311 310 310 308 310 314 319 316 319 319 320 320 320 321 322 321 321 320 325 325 326 326 325 323 323 325 326 326 327 326 327 326 326 326 327
294 294 295 298 308 311 313 312 310 309 308 307 304 306 309 311 312 311 311 310 310 311 309 310 313 316 318 320 320 320 321 321 320 321 321 320 327 325 325 325 326 326 326 326 327 326 326 326 325 324 323 320 319 319
294 294 296 305 310 311 311 310 309 309 307 305 307 310 311 310 309 310 311 312 312 311 312 310 313 315 320 320 321 321 320 320 320 320 319 322 325 324 325 325 326 326 326 326 326 325 325 324 324 323 323 324 325 324
294 294 302 307 310 311 310 309 309 304 306 307 309 310 310 310 310 311 311 311 312 313 313 310 314 319 319 320 321 320 321 320 319 319 318 323 324 324 324 324 324 324 324 325 325 325 324 322 323 323 323 323 323 323
293 295 304 309 309 309 309 308 306 304 306 309 310 311 310 310 310 311 311 313 313 313 313 311 316 317 319 320 319 320 320 319 318 319 321 323 323 324 324 324 323 322 322 322 322 322 323 323 323 323 323 322 321 320
293 298 304 308 308 309 308 307 304 302 306 309 310 312 311 311 310 309 310 312 312 313 313 313 317 318 319 318 318 318 316 317 320 321 322 323 322 323 323 322 321 321 321 319 317 320 321 322 323 323 322 321 320 319
293 301 305 306 308 307 305 303 302 304 307 310 311 311 311 312 312 312 312 311 312 313 313 315 318 317 319 317 317 318 317 321 321 321 322 322 322 322 322 319 317 318 318 316 321 321 322 322 322 322 321 320 318 317
297 299 303 306 307 304 302 303 304 305 307 309 311 312 311 311 312 313 314 313 313 313 315 317 318 318 317 317 319 321 321 321 321 321 322 323 323 322 320 320 320 320 319 318 318 319 321 322 321 321 319 316 317 316
299 299 305 305 304 302 302 303 306 307 308 310 311 311 312 314 316 316 316 315 316 317 319 319 318 317 318 320 320 321 321 320 321 321 321 322 322 322 320 320 320 321 320 318 318 318 321 320 320 320 318 317 316 315
301 302 305 304 303 304 305 306 305 307 310 311 312 314 315 317 316 316 317 316 318 319 319 319 320 320 320 320 320 320 320 320 320 320 320 320 320 321 321 320 321 321 320 319 318 318 320 320 319 319 318 317 315 313
303 304 304 303 304 306 307 307 307 307 311 313 314 313 314 315 317 317 317 316 319 319 319 319 319 319 319 320 321 321 321 321 321 321 321 321 321 320 321 321 321 320 318 317 317 319 319 320 320 320 318 316 315 313
302 301 302 303 304 304 306 308 309 309 311 313 311 311 315 317 317 317 316 318 319 319 319 319 320 320 321 321 321 320 317 317 316 316 315 315 316 317 318 319 319 319 318 317 316 318 320 318 318 319 318 317 314 313
301 302 302 303 302 306 308 309 310 309 311 311 308 314 316 316 317 317 318 319 319 318 319 319 320 321 321 319 319 317 317 319 319 319 319 318 318 317 317 317 317 317 317 317 317 318 320 317 316 317 317 316 314 314
302 303 303 303 305 307 308 311 308 312 313 315 317 317 317 317 317 317 318 317 318 318 319 319 319 319 319 318 319 319 319 319 318 318 318 318 318 319 318 318 318 318 315 317 318 319 319 317 315 314 316 315 315 315
302 302 302 303 307 312 314 315 316 315 316 316 317 318 317 316 317 317 318 318 318 318 318 318 318 318 316 316 316 317 315 317 318 318 318 318 318 318 318 317 317 318 317 316 316 316 316 315 314 312 315 317 316 315
306 308 310 313 313 314 314 315 315 315 315 316 317 316 316 315 316 318 318 318 318 318 318 318 317 317 317 316 316 317 318 318 318 318 318 318 316 316 316 315 315 316 314 314 314 314 315 315 316 316 316 315 314 313
313 313 312 311 312 314 315 315 315 315 315 315 315 315 315 315 317 318 319 318 319 318 317 317 316 316 316 316 317 317 317 318 318 318 317 318 318 317 317 317 315 317 316 316 316 315 314 314 314 315 315 314 314 314
312 313 316 315 316 315 316 316 316 317 317 316 316 316 316 316 318 318 318 318 317 316 316 316 316 315 316 316 316 317 317 317 316 315 316 316 317 317 317 316 316 315 315 316 315 316 316 315 314 314 314 315 315 314
313 314 314 315 315 315 315 316 315 315 315 316 316 317 316 317 317 317 317 317 316 315 315 315 317 315 317 317 317 317 316 316 316 316 317 316 316 317 317 316 317 317 316 317 316 314 315 315 314 314 314 313 314 314
313 313 314 314 314 315 314 315 314 314 314 314 314 314 315 315 315 314 315 315 315 315 315 316 316 316 316 317 317 317 316 316 316 316 316 316 317 317 317 317 315 316 317 317 317 316 316 315 315 314 314 313 313 313
312 312 313 313 314 315 315 315 315 315 315 315 315 316 316 317 316 316 316 316 316 316 317 317 317 317 318 317 317 317 316 316 316 317 317 317 317 317 318 318 316 314 314 314 315 314 314 315 316 316 315 314 314 313
312 313 312 315 316 315 315 316 317 317 317 317 316 315 315 314 315 315 315 316 317 317 316 317 317 317 317 317 317 317 316 317 317 318 318 318 318 318 318 317 317 315 314 314 313 313 312 311 312 312 313 315 316 316
314 314 314 315 314 315 315 316 316 317 316 316 316 316 316 316 317 317 317 317 318 318 318 318 317 317 317 317 318 318 317 317 317 315 315 314 313 313 313 313 314 315 315 314 313 313 312 312 312 312 312 312 312 313

GFSWCAN_850_thetae_069.txt.gz
Theta_e
299 299 299 299 301 310 312 312 315 317 317 315 314 314 313 308 305 300 306 304 305 309 312 312 313 314 315 318 322 321 324 325 323 327 327 327 328 328 328 329 329 330 330 329 327 329 328 335 334 343 339 336 336 336
298 299 299 299 300 305 312 313 314 315 316 315 314 314 313 309 305 301 305 306 307 308 310 311 310 311 312 313 314 319 328 325 326 328 328 328 326 326 327 327 333 329 329 340 341 341 337 334 334 332 331 333 333 333
298 299 299 299 300 307 311 314 315 316 316 315 314 313 312 309 305 302 305 304 303 306 311 313 313 313 313 313 313 315 325 324 327 326 327 326 330 329 328 330 329 333 334 330 331 334 333 333 332 331 330 331 331 331
299 299 299 299 300 310 312 313 313 314 316 315 314 313 312 311 310 305 306 305 303 305 311 315 314 314 314 315 314 314 315 318 321 322 323 326 327 326 327 330 334 332 331 331 332 328 328 329 330 330 330 330 331 331
299 299 299 299 299 312 312 312 314 314 315 314 314 313 312 312 308 304 304 305 304 304 312 314 313 312 314 315 315 315 316 319 318 320 322 324 323 325 325 324 327 328 331 330 332 330 329 332 330 329 329 330 330 331
299 299 298 299 299 308 312 312 315 314 315 314 313 313 312 311 307 302 307 307 305 302 308 316 316 317 315 315 315 317 317 318 317 318 319 319 322 325 324 327 329 328 325 327 330 327 327 327 328 327 326 329 330 331
298 298 298 299 299 303 312 312 315 314 314 313 312 312 311 308 303 307 308 308 307 302 311 314 317 317 315 315 316 317 317 316 316 317 318 318 321 321 323 325 327 327 326 326 325 324 323 325 325 324 325 326 329 331
298 298 298 298 299 301 311 312 314 314 314 312 311 311 308 304 302 305 304 303 304 308 310 316 319 319 315 316 317 317 317 317 316 317 319 320 321 322 323 327 327 325 325 323 322 323 323 323 324 325 326 327 328 329
298 298 297 297 298 302 308 313 314 314 313 311 310 308 303 302 307 308 304 300 301 309 312 313 319 319 317 317 318 318 316 317 318 318 318 319 321 323 324 325 325 324 323 322 323 322 322 323 325 325 326 326 329 331
298 297 297 296 297 303 309 312 314 312 311 310 307 304 309 309 306 303 304 309 307 308 309 312 316 321 318 317 319 318 317 321 321 319 320 320 319 325 323 324 323 323 323 322 322 321 324 323 325 325 327 329 329 329
297 296 296 296 296 306 312 314 312 310 309 308 306 304 309 306 306 309 311 311 312 313 310 310 313 318 317 320 320 319 321 321 321 324 320 323 321 325 324 323 324 324 323 322 323 324 324 325 324 327 328 326 324 325
296 295 295 296 296 307 312 313 311 310 310 309 306 307 308 308 312 311 312 312 313 314 310 310 311 317 319 320 322 320 321 322 322 324 322 322 331 327 325 325 326 326 325 325 325 325 324 325 325 325 324 325 321 318
295 294 294 295 298 309 312 312 311 309 309 306 306 309 311 312 316 312 313 314 314 313 312 310 314 317 321 320 320 321 321 322 321 321 321 328 328 327 327 325 326 326 326 325 325 324 324 324 324 323 323 323 324 325
294 294 294 296 302 310 311 311 310 307 307 309 310 317 313 313 314 315 315 315 314 314 314 311 313 318 320 320 321 320 321 322 321 321 320 326 326 326 326 325 325 325 325 324 324 324 324 323 323 323 323 323 323 323
294 294 295 303 309 310 310 310 308 307 307 310 312 315 313 313 313 313 313 313 314 314 314 311 313 318 321 320 319 320 320 319 320 320 323 327 326 326 326 326 325 324 324 324 324 325 325 324 324 324 324 323 323 322
294 294 298 306 308 310 309 309 304 306 307 311 312 313 313 314 314 313 313 314 313 313 314 312 316 319 318 318 318 319 318 318 319 321 322 327 327 326 325 324 324 323 323 324 323 323 323 323 324 325 324 323 321 321
294 298 300 308 307 308 308 304 303 304 308 311 312 312 313 313 313 312 311 310 312 314 316 314 316 317 318 317 318 318 318 320 321 321 322 324 326 325 324 323 318 320 321 320 321 323 323 323 324 323 322 322 321 320
297 300 303 307 307 305 302 303 305 306 308 310 312 313 313 313 313 312 312 313 313 313 315 315 317 319 318 317 318 319 320 321 320 321 323 325 325 324 323 321 321 320 321 320 319 320 319 321 323 322 322 321 320 319
299 300 303 307 306 303 303 304 307 309 310 311 311 312 314 313 313 314 315 316 314 315 315 318 318 317 317 319 320 320 319 320 321 322 323 324 324 324 323 322 321 321 321 322 320 318 319 323 323 322 322 320 319 317
300 300 303 307 305 307 307 307 307 309 312 311 311 313 313 314 316 318 318 316 316 318 319 319 318 318 319 320 320 320 320 321 321 321 322 323 322 323 323 323 321 321 321 321 320 318 319 321 322 322 321 318 317 316
301 300 304 305 307 309 309 308 308 309 312 313 313 314 315 317 318 318 317 317 317 319 320 320 321 322 322 322 322 321 322 321 322 322 323 322 322 321 322 323 323 321 320 319 318 318 318 319 321 322 321 319 317 315
301 301 302 304 307 307 309 310 311 312 313 314 314 314 316 317 318 318 318 319 319 319 320 321 322 323 323 323 323 322 323 322 319 318 317 317 317 317 318 318 319 319 319 318 318 318 317 320 321 321 321 320 316 315
301 302 304 305 306 305 308 309 310 312 313 313 311 311 315 317 317 318 317 318 318 321 321 322 323 323 322 322 322 320 320 320 319 319 320 319 318 318 319 318 318 318 318 318 318 318 319 320 321 320 320 318 317 315
303 304 305 305 304 308 309 310 309 310 311 311 309 312 317 318 316 318 319 319 319 320 321 322 320 320 319 320 319 320 319 319 318 317 318 319 319 318 318 319 319 318 318 318 317 319 320 321 320 318 318 318 317 316
303 304 303 303 305 308 312 310 309 310 312 310 313 318 318 318 318 319 320 319 319 318 319 319 318 318 317 316 316 317 317 317 317 318 319 319 318 319 319 319 318 318 319 319 318 319 320 320 318 316 316 317 316 316
302 302 301 304 310 311 312 316 317 319 318 317 317 316 317 317 318 319 320 320 320 319 319 319 319 318 317 317 316 317 318 318 318 320 319 318 318 318 317 317 318 318 317 318 318 317 317 316 316 315 315 315 315 316
313 314 313 314 315 315 316 315 315 316 317 317 317 317 316 317 319 320 320 320 320 319 319 318 317 316 316 316 316 317 317 319 320 320 319 318 318 317 317 317 317 318 318 316 316 315 314 315 316 316 316 316 316 315
315 316 317 316 315 315 316 317 317 317 317 316 316 317 316 317 320 320 320 319 318 317 317 316 316 317 317 317 317 317 317 318 317 317 317 317 317 317 318 317 317 316 315 316 317 317 317 316 315 315 316 316 316 315
316 314 315 317 317 317 316 317 317 317 317 316 318 318 317 317 317 317 317 317 316 315 317 316 318 318 318 317 317 317 318 317 317 316 317 317 316 316 318 318 318 317 318 318 317 316 315 314 314 315 316 316 315 314
315 315 315 315 316 317 316 316 316 315 315 315 315 315 316 316 316 316 316 316 316 316 317 318 317 317 318 318 317 318 317 316 317 317 317 316 317 317 317 318 318 317 316 316 317 317 317 316 316 316 316 315 315 314
314 314 315 316 317 316 316 315 315 315 317 317 318 318 317 317 317 317 317 317 317 317 317 317 317 317 318 317 318 317 316 316 317 318 319 318 318 317 317 318 317 318 317 315 315 315 315 315 314 313 313 314 314 315
314 315 318 318 317 317 318 318 318 318 317 317 317 317 317 316 317 317 318 318 318 317 316 317 318 318 317 317 318 318 317 317 318 319 318 318 317 317 316 316 315 314 314 314 315 315 315 314 314 314 313 313 312 312
315 316 316 316 317 317 318 318 317 317 317 318 318 317 317 317 318 318 318 319 319 318 318 318 318 318 318 318 317 317 317 317 317 316 316 316 315 314 314 315 315 315 315 315 315 315 315 315 315 315 315 315 315 314

GFSWCAN_850_thetae_075.txt.gz
Theta_e
315 311 308 305 301 299 299 300 306 311 312 316 316 317 316 315 314 311 309 309 309 309 309 308 309 310 313 314 318 317 319 325 326 330 330 330 332 330 332 331 330 333 333 335 335 334 338 336 336 343 339 337 337 336
313 309 305 303 300 299 299 300 306 311 313 315 316 315 315 314 313 311 308 309 310 309 308 308 306 308 310 311 311 313 319 325 325 328 328 329 328 330 329 333 326 334 333 334 333 336 334 333 335 334 333 333 333 334
312 308 304 301 299 299 299 300 303 308 313 315 315 315 315 314 313 311 310 309 310 310 309 308 309 308 310 311 310 311 318 320 322 320 326 326 329 326 331 330 330 328 326 334 332 334 333 332 331 331 331 332 332 332
310 306 303 300 299 299 299 300 305 309 313 315 315 315 315 314 313 311 312 312 309 310 309 310 310 314 315 315 314 313 313 317 317 317 321 324 328 326 329 325 328 329 328 328 331 332 333 329 330 331 332 331 331 330
308 305 301 299 299 299 299 300 309 312 314 314 315 316 314 314 313 313 313 313 310 309 308 308 307 314 315 315 315 316 316 317 318 321 324 325 322 326 326 325 331 327 328 333 332 327 327 324 327 327 327 327 330 328
304 301 299 299 299 299 299 305 311 313 313 316 314 315 314 314 313 312 309 311 310 309 307 308 310 313 315 316 315 315 317 317 318 320 321 320 320 324 323 326 329 327 326 328 331 329 326 326 327 325 324 326 327 326
302 299 298 299 299 299 299 306 311 311 313 313 315 314 314 313 313 311 311 312 310 308 306 311 315 317 314 316 316 316 317 318 318 319 319 319 320 320 324 326 329 324 325 328 327 325 328 325 324 323 325 324 325 327
300 298 298 298 299 299 299 304 311 312 315 314 314 314 313 313 312 312 310 308 305 307 309 312 314 317 318 318 316 315 316 318 320 319 317 319 319 322 321 330 327 325 325 325 325 323 321 322 325 327 328 329 331 332
299 298 298 298 298 299 299 304 312 312 314 314 313 313 312 311 310 311 311 308 305 307 311 314 313 317 318 320 317 317 317 321 318 320 319 319 321 323 328 327 328 327 327 324 323 322 324 324 325 324 324 325 326 327
300 298 298 298 298 298 300 309 312 314 314 312 312 312 310 311 310 308 307 307 306 307 307 311 312 315 313 320 320 322 320 319 322 319 319 320 319 326 326 326 326 324 323 322 320 321 323 324 326 326 323 321 326 327
298 298 298 298 298 297 302 309 313 313 312 311 312 309 310 310 309 309 311 312 312 313 312 312 311 311 313 319 319 320 325 323 324 324 322 323 329 329 326 325 323 321 321 320 320 320 324 326 326 326 326 323 320 320
298 298 297 297 297 297 303 310 312 312 312 312 309 310 309 308 310 313 315 314 315 316 316 315 313 310 310 314 319 324 324 326 327 327 327 328 331 325 324 324 323 322 323 323 324 324 325 325 324 324 324 325 324 321
299 298 297 297 296 297 304 309 311 312 311 309 310 311 311 311 313 315 315 316 318 317 316 314 315 312 316 318 324 325 326 325 323 329 326 331 329 327 325 325 324 324 324 324 325 325 326 326 325 325 326 326 325 323
297 297 296 296 296 297 306 309 311 310 309 311 310 310 313 314 315 315 316 318 316 316 316 315 314 315 316 321 324 323 322 325 326 324 329 330 329 327 325 325 325 324 323 325 325 326 325 324 324 324 322 320 325 324
296 296 296 295 296 298 309 310 310 309 309 311 313 313 314 314 314 315 316 316 316 316 316 314 314 312 318 325 324 324 326 326 325 330 332 329 327 325 325 325 324 323 323 324 324 325 325 325 323 322 320 318 321 323
295 295 296 295 296 303 309 309 308 308 310 311 313 314 314 315 315 315 316 315 316 316 316 313 314 316 322 323 322 323 323 323 328 332 329 327 326 326 325 325 325 324 324 323 323 323 323 324 324 323 321 322 322 322
295 295 296 295 297 306 309 307 306 307 309 310 312 314 314 314 316 316 316 316 316 316 318 316 315 314 320 320 322 323 324 327 330 329 328 327 326 326 325 323 321 321 320 321 321 321 320 319 322 323 322 323 322 321
295 298 297 295 301 307 306 306 306 307 308 309 311 314 314 315 315 314 316 315 314 315 315 318 316 317 318 318 320 323 323 326 328 327 326 326 326 325 325 322 322 321 322 321 321 319 321 321 322 322 321 322 322 320
301 299 297 297 305 306 305 305 307 309 309 311 311 311 312 313 314 314 314 315 315 315 317 317 318 319 320 319 322 319 321 322 324 326 325 324 324 323 323 324 323 322 321 320 320 319 321 320 320 320 321 322 322 320
302 301 299 301 306 305 306 306 307 310 312 312 311 311 313 312 314 314 315 315 315 315 317 319 318 319 319 320 319 320 324 323 325 324 325 324 323 323 322 321 323 322 322 322 322 322 322 322 322 322 322 322 320 319
302 302 304 306 306 307 308 309 308 309 309 312 313 312 312 312 312 314 315 316 316 316 317 318 318 317 318 321 318 316 318 323 324 324 324 322 322 324 322 320 321 322 322 321 320 319 320 320 320 323 321 320 320 318
301 303 304 305 306 306 308 309 310 310 309 312 315 316 315 316 316 316 317 317 315 315 316 316 316 316 316 319 319 323 321 323 318 318 318 318 319 322 322 323 322 322 322 320 319 318 318 320 322 322 321 322 321 319
302 303 303 304 306 307 309 310 311 312 313 314 314 315 315 316 316 315 315 316 317 316 314 313 314 316 317 319 321 320 315 318 321 320 320 319 319 320 321 321 320 319 320 319 319 319 319 319 319 320 320 320 319 319
302 304 305 306 307 308 310 312 313 313 313 314 314 314 315 316 313 316 317 315 316 316 316 316 313 313 316 317 320 322 322 320 318 319 319 320 320 320 319 319 320 320 319 318 319 319 319 319 320 318 320 320 320 319
306 307 307 305 309 309 311 312 312 313 312 313 314 316 317 315 316 317 318 317 316 315 315 317 314 313 314 318 321 321 319 319 320 320 320 320 319 318 319 318 317 318 319 317 318 318 319 318 319 319 318 319 318 316
302 306 305 308 309 311 313 312 312 313 313 314 314 316 316 317 317 318 318 315 314 316 319 319 319 319 318 317 320 320 319 319 318 319 320 318 318 317 317 317 318 318 318 317 318 317 317 317 317 317 317 317 317 316
304 306 306 306 310 310 311 311 312 312 315 315 314 313 314 318 320 319 318 317 319 319 319 317 317 318 318 319 319 319 319 318 318 318 319 319 318 318 318 318 318 318 318 318 317 317 317 316 317 317 317 317 316 317
302 307 309 308 309 310 314 315 315 317 317 317 319 320 321 320 321 319 319 318 318 318 318 318 318 318 318 318 318 319 318 319 318 318 317 318 318 317 317 315 315 317 317 317 317 315 317 318 318 317 315 316 317 317
304 308 309 309 309 312 313 318 319 319 319 319 321 321 320 320 318 317 318 318 318 318 318 318 317 318 318 318 318 318 318 318 318 318 318 318 318 318 318 318 315 316 317 317 317 315 315 317 316 317 315 316 315 315
318 312 315 314 316 319 318 319 319 318 317 318 318 319 319 319 319 319 318 318 318 319 319 319 318 318 319 318 318 318 317 317 318 317 317 316 316 315 316 317 316 315 315 315 315 315 315 316 316 316 316 317 315 316
318 319 320 320 320 319 319 319 318 318 318 318 318 319 319 318 318 317 318 318 318 318 318 318 318 318 318 318 317 319 318 318 318 318 316 316 317 316 316 316 316 316 316 316 316 315 316 316 316 316 317 317 316 316
318 319 320 320 320 319 318 318 318 318 318 318 318 319 317 315 314 315 316 317 317 316 317 317 318 318 318 317 317 317 317 317 316 316 316 316 316 315 315 313 314 313 313 315 315 315 315 315 315 314 315 315 314 313
319 319 319 319 319 319 319 319 319 319 319 319 319 319 318 318 318 317 317 316 316 317 317 316 317 316 317 317 316 316 316 316 316 316 315 314 313 311 311 311 312 311 313 313 313 313 311 310 309 309 309 307 308 307

GFSWCAN_850_thetae_078.txt.gz
Theta_e
324 323 318 313 309 305 301 299 299 301 307 311 312 315 316 315 315 314 309 307 308 308 309 309 309 309 308 308 311 314 314 320 324 324 322 324 325 326 326 327 326 328 329 329 328 332 337 333 333 339 334 333 329 330
320 320 318 312 308 304 300 299 299 303 308 311 314 315 314 315 314 314 312 308 308 309 310 311 311 311 310 308 307 310 312 320 323 323 323 326 325 324 324 329 324 327 328 330 327 330 330 331 332 333 333 334 333 334
318 317 313 310 306 302 300 299 299 301 305 310 314 314 314 315 314 313 313 310 309 310 311 310 310 310 310 310 309 307 309 315 322 321 320 323 326 324 325 323 327 327 324 328 328 331 330 329 331 332 332 332 332 333
316 316 311 307 303 300 299 299 300 302 308 312 314 314 314 314 314 313 312 311 311 309 309 310 309 310 310 311 311 313 312 315 316 317 317 319 323 324 324 324 327 327 326 325 329 330 327 327 326 327 331 331 330 332
315 315 310 307 302 299 299 299 300 305 307 313 313 314 314 314 313 313 313 312 311 309 309 310 311 311 313 314 315 314 313 311 310 317 317 318 321 324 323 323 325 326 325 327 328 329 328 326 328 325 326 327 329 328
314 315 310 305 302 299 299 299 302 309 312 312 313 314 315 314 313 313 311 310 310 309 309 303 306 307 313 314 315 315 314 312 314 318 317 320 320 321 318 323 326 328 325 328 328 328 324 326 325 327 326 325 326 326
313 313 309 301 299 299 299 299 307 310 311 312 313 314 315 314 313 313 310 311 310 309 306 305 307 313 315 315 315 315 314 316 317 317 318 318 318 318 316 323 325 325 325 326 326 327 327 326 326 325 325 326 327 328
313 311 303 299 299 298 299 299 310 311 312 311 312 314 314 314 313 313 312 311 305 305 308 305 307 312 316 316 315 315 315 316 317 318 317 314 315 316 314 320 326 324 324 325 327 327 326 324 328 328 328 327 328 327
312 306 302 300 298 298 299 300 311 311 313 313 314 313 313 313 312 311 311 309 307 305 309 310 309 310 313 317 318 317 315 314 317 315 314 315 312 316 315 325 326 325 324 324 324 326 326 327 325 324 323 320 323 326
309 308 305 298 298 298 299 301 311 312 314 313 312 313 312 311 310 308 307 306 305 303 302 306 310 309 311 317 316 317 318 314 314 314 317 313 312 318 323 326 326 327 327 325 321 325 325 324 324 324 322 321 320 322
300 299 299 297 297 298 299 307 311 313 313 312 312 311 310 310 309 309 309 307 309 309 309 309 309 306 309 314 313 317 318 316 318 315 316 315 324 324 327 327 326 323 321 320 320 320 322 325 325 324 323 322 320 319
301 298 297 297 297 297 300 311 313 313 312 312 309 309 308 308 308 310 310 312 311 312 313 311 312 310 310 311 315 320 323 318 323 323 322 325 323 325 323 321 322 323 324 324 323 325 326 325 325 326 325 324 323 322
298 297 297 297 297 297 302 310 312 312 312 310 311 311 310 310 308 314 315 312 312 314 316 314 310 311 310 309 321 323 321 322 319 323 323 324 325 325 324 324 324 324 324 325 326 326 325 325 326 325 325 325 324 323
297 297 297 297 297 297 305 309 311 311 310 311 311 305 312 312 312 311 311 311 315 316 316 314 313 312 313 317 318 320 319 320 324 322 326 324 326 325 324 324 324 324 324 324 325 325 324 324 323 323 322 321 321 320
300 300 298 296 296 298 307 310 310 309 310 311 311 311 310 312 314 314 313 314 314 315 316 313 312 312 309 320 318 320 322 324 324 325 324 327 325 325 324 323 323 324 324 324 324 324 324 324 323 322 321 320 318 322
297 296 296 295 297 306 307 309 309 309 309 310 312 312 313 313 312 314 314 315 316 316 316 313 310 311 319 319 320 322 323 323 324 325 328 326 325 325 325 325 324 324 323 321 320 319 320 323 323 323 322 322 318 322
295 295 295 295 301 307 308 308 308 308 309 309 310 312 312 313 313 314 315 316 315 316 314 312 311 313 315 318 321 318 320 319 322 328 327 325 325 325 325 324 321 320 321 320 319 318 320 320 321 322 321 320 322 321
297 297 295 295 303 306 306 307 307 307 308 308 308 309 313 313 314 314 315 315 315 315 315 315 316 314 315 318 318 318 320 319 322 327 326 326 325 325 324 321 321 321 321 321 320 319 321 321 321 321 321 321 322 321
297 297 294 295 305 305 305 306 306 307 307 308 310 310 310 309 311 314 314 315 314 314 314 316 314 314 315 318 319 320 320 321 322 325 324 324 325 323 324 323 322 322 320 320 320 320 321 321 320 320 319 320 321 320
300 297 295 301 305 305 306 305 306 307 310 311 311 311 310 311 311 312 315 315 314 314 315 315 314 318 318 318 317 318 319 321 322 322 321 321 323 323 322 321 322 322 322 322 322 320 319 321 321 321 322 320 318 320
301 300 303 305 305 305 306 306 306 307 308 309 311 313 311 310 312 313 313 315 316 314 313 316 317 317 316 317 317 318 318 318 321 321 322 322 322 323 322 322 322 321 320 321 321 319 318 317 317 319 320 321 319 320
302 302 303 305 305 306 307 308 309 309 308 308 311 313 314 314 315 315 316 316 316 316 316 316 316 316 316 317 316 317 319 320 320 319 320 319 320 321 321 322 323 321 321 321 320 318 319 320 321 321 320 320 320 318
302 302 302 303 305 306 307 309 310 310 311 312 314 314 314 315 316 315 314 315 316 315 315 314 314 315 316 317 318 315 317 319 320 320 320 320 320 320 320 319 318 318 319 319 318 318 319 319 318 319 319 319 319 320
302 303 304 304 305 306 308 310 311 311 312 312 312 312 312 315 314 315 315 314 315 315 314 314 315 313 314 315 316 315 319 320 319 319 320 320 320 319 318 317 318 317 318 317 317 316 318 318 318 318 318 318 319 319
305 305 306 305 308 309 310 311 311 311 311 311 312 312 314 314 314 314 315 316 316 316 315 315 315 316 313 315 318 319 319 320 321 320 319 318 318 318 318 317 317 318 318 318 318 317 316 317 316 317 318 318 318 318
301 306 306 307 308 309 310 310 309 310 311 312 312 315 315 316 317 317 316 315 316 315 315 316 315 314 316 318 318 319 320 319 318 317 318 318 317 316 318 318 318 318 318 317 318 317 317 317 317 317 317 316 316 316
302 305 305 306 309 311 311 311 312 312 314 314 313 313 315 315 315 316 316 316 317 317 318 318 319 319 319 319 319 319 318 316 315 318 319 319 318 318 318 318 316 317 318 317 317 317 316 315 317 316 317 317 317 317
303 305 307 306 309 309 311 312 312 313 315 315 313 316 318 320 319 317 317 317 318 318 318 318 317 317 317 318 318 318 318 317 318 317 318 318 318 318 318 316 316 316 315 316 316 316 317 315 315 316 317 316 316 316
303 305 309 308 309 310 312 313 313 312 313 316 318 317 318 317 318 318 318 319 318 318 318 318 318 318 318 318 318 318 317 317 317 317 317 316 316 315 314 314 315 316 316 315 315 315 315 315 315 315 315 316 316 316
306 308 311 310 311 314 315 315 318 319 318 318 317 316 317 317 318 318 318 318 318 317 317 318 318 318 317 318 318 318 318 318 317 317 316 316 316 316 316 316 316 316 315 316 316 316 316 316 316 316 316 317 317 315
314 312 314 313 318 318 318 318 318 318 318 318 318 317 316 315 317 317 317 317 317 317 317 318 317 317 317 316 317 317 317 317 317 317 316 316 316 315 315 314 314 314 314 315 315 315 315 314 314 314 313 314 313 312
318 318 318 318 319 318 318 318 318 318 317 316 316 315 315 314 315 315 315 316 316 317 316 317 317 317 317 315 315 316 316 316 316 316 315 314 314 312 311 311 311 311 312 313 313 311 310 308 308 308 307 308 307 306
318 319 319 319 319 319 318 318 318 318 317 317 317 316 316 316 316 317 317 316 315 313 313 313 315 315 315 314 313 311 311 313 311 310 310 309 309 309 309 308 308 308 308 308 307 307 306 305 305 304 304 304 303 303

GFSWCAN_850_thetae_081.txt.gz
Theta_e
310 320 322 322 321 316 310 306 302 300 299 301 308 309 314 315 315 314 312 307 306 307 308 309 309 309 308 308 307 310 309 315 320 320 321 321 323 324 324 326 324 326 329 328 326 330 333 331 333 336 331 334 334 334
312 316 318 319 321 316 309 304 301 299 300 304 309 311 314 314 314 314 312 307 307 306 308 310 310 311 311 311 308 309 310 310 314 319 319 322 323 321 321 325 324 324 325 326 324 332 328 328 330 332 334 333 333 334
312 316 319 317 316 311 309 303 300 299 302 305 309 312 314 313 314 314 313 312 310 310 312 312 313 310 308 309 309 309 307 308 317 322 318 320 323 320 322 321 325 325 322 326 328 329 328 328 331 331 331 332 333 333
310 315 317 316 315 309 303 301 300 299 301 304 311 313 314 314 314 314 313 311 310 310 307 312 310 310 311 312 309 309 309 309 315 312 313 314 323 321 321 319 324 325 323 323 330 329 327 328 330 329 330 330 331 332
311 315 315 315 314 309 302 300 299 300 301 308 312 313 313 313 314 313 313 313 311 310 308 310 309 310 308 309 310 311 310 309 308 309 313 316 317 321 320 321 322 325 323 325 327 326 325 326 328 326 325 330 327 327
312 313 314 314 311 308 301 299 299 300 304 311 312 312 313 314 314 313 311 310 310 309 308 303 308 307 313 314 313 312 314 310 308 313 315 317 318 318 317 319 322 326 326 327 327 327 327 325 324 324 326 325 328 327
313 314 313 314 310 302 299 299 299 306 309 311 312 313 312 315 313 313 310 309 308 307 307 304 305 309 314 315 314 314 314 312 310 312 315 316 317 317 313 316 319 325 325 325 327 328 328 326 326 326 325 325 326 326
312 311 312 313 305 303 300 299 301 309 312 311 311 313 314 314 313 313 313 310 307 306 306 304 305 308 313 317 314 314 314 314 316 316 315 312 313 313 312 313 318 324 324 324 325 327 327 325 328 327 329 326 322 326
310 312 313 311 303 298 298 299 304 311 310 310 312 312 313 313 313 311 310 309 309 308 307 307 307 310 313 313 317 317 314 311 314 312 312 314 310 313 313 315 324 323 324 324 323 324 325 326 329 325 321 321 319 323
311 311 312 307 299 298 298 299 310 312 313 311 312 313 313 312 310 309 308 307 307 307 305 302 306 307 309 310 313 315 316 311 312 311 314 312 312 316 317 318 324 323 324 324 323 326 327 329 325 322 322 321 320 319
311 312 306 300 301 300 298 301 311 312 312 312 312 312 310 310 308 309 308 306 306 306 306 306 307 305 308 307 310 315 316 315 315 315 313 312 315 320 322 324 325 326 325 323 320 322 324 324 324 323 321 321 321 319
309 308 305 303 299 298 299 306 311 311 312 312 310 309 309 308 308 308 307 308 307 310 311 309 311 310 309 310 312 319 322 318 321 318 320 323 320 324 326 326 325 322 321 320 320 321 323 325 324 323 322 322 322 320
304 301 302 303 303 298 307 310 311 312 312 309 311 310 309 308 305 311 313 312 310 312 314 313 309 311 309 309 319 319 322 321 318 321 322 319 323 323 322 324 324 324 325 325 325 325 325 324 324 324 324 324 324 323
300 297 296 296 297 301 310 311 311 311 310 311 311 308 309 310 309 308 310 309 313 314 314 313 311 310 311 314 317 321 320 319 323 321 322 320 323 323 324 325 324 324 324 325 325 325 325 325 325 324 323 322 323 322
298 296 296 296 297 304 310 310 311 310 311 311 310 309 308 310 311 313 313 312 313 313 314 313 311 310 307 318 317 317 320 322 322 323 320 325 324 324 325 325 324 324 324 323 323 323 323 323 323 322 321 321 320 319
296 296 296 297 299 308 309 310 310 310 309 310 311 311 312 310 311 313 314 314 314 315 313 311 308 309 315 317 319 321 320 319 318 318 321 324 323 323 324 324 323 323 322 320 317 316 318 319 322 322 322 321 319 321
297 297 296 297 302 308 308 309 308 308 309 309 309 310 311 311 312 313 313 315 315 315 312 310 310 311 312 316 319 316 318 318 319 316 322 324 325 324 323 322 320 319 319 318 318 319 320 320 319 320 321 320 321 321
299 299 297 303 305 305 307 307 307 307 308 308 308 308 310 312 311 312 313 314 315 315 315 313 313 314 314 316 316 315 318 320 320 316 318 323 321 324 322 320 320 321 321 320 320 319 320 320 320 318 318 318 318 320
295 295 299 305 306 305 305 305 306 307 307 307 308 308 309 309 309 312 313 314 314 314 314 314 312 312 313 316 316 318 318 319 321 319 317 315 322 323 323 322 321 321 321 321 321 321 321 321 321 321 322 321 319 318
294 295 303 305 305 304 305 305 306 306 308 310 310 310 310 310 309 310 312 314 314 314 313 312 312 316 317 317 317 317 317 318 320 320 318 319 321 322 322 323 322 322 321 320 321 319 319 318 319 318 317 318 321 319
295 300 305 304 305 305 306 305 305 306 307 308 308 310 312 311 310 311 313 315 315 314 312 314 315 315 316 317 317 316 318 318 319 317 317 319 320 321 320 320 320 320 320 320 320 320 320 318 317 317 318 320 320 320
299 302 303 305 305 305 306 307 307 308 308 307 308 312 313 312 313 315 315 315 315 315 315 315 316 316 316 316 316 316 316 319 319 319 318 319 320 320 320 320 319 320 320 319 320 319 318 318 319 319 320 320 320 320
301 302 303 303 305 306 306 308 309 309 308 309 312 312 312 313 315 314 313 314 315 315 315 315 314 314 315 316 317 317 316 316 318 319 320 320 320 319 319 318 318 318 319 319 318 317 316 318 318 318 318 318 319 319
301 302 303 304 304 305 307 309 310 310 311 310 309 311 311 313 314 313 311 314 314 315 314 314 313 314 314 313 315 314 316 317 319 319 319 320 320 319 317 319 319 316 316 317 317 317 316 316 316 317 317 317 317 318
304 304 305 304 306 308 309 309 309 309 310 309 311 310 312 314 312 312 313 314 315 315 316 315 314 314 314 314 314 316 319 319 319 319 319 318 318 317 317 317 317 318 318 316 316 317 317 317 316 316 316 316 316 316
298 305 305 306 307 308 310 310 308 308 309 311 311 313 314 314 314 316 316 315 315 315 315 315 315 314 315 318 318 318 319 317 316 317 318 318 317 317 317 318 318 317 317 317 317 317 317 316 315 316 317 316 316 317
301 304 305 306 308 309 310 310 310 310 312 313 313 313 313 312 313 315 315 316 316 318 318 318 319 318 318 318 318 318 316 317 318 318 318 318 318 317 317 317 316 316 316 317 316 316 316 316 315 315 315 316 316 316
302 304 305 306 308 309 310 311 311 312 311 312 312 314 314 317 317 318 317 317 318 318 318 318 318 318 318 317 318 318 318 318 317 317 317 317 316 316 317 316 316 316 316 316 316 315 315 315 316 316 316 315 315 315
304 305 307 308 309 309 310 312 312 311 310 313 316 318 318 318 318 318 318 318 318 318 318 317 318 318 318 318 318 317 317 317 317 317 316 315 315 315 316 315 315 316 315 315 315 315 315 315 316 315 316 316 316 316
305 307 310 308 308 309 310 311 313 316 313 317 317 317 317 317 318 318 317 317 317 317 318 317 317 317 318 317 317 317 317 317 316 316 316 316 316 315 315 314 314 314 314 314 313 313 314 314 315 315 315 315 315 315
308 308 312 311 312 315 314 317 316 316 316 316 317 317 316 316 317 317 317 316 316 317 317 317 316 316 316 316 316 316 316 316 317 317 316 314 313 313 312 310 310 311 311 312 313 312 311 311 310 310 310 312 311 310
310 311 314 315 317 317 317 316 316 316 315 315 314 315 315 315 315 316 315 312 312 313 314 316 316 316 315 314 314 314 313 314 314 313 312 311 309 309 309 308 308 307 307 307 307 306 305 305 304 305 305 305 304 303
316 317 317 317 317 317 316 315 316 315 315 315 315 314 314 313 313 309 309 309 310 310 311 313 312 311 311 310 310 311 310 309 309 309 308 307 307 307 307 306 306 306 305 305 304 302 302 302 301 301 300 300 299 299

GFSWCAN_850_thetae_084.txt.gz
Theta_e
303 303 306 310 317 319 321 319 311 306 303 300 300 304 310 312 313 315 313 311 307 306 307 308 308 308 309 307 305 307 307 311 313 320 320 319 322 322 322 322 326 322 326 325 324 330 331 328 332 334 331 332 332 332
303 303 305 311 316 318 318 318 310 303 301 299 300 306 312 312 314 314 314 311 308 307 309 309 310 310 309 309 310 309 307 308 308 317 316 318 323 321 319 322 321 324 324 326 323 327 326 327 329 331 332 332 332 333
303 304 306 308 313 316 317 316 309 306 300 300 303 308 311 312 313 313 313 311 309 309 311 311 314 312 309 310 310 309 309 310 309 320 315 317 322 318 321 319 321 323 321 325 326 326 326 327 330 330 330 331 333 333
304 304 309 313 313 315 316 314 307 302 299 301 304 309 311 313 312 313 314 312 310 310 307 312 311 312 312 311 311 310 310 308 312 312 309 309 318 319 320 317 320 321 322 322 325 327 327 327 329 325 329 331 332 329
304 304 307 314 314 315 315 314 302 300 300 301 304 310 312 313 314 313 313 313 312 311 308 311 310 308 307 311 311 310 309 308 308 307 308 312 315 318 318 317 321 323 324 325 326 325 325 325 328 326 326 328 329 328
304 304 310 311 314 315 314 305 301 300 300 302 309 311 312 314 314 313 312 311 310 309 308 304 308 308 310 312 309 309 308 307 307 307 308 314 316 319 313 315 318 323 324 324 326 327 327 325 325 325 325 325 325 327
304 303 307 312 313 314 312 307 300 300 302 307 311 311 313 313 314 313 310 309 309 307 306 303 304 307 310 313 313 311 308 307 307 309 310 313 314 315 312 313 316 317 326 326 327 327 327 326 325 325 325 325 325 325
303 308 310 312 313 313 302 299 299 301 305 311 310 314 313 313 314 313 313 311 307 307 305 304 304 308 311 314 311 312 309 307 310 314 313 312 312 312 312 313 315 316 324 324 326 326 326 326 325 325 327 324 321 320
307 310 312 312 312 310 299 299 300 306 310 311 313 313 313 313 313 312 310 310 310 309 306 306 307 309 312 310 314 315 312 309 311 310 309 312 311 313 313 315 316 321 324 324 325 325 325 325 328 328 321 321 320 321
306 308 311 311 311 303 301 301 302 310 311 311 312 311 313 313 311 310 308 307 308 308 307 302 304 305 308 307 309 313 314 309 312 310 312 310 312 315 317 317 316 322 323 324 323 323 324 325 328 324 322 320 320 319
309 310 310 311 310 299 298 299 307 304 309 311 311 312 310 310 307 307 307 305 305 305 304 303 303 304 307 305 305 312 314 314 315 314 314 312 313 313 319 319 320 323 323 324 322 320 324 323 325 323 322 320 321 320
310 310 310 310 305 299 299 307 310 311 311 311 310 309 309 308 307 307 306 306 305 308 309 307 309 308 309 307 310 314 320 318 320 317 321 321 317 323 323 324 325 325 323 320 319 319 323 326 324 323 322 321 321 321
309 310 310 301 299 299 299 301 309 310 312 309 310 309 309 307 304 310 311 311 309 310 312 312 309 309 308 307 311 316 319 321 317 320 323 320 321 322 322 323 321 321 323 323 322 322 321 323 324 324 322 322 323 323
309 308 304 301 298 298 300 308 310 311 310 311 311 306 307 309 308 307 309 309 311 312 313 312 309 309 309 310 313 320 318 318 321 322 320 317 321 322 324 325 324 325 325 325 325 325 324 324 325 325 324 322 322 322
304 304 302 300 300 301 307 310 310 309 310 310 311 308 308 309 310 311 312 311 313 313 312 312 309 308 306 316 315 316 319 321 321 322 319 318 322 322 323 324 325 325 325 324 324 324 323 323 322 322 321 321 321 320
299 297 297 300 300 304 308 309 310 310 309 310 310 311 310 309 311 312 312 312 314 314 313 310 307 307 313 315 318 320 320 320 318 316 317 322 323 323 322 324 323 323 322 320 317 317 318 318 320 320 320 319 320 320
300 297 298 302 308 308 308 308 309 309 309 309 308 309 310 310 310 312 311 313 314 314 310 308 309 310 310 315 316 315 317 316 318 316 320 322 321 321 321 322 322 319 317 318 318 319 320 319 318 318 319 319 318 321
296 297 299 305 307 308 307 307 307 307 308 308 307 308 309 310 311 310 311 312 314 314 314 313 311 313 313 316 316 314 317 319 320 317 315 316 315 317 321 320 319 319 320 320 320 320 319 320 320 319 319 319 319 318
296 298 300 306 307 305 305 306 306 306 307 307 307 307 307 307 308 310 311 313 314 314 313 314 312 311 312 314 315 317 317 317 320 317 316 315 316 318 320 321 319 319 321 320 321 321 320 319 319 321 321 320 320 320
301 305 306 306 305 304 305 305 305 306 306 309 309 309 308 308 308 310 309 311 314 313 312 311 310 313 315 314 316 317 316 317 319 319 317 316 317 320 319 320 320 320 320 320 320 320 319 319 318 318 318 318 317 319
301 304 304 304 305 305 305 304 305 305 306 307 307 308 310 310 311 309 310 312 314 313 311 313 312 312 313 314 317 317 317 318 318 318 318 319 319 320 320 321 320 321 320 321 320 320 319 318 317 317 318 319 320 320
303 304 304 304 304 305 306 306 306 307 306 307 307 310 311 311 311 313 314 314 314 314 313 313 314 314 316 316 316 316 316 316 317 317 319 318 319 320 320 320 319 319 318 318 319 318 315 314 316 317 317 318 318 318
303 303 303 303 304 305 305 308 309 308 307 308 310 310 310 311 313 314 312 312 313 314 314 315 315 315 315 314 315 316 317 316 316 318 319 319 319 319 319 317 317 316 316 317 317 316 315 315 315 315 316 316 317 317
302 302 302 303 304 303 306 308 309 309 309 308 308 310 309 311 313 312 310 312 313 313 314 314 314 314 314 314 313 314 315 316 317 317 318 319 319 317 316 316 319 317 316 315 316 315 316 316 315 315 316 316 316 316
303 304 303 303 305 306 306 307 307 307 308 307 310 309 310 313 310 310 311 313 314 315 315 315 315 314 314 314 314 315 316 318 318 318 318 318 318 317 317 316 317 318 317 317 316 317 317 316 316 315 316 316 316 316
297 304 304 305 307 308 308 308 307 307 307 309 310 312 314 313 313 314 314 313 314 315 317 315 315 314 314 315 317 317 317 316 316 318 317 317 317 318 317 317 317 317 317 317 317 316 316 316 315 316 315 315 316 316
301 304 305 305 307 308 310 310 309 309 311 312 312 312 312 312 312 314 315 316 317 317 318 317 317 317 317 317 317 317 317 316 317 318 318 317 317 317 317 316 316 316 315 316 316 316 315 315 315 316 316 315 315 315
302 303 304 305 307 308 309 310 311 311 311 311 311 312 311 312 318 318 317 317 317 318 317 317 318 318 318 318 317 317 317 317 317 317 315 315 315 316 315 314 314 315 315 315 315 315 315 315 315 315 315 315 315 315
303 305 307 308 308 308 307 309 310 308 308 308 310 313 316 317 317 317 317 318 317 317 317 317 318 318 317 317 317 317 317 317 316 316 316 316 315 314 314 313 311 311 312 313 313 313 313 313 314 315 315 315 315 315
305 306 309 308 307 308 307 306 308 310 311 310 315 316 315 313 315 317 317 317 317 316 316 316 317 317 317 317 317 317 316 316 316 316 315 313 311 310 309 309 309 309 310 310 311 311 311 310 310 310 310 312 311 310
308 308 310 309 310 313 312 315 316 316 316 316 316 316 315 312 309 309 311 314 316 317 316 315 315 315 315 315 315 314 314 313 313 312 311 310 309 308 308 307 307 306 306 306 306 306 305 305 305 305 305 306 304 303
308 309 312 315 316 315 315 315 315 315 315 315 315 315 314 311 310 308 309 309 310 313 314 313 312 311 311 311 311 311 310 310 310 309 308 308 307 306 306 306 305 305 304 303 302 302 301 301 301 301 301 300 300 300
313 314 316 316 316 316 316 315 315 315 314 314 314 314 313 312 311 308 308 308 309 310 310 310 310 310 310 310 309 309 309 308 307 306 306 306 305 305 305 304 303 302 302 301 301 301 301 300 300 300 299 299 299 299

GFSWCAN_850_thetae_087.txt.gz
Theta_e
301 301 302 303 303 311 314 318 319 319 315 305 301 300 301 309 312 312 314 313 310 306 310 309 309 309 309 309 312 311 311 313 314 326 327 326 328 327 328 326 330 329 332 333 332 335 332 330 332 336 334 334 333 334
301 301 302 303 303 311 311 314 317 317 312 304 300 300 302 310 311 312 314 313 312 308 309 312 312 310 309 309 310 310 309 310 311 324 323 324 329 327 326 327 326 330 328 331 332 334 330 329 330 330 332 334 334 335
302 301 301 303 303 310 314 315 316 316 309 302 300 301 306 310 311 312 312 312 310 309 311 311 313 312 312 311 309 310 310 311 309 315 319 324 327 326 327 325 325 326 325 332 331 331 331 329 330 327 329 333 334 334
302 302 301 303 303 308 310 315 315 314 307 302 304 304 309 310 311 312 312 313 312 310 310 313 311 312 311 311 310 310 310 308 309 309 312 315 319 320 323 323 324 325 326 328 330 329 330 330 327 328 330 331 333 333
302 302 301 304 305 310 309 313 314 312 302 300 303 305 310 310 312 311 314 313 312 311 312 312 311 309 306 308 310 310 309 309 309 309 312 315 317 321 323 322 326 326 327 327 330 328 329 328 327 327 328 327 329 329
301 302 302 304 308 312 313 313 314 310 300 301 302 308 310 311 311 313 313 312 313 311 308 311 310 308 307 309 307 309 308 307 308 309 311 312 313 320 320 320 321 322 319 323 328 327 327 327 326 324 325 324 326 329
301 302 302 302 308 312 313 314 310 300 300 302 306 309 311 311 313 314 311 309 309 308 307 308 309 307 307 310 307 306 307 307 308 309 311 313 315 316 317 318 318 317 316 321 325 327 328 326 327 325 325 326 325 324
301 301 302 304 309 312 312 313 301 300 302 303 308 310 310 313 312 313 313 312 307 307 306 308 309 310 310 313 311 307 307 307 308 311 313 316 313 315 319 318 318 316 315 322 325 327 326 326 325 324 326 323 320 320
301 302 304 306 308 311 312 310 302 301 302 310 310 312 312 312 313 313 312 311 311 307 309 307 312 313 311 309 314 311 309 313 311 315 316 315 317 317 318 319 319 317 321 324 324 326 326 325 325 327 323 321 319 320
301 303 307 307 310 311 309 300 301 304 311 313 313 310 312 313 312 309 308 308 308 308 308 307 305 311 308 309 312 315 315 316 317 316 313 316 317 316 316 317 315 316 321 323 325 324 323 324 325 328 321 320 320 319
301 305 308 309 310 309 303 301 309 310 310 310 309 312 311 311 308 307 307 306 306 307 305 306 304 308 306 311 311 314 320 320 321 320 320 319 319 320 322 320 317 316 318 323 324 320 321 323 325 326 322 320 321 321
304 306 308 309 310 309 304 302 310 310 309 310 311 309 309 308 307 309 309 308 308 311 309 309 310 307 309 307 312 316 323 323 324 320 325 325 324 322 323 324 323 322 323 323 321 319 320 325 326 324 322 321 321 321
306 307 308 309 303 299 300 309 310 309 311 309 309 309 308 307 308 310 311 312 313 312 312 311 313 310 308 307 311 321 322 324 320 323 325 324 320 322 323 323 322 321 322 322 322 321 321 324 324 323 323 322 322 323
308 308 308 308 304 300 301 310 306 310 310 311 311 308 311 311 311 311 313 313 313 312 313 313 312 311 309 313 315 323 322 321 322 323 323 323 319 322 323 324 325 325 324 324 324 324 324 324 324 324 324 322 321 320
307 308 307 301 299 301 309 310 307 309 310 311 311 312 311 310 310 311 311 311 312 312 312 312 311 310 313 318 321 321 321 322 323 321 322 319 321 321 321 323 324 324 323 324 323 323 322 321 320 320 320 320 319 319
306 303 301 301 300 299 304 307 309 310 309 310 310 312 311 312 313 312 311 312 312 312 312 310 312 313 316 320 320 321 320 321 322 321 318 321 320 317 319 322 322 322 322 318 316 318 318 318 318 318 318 317 317 319
304 302 300 300 302 305 306 308 308 308 309 310 310 310 310 311 312 312 311 311 312 313 316 313 313 314 316 318 320 320 320 322 321 319 316 321 320 317 315 319 321 321 318 318 318 319 319 318 318 318 318 318 318 317
303 303 303 301 303 306 305 307 307 307 308 308 309 308 309 309 310 310 309 312 313 314 315 316 314 316 317 317 319 319 320 318 318 319 317 316 315 316 318 320 320 319 319 319 320 320 320 320 320 320 320 320 320 320
299 301 302 302 305 305 306 306 306 307 307 307 307 307 307 307 307 308 309 310 314 313 314 315 316 316 318 319 319 318 317 317 318 318 318 316 315 315 319 320 320 320 320 320 320 321 321 319 319 318 318 319 318 317
300 305 305 305 306 305 305 305 306 306 308 309 308 308 307 307 307 308 309 310 314 313 315 316 315 316 316 314 313 315 316 317 318 319 319 317 316 318 319 319 320 320 320 320 320 320 320 319 318 317 317 318 318 319
305 306 305 304 305 305 305 304 305 305 305 307 307 308 309 310 310 310 310 311 314 314 313 312 311 311 312 313 314 317 317 317 318 318 317 318 319 317 317 317 319 320 320 320 320 320 317 315 314 315 315 316 317 317
305 304 304 304 304 305 306 305 306 306 306 307 307 308 312 313 313 312 313 315 316 314 313 312 312 313 313 315 315 315 315 315 316 316 317 318 319 319 319 319 319 318 317 317 319 318 315 315 313 315 315 315 315 317
304 303 303 302 304 305 305 307 309 308 310 310 310 312 312 313 313 313 315 312 312 313 313 313 313 314 315 314 314 315 315 316 315 318 318 318 318 319 317 317 318 316 315 315 315 316 316 315 315 314 315 315 315 316
302 301 302 303 304 305 306 308 308 309 309 311 312 312 312 314 313 314 315 314 313 313 314 314 314 314 314 313 314 313 314 315 316 316 317 318 318 317 316 317 318 318 317 317 317 316 316 317 317 316 316 316 316 316
303 303 303 304 305 307 308 310 310 311 311 311 312 313 315 314 315 315 314 314 314 314 315 315 315 314 313 314 314 316 317 317 318 317 317 318 318 317 317 317 317 317 317 317 317 317 317 316 315 315 315 315 315 316
301 304 304 306 307 309 310 311 311 311 311 311 312 314 314 314 314 313 313 314 315 316 316 316 315 315 314 315 317 316 317 317 317 317 317 317 317 317 317 317 316 316 316 315 316 316 316 316 315 315 316 316 316 315
303 304 305 305 307 309 311 311 309 311 312 313 314 313 312 311 310 312 314 316 317 316 315 315 316 316 316 316 314 315 317 317 317 317 317 316 315 315 314 314 314 314 314 314 314 314 315 315 315 315 315 315 316 316
303 304 306 306 308 309 310 312 312 312 313 311 311 312 312 309 316 316 317 317 317 317 317 317 318 318 317 317 317 317 317 317 316 315 315 315 314 313 313 311 310 310 311 312 312 312 313 313 314 314 315 315 315 315
304 305 306 308 308 308 308 310 310 310 308 308 310 312 314 316 316 316 316 316 316 317 317 317 317 317 317 316 316 316 316 316 316 316 315 313 311 310 309 308 308 308 308 309 309 310 310 310 310 311 312 312 313 313
306 306 308 306 306 307 306 307 309 310 310 310 311 310 310 311 312 316 316 315 315 316 316 316 317 316 316 316 315 314 313 312 312 311 311 310 308 307 307 306 306 306 306 306 305 305 305 304 304 305 305 305 305 303
307 306 308 307 307 310 308 310 312 312 313 312 310 311 310 309 309 311 313 313 314 315 314 313 313 312 312 312 311 310 310 309 309 308 307 307 306 306 305 305 304 303 303 302 302 301 301 301 301 301 301 300 300 300
308 310 312 315 315 315 315 315 315 315 314 314 313 311 310 310 312 310 308 310 311 311 310 310 310 310 309 309 309 309 308 308 307 306 306 305 305 305 304 304 303 302 301 301 301 300 300 300 300 299 299 299 298 298
314 315 315 316 316 315 314 314 314 313 313 313 313 313 313 312 310 307 308 309 309 308 308 308 308 308 308 309 308 307 307 306 306 305 305 305 304 304 303 302 302 301 300 300 300 299 299 298 298 298 297 297 296 295

GFSWCAN_850_thetae_093.txt.gz
Theta_e
301 301 301 301 301 301 301 302 303 309 315 316 317 318 310 304 302 303 314 315 315 316 316 317 317 317 317 317 319 320 320 320 319 322 322 323 326 330 331 328 331 329 333 334 335 334 335 332 334 336 338 334 333 333
301 301 301 302 302 301 301 302 303 309 313 315 317 314 305 302 302 307 313 314 314 314 316 317 316 316 316 316 318 318 320 321 320 322 327 326 325 327 328 330 330 333 330 332 333 335 332 332 335 335 334 332 333 334
300 301 301 301 302 302 301 302 303 310 314 315 316 312 307 303 305 308 313 313 313 313 314 315 316 317 316 316 316 316 317 319 319 318 323 325 327 325 327 329 330 328 328 330 330 331 331 332 332 333 331 332 332 332
300 300 301 301 301 302 301 302 303 311 313 314 316 310 302 302 308 309 311 313 312 314 316 318 317 315 316 315 315 315 316 317 316 318 318 322 323 324 323 325 325 327 327 328 326 327 330 332 331 332 332 330 329 329
300 301 300 301 301 302 302 302 305 310 312 314 315 306 300 302 309 310 311 312 313 313 318 319 318 317 316 316 316 314 315 316 316 316 317 319 318 321 322 323 324 326 327 327 326 329 331 331 330 330 326 331 330 328
300 300 301 300 301 301 302 303 307 311 310 314 313 308 305 308 309 311 314 314 313 313 314 319 318 317 313 313 313 315 315 316 316 317 317 317 317 318 321 322 324 325 325 323 323 328 329 326 322 325 326 329 326 324
300 300 300 300 301 301 302 303 308 311 313 313 303 305 308 309 310 313 314 313 313 314 315 317 318 316 314 315 315 315 315 315 315 316 316 316 317 318 321 320 319 319 322 322 322 330 328 331 329 326 328 327 326 327
300 300 301 300 301 302 302 306 309 311 310 307 305 307 308 310 312 311 313 310 312 314 314 317 318 316 314 316 316 315 315 315 315 315 316 318 318 319 320 320 319 319 319 322 324 330 328 325 329 327 328 325 324 325
300 300 301 301 301 302 304 308 309 311 307 304 306 309 310 311 311 312 312 312 312 313 314 316 318 320 316 318 317 314 315 318 316 319 318 319 321 321 321 321 320 322 323 326 327 328 327 326 327 327 326 325 324 326
300 301 301 301 301 302 306 309 310 306 303 306 309 311 311 312 312 312 311 313 312 314 314 316 316 318 317 317 319 318 317 319 321 321 318 321 321 324 327 328 327 324 323 325 327 326 327 327 327 329 327 325 325 326
301 301 301 302 301 303 307 309 304 304 307 308 310 311 312 312 312 311 312 313 314 315 315 315 315 317 316 318 319 319 324 322 322 322 321 322 329 329 329 328 328 327 325 323 327 328 327 326 325 329 326 325 327 327
301 301 301 301 302 305 309 307 303 304 306 310 311 311 311 312 312 314 314 315 315 316 315 314 315 315 316 316 319 319 322 324 324 321 326 326 327 326 329 329 329 326 323 324 325 328 326 326 324 325 325 326 327 328
302 302 301 301 304 308 308 303 305 310 309 312 312 312 313 313 315 315 316 316 317 316 317 317 319 317 316 315 318 320 323 322 323 325 327 329 326 327 328 329 330 328 328 327 326 326 327 326 326 327 328 328 328 327
301 301 302 304 307 308 309 303 306 310 310 310 312 318 315 315 316 316 317 317 317 318 318 318 318 317 316 317 319 319 320 323 325 325 326 327 327 327 328 327 328 329 328 327 327 326 326 327 328 327 327 326 324 323
302 303 305 306 307 308 303 304 309 309 309 312 314 319 316 315 315 315 316 317 317 318 318 318 319 318 317 319 319 320 322 320 324 327 327 325 325 325 327 326 327 327 326 326 325 325 324 324 324 323 322 322 322 323
304 306 307 307 306 305 304 307 308 309 310 313 314 316 315 316 316 315 316 318 318 318 318 319 320 318 318 319 321 320 320 324 325 323 322 325 324 324 323 323 324 325 324 321 323 323 322 322 323 323 323 323 323 322
305 306 308 305 304 305 307 308 308 308 311 313 314 315 316 316 316 316 317 318 318 318 319 318 318 316 319 318 321 321 324 323 321 321 321 324 324 323 323 323 324 323 322 321 321 323 323 322 323 323 323 323 323 322
307 305 305 305 305 307 308 307 308 310 313 313 314 315 316 316 317 317 317 318 319 319 318 320 318 317 319 319 321 320 320 319 319 320 320 323 323 323 323 322 323 319 318 320 323 323 322 324 323 323 323 324 324 322
306 302 304 305 307 306 306 307 309 312 313 314 314 315 315 316 316 316 317 318 318 318 319 318 320 320 321 319 319 317 316 316 317 318 321 323 322 321 321 321 322 321 321 320 321 323 323 321 321 322 321 320 320 319
304 303 306 305 307 309 310 310 311 313 312 314 314 315 315 315 316 316 316 317 317 317 317 318 319 318 317 317 316 316 318 318 318 320 322 321 321 320 321 321 320 320 320 320 322 322 322 322 319 319 319 318 318 319
303 304 305 306 308 310 310 311 311 312 312 313 314 314 315 315 315 316 316 316 317 317 317 316 316 319 319 318 317 318 320 320 321 322 322 320 319 319 318 319 319 319 319 320 320 321 320 319 319 317 318 318 318 318
304 304 305 308 310 310 310 311 310 311 313 312 313 314 314 315 315 315 316 315 315 316 317 317 317 318 316 319 319 320 321 321 321 322 320 318 319 317 318 317 317 322 321 319 319 319 318 318 318 317 318 318 318 318
306 307 307 308 308 308 309 312 312 312 313 313 313 314 314 314 314 315 314 314 315 318 318 316 318 318 317 318 319 319 320 321 320 321 321 319 318 317 318 320 320 320 319 319 317 317 318 318 318 318 318 318 318 318
306 308 309 309 309 310 311 312 312 313 313 313 314 314 314 315 315 314 315 315 316 317 317 318 317 316 317 319 317 318 319 319 319 319 318 316 316 318 321 318 318 319 319 319 319 318 319 318 319 319 318 318 319 318
305 307 308 305 309 310 312 312 312 313 313 314 313 314 316 314 315 315 316 318 316 316 317 319 318 318 318 318 318 320 319 319 318 318 319 320 318 318 318 318 318 318 317 316 317 318 317 317 317 318 318 318 318 318
307 308 308 309 310 311 312 312 313 313 313 313 314 315 315 315 314 313 313 313 315 316 316 318 319 319 321 320 320 319 320 320 319 320 319 317 316 316 316 316 316 315 314 315 315 315 316 316 316 317 317 317 317 318
309 309 309 310 312 312 312 312 312 313 314 316 316 315 313 312 311 311 314 316 315 316 318 319 318 318 319 319 319 319 320 320 320 319 317 316 315 315 314 313 312 310 311 312 311 311 312 312 313 313 313 313 313 313
308 310 310 311 312 312 312 313 314 315 315 314 314 314 313 313 316 316 318 319 319 318 317 316 316 317 318 320 320 318 319 320 320 319 318 316 314 312 312 311 311 309 309 308 307 308 307 307 308 308 308 309 309 309
310 310 311 312 312 313 313 314 313 312 312 311 311 312 314 313 314 317 318 317 318 319 318 317 318 317 316 315 315 315 314 314 314 314 314 314 313 312 310 309 308 308 307 307 307 306 305 305 306 306 306 307 306 306
310 310 311 311 312 313 312 312 311 311 311 311 311 312 312 312 313 315 317 317 316 318 317 316 315 314 313 314 313 313 313 312 312 312 312 311 310 309 308 308 307 307 306 306 306 306 305 306 306 306 306 305 304 303
310 310 311 312 312 310 310 311 311 312 311 312 312 311 312 313 314 314 314 313 313 313 313 313 313 312 313 313 312 312 312 311 310 310 308 309 308 307 307 307 306 306 306 306 306 305 304 305 305 304 304 302 301 300
308 310 313 312 311 311 311 312 314 315 314 314 314 314 314 314 313 312 312 313 313 312 311 312 312 312 311 311 311 310 308 307 305 305 305 305 305 304 304 305 305 305 305 305 305 304 303 303 302 301 300 299 298 297
314 314 314 314 313 314 316 315 315 315 316 316 316 314 313 313 313 312 311 311 311 311 312 312 312 311 310 309 309 309 308 307 306 304 304 303 303 302 302 302 303 304 304 304 303 302 301 300 299 298 298 297 296 296

GFSWCAN_850_thetae_096.txt.gz
Theta_e
301 301 301 301 302 301 301 301 301 302 303 306 313 317 318 318 310 306 307 317 317 318 318 318 319 319 319 319 320 319 321 322 322 321 322 323 323 327 330 331 330 334 336 335 336 337 337 333 333 337 335 335 333 334
301 301 301 301 302 302 302 301 301 302 303 308 313 315 316 315 306 303 304 316 316 316 316 316 317 318 318 319 319 320 321 321 324 323 324 328 329 328 330 328 331 333 331 332 332 333 334 332 334 334 334 335 334 334
302 301 300 301 301 302 302 302 301 301 303 309 313 314 316 311 303 304 310 315 316 315 316 317 317 317 316 315 317 318 318 318 320 321 321 325 329 326 328 328 329 328 324 330 332 331 332 333 332 333 334 334 332 327
302 301 300 300 301 301 301 302 302 302 304 310 313 315 314 306 305 304 309 313 315 314 316 318 319 319 319 318 317 317 317 318 319 320 321 322 324 323 325 325 326 327 330 329 331 328 328 330 333 333 330 330 330 332
301 300 300 300 301 301 301 302 302 302 305 311 313 314 312 305 302 305 309 313 314 315 317 317 318 320 318 318 318 318 317 317 318 319 319 320 319 321 321 322 322 327 329 328 328 328 331 332 332 329 325 324 322 328
301 300 300 300 301 301 301 301 302 303 308 311 311 313 308 301 302 309 312 314 314 315 314 318 317 317 318 316 315 315 316 317 318 319 319 319 319 319 321 322 323 324 325 325 326 325 331 328 329 328 327 325 326 327
302 301 300 300 300 301 301 302 302 306 310 311 312 312 306 305 308 312 314 314 315 314 315 319 319 317 317 316 317 317 317 317 317 318 318 318 319 318 320 321 321 320 324 324 324 327 330 328 329 328 327 324 328 328
302 302 300 301 300 301 301 302 303 307 310 311 312 305 305 309 309 312 313 310 312 315 316 319 319 319 316 317 318 317 318 317 317 317 317 318 318 318 320 320 320 320 320 321 321 325 329 327 330 325 324 326 328 325
302 301 300 301 301 301 301 302 305 307 311 309 308 310 310 311 310 312 314 313 313 314 316 318 318 322 318 317 318 317 316 318 316 318 317 317 320 321 322 322 321 322 324 323 325 324 326 326 327 322 326 327 328 326
302 300 300 301 301 301 301 303 308 310 310 307 306 308 311 310 313 312 312 314 314 314 314 315 316 319 319 318 320 319 317 318 320 320 319 321 321 326 329 329 327 326 324 324 324 326 326 326 328 327 326 325 326 326
300 300 300 301 301 301 302 305 308 309 306 308 309 311 314 312 312 313 314 314 315 316 316 315 315 318 318 320 320 319 321 323 324 322 323 322 328 327 327 331 331 327 326 324 326 326 322 324 325 328 325 325 325 326
300 301 301 301 302 301 303 306 307 308 307 310 311 312 311 312 313 314 315 315 317 319 317 317 316 317 318 318 320 321 323 323 324 322 325 327 327 321 321 327 331 327 325 325 324 321 321 323 324 326 326 328 329 327
301 301 301 301 301 302 305 306 305 308 309 311 311 311 312 313 315 315 317 318 318 317 318 315 318 317 317 318 319 320 322 326 323 326 324 329 328 326 327 326 331 330 328 328 327 324 326 324 329 329 328 328 327 326
302 302 302 302 302 303 306 305 308 306 311 311 313 315 316 316 317 317 318 318 318 318 317 318 319 318 318 318 319 320 320 323 326 325 326 328 328 328 329 328 328 329 328 324 327 327 327 326 326 326 325 324 323 322
302 302 302 302 303 306 308 305 307 310 309 313 315 317 317 316 317 317 317 319 319 319 319 320 321 319 318 319 319 320 322 323 326 327 325 325 327 326 327 326 327 327 327 327 326 325 324 324 324 323 323 323 323 323
301 301 302 304 307 306 303 305 307 309 309 312 315 317 317 317 317 317 318 318 318 319 319 320 322 320 320 319 322 322 323 327 326 319 322 324 326 326 325 324 324 325 326 326 324 325 324 323 324 323 323 324 324 323
304 305 306 307 307 307 305 306 308 308 308 314 316 316 317 318 317 317 317 318 319 320 320 319 320 318 319 320 323 324 324 323 321 323 322 326 325 325 325 324 324 324 324 324 322 323 323 323 324 324 325 323 323 323
306 307 307 306 306 306 305 307 308 308 312 313 316 316 318 318 319 319 317 318 318 317 320 322 320 319 320 322 324 323 321 321 320 320 325 325 324 324 324 323 324 323 322 319 320 323 323 324 324 324 322 322 322 321
307 306 305 305 306 308 308 308 309 313 315 314 315 316 315 318 318 318 318 320 316 314 316 320 321 323 322 319 319 319 318 318 317 321 323 324 324 323 324 323 323 323 320 318 318 319 320 322 324 323 323 321 320 319
306 306 306 306 309 310 311 311 311 314 314 314 315 316 317 318 318 318 317 318 319 316 317 321 322 320 319 318 318 319 320 319 320 322 324 322 321 322 323 322 320 319 320 320 319 318 320 321 320 321 320 319 319 319
305 306 307 308 310 311 311 312 313 314 314 315 315 316 317 317 317 317 317 317 318 319 319 319 320 320 320 320 320 320 321 320 322 323 322 322 321 320 319 319 320 319 320 320 319 319 320 321 320 318 318 320 319 319
306 306 308 309 311 312 312 313 313 314 314 314 315 316 317 317 317 316 317 317 318 318 319 319 320 319 317 321 320 320 321 322 323 323 319 319 318 319 318 318 317 321 319 319 318 318 319 320 318 318 319 319 318 318
308 309 310 310 310 309 312 314 314 314 315 314 315 315 316 316 316 317 316 317 317 319 317 318 319 318 318 317 319 321 320 321 320 322 321 319 317 318 318 321 321 321 320 320 320 320 319 320 318 317 318 318 319 320
308 309 311 311 310 311 313 314 314 314 314 314 315 316 316 317 317 315 316 317 319 319 319 319 318 317 319 319 320 321 321 320 319 319 317 317 318 318 319 319 319 318 318 318 317 318 318 318 318 318 319 319 318 318
306 309 309 306 312 312 313 313 313 314 315 315 315 316 317 316 317 317 319 319 318 318 318 319 319 319 320 320 320 321 322 319 318 319 319 319 318 317 318 316 317 316 316 316 316 316 316 316 317 318 318 318 317 316
307 310 310 312 312 313 313 313 315 315 315 315 317 317 314 315 315 315 313 315 316 316 318 320 320 321 321 319 320 320 316 320 320 318 318 317 317 316 315 315 315 312 312 314 312 312 312 312 312 313 313 313 313 313
310 311 312 313 313 313 314 314 314 316 317 318 317 314 314 313 312 312 313 316 317 319 318 317 318 319 320 319 320 320 320 321 320 318 316 316 314 314 313 313 312 310 311 311 309 309 309 308 309 308 309 309 310 309
311 313 313 314 314 314 314 315 316 316 316 315 314 315 315 316 317 315 317 320 317 316 318 319 317 316 319 318 318 317 315 316 318 317 319 316 314 313 312 311 310 309 309 308 307 308 307 307 307 308 308 308 308 307
312 313 313 313 314 315 315 315 314 313 313 313 314 314 314 312 315 317 317 318 317 318 318 317 317 317 316 316 315 315 315 314 314 314 314 314 313 312 310 309 309 308 308 308 307 307 306 307 307 307 307 307 306 305
312 313 313 314 315 314 313 314 313 313 314 314 314 315 316 315 315 315 316 317 317 316 316 315 315 315 315 315 314 314 313 313 312 312 311 311 311 310 308 308 308 308 308 308 308 307 306 307 306 306 305 304 302 301
312 313 313 313 313 312 312 313 314 315 315 316 315 315 315 315 315 314 314 314 314 314 314 314 313 314 314 314 313 313 312 310 309 308 307 308 307 306 306 307 307 307 307 307 307 306 305 304 303 303 302 300 299 299
312 313 312 312 311 312 314 314 314 315 314 315 315 315 315 315 314 313 313 313 314 314 313 314 314 313 312 312 312 310 309 307 306 305 303 303 303 303 304 305 306 307 307 306 305 304 303 302 301 301 300 299 298 298
315 314 313 313 313 315 317 317 317 317 317 316 315 315 314 314 314 313 313 313 312 313 313 313 313 312 310 309 309 310 309 308 307 306 305 303 302 302 302 302 304 304 305 304 304 303 302 301 300 299 299 298 298 297

GFSWCAN_850_thetae_099.txt.gz
Theta_e
301 301 301 301 301 302 302 302 302 300 301 302 303 307 313 317 318 317 314 311 316 318 318 319 318 318 319 320 321 321 322 323 322 322 320 321 322 326 329 332 331 333 332 334 335 334 335 333 334 334 333 332 333 330
301 302 301 301 301 301 301 302 302 302 301 301 303 306 308 315 315 309 312 314 316 318 318 318 317 316 317 319 319 319 320 321 322 323 324 324 325 328 328 332 332 333 332 332 330 330 330 333 334 334 333 331 331 332
301 301 302 301 301 301 301 301 302 302 301 302 304 308 312 314 313 310 308 310 316 316 316 316 318 318 317 316 315 317 318 319 320 321 323 322 324 328 329 330 331 328 326 327 332 330 333 333 333 333 332 330 330 330
301 301 302 302 301 301 301 301 301 302 302 302 306 310 312 313 314 306 306 310 315 317 317 317 318 320 320 320 318 315 316 316 317 318 320 322 322 321 322 322 324 329 328 327 325 323 328 332 333 330 327 329 330 326
301 301 302 302 301 301 301 301 301 301 302 303 306 311 312 313 307 305 306 308 315 315 317 316 316 319 320 318 318 318 318 318 318 319 320 320 319 319 319 320 321 328 330 328 327 326 331 332 332 328 325 324 326 326
301 301 301 301 301 300 301 301 301 302 302 304 309 313 313 311 305 306 312 308 308 314 315 316 316 316 318 319 319 318 317 319 318 319 320 320 320 320 321 320 321 323 323 325 326 326 329 327 329 327 325 325 327 327
301 301 301 301 300 300 301 301 301 302 303 306 308 311 311 308 303 310 315 315 314 315 315 317 320 317 318 319 317 316 316 316 317 319 319 319 319 319 320 320 320 320 322 323 324 329 328 329 329 326 326 325 325 327
302 301 301 302 301 300 301 301 301 302 305 309 310 311 308 304 305 309 313 313 315 314 315 318 319 319 319 318 317 317 318 318 318 318 319 319 319 319 320 319 318 319 320 320 321 325 329 327 328 323 324 325 326 328
302 302 302 302 301 301 301 301 301 303 307 309 310 306 307 308 309 311 313 313 313 315 316 317 319 322 318 317 318 318 318 320 319 318 318 318 318 321 327 329 322 327 325 325 325 326 328 325 325 321 324 325 325 327
302 302 302 302 301 301 301 301 302 305 307 308 309 309 308 309 310 313 313 314 314 315 315 314 315 317 318 321 320 321 317 318 319 319 317 317 317 324 329 330 328 329 329 327 326 327 326 325 324 324 323 325 326 327
302 303 302 301 300 301 301 302 303 307 308 309 307 311 312 310 311 312 314 315 316 316 315 315 315 316 316 320 323 320 323 324 325 326 324 323 322 327 323 323 327 329 329 329 325 325 325 326 325 322 321 322 323 327
302 301 301 300 301 301 301 303 306 307 309 308 311 312 311 312 314 314 316 316 316 318 318 318 317 316 317 318 321 322 324 324 324 323 324 328 328 321 320 324 323 324 324 321 321 321 321 323 322 323 324 325 326 327
300 300 300 301 302 301 302 303 306 308 308 311 311 310 313 313 314 316 317 317 319 318 318 317 319 316 318 318 320 322 321 325 323 325 326 327 325 325 325 325 320 321 323 321 321 322 321 324 325 327 326 326 326 325
300 301 301 302 302 301 303 306 307 308 311 311 310 310 313 315 315 316 317 318 318 318 318 316 319 318 317 322 321 322 324 325 325 327 327 325 323 325 326 326 326 324 325 321 321 321 323 326 326 324 323 323 322 322
301 302 302 301 301 302 305 308 308 308 308 310 313 317 316 316 316 317 317 318 318 319 318 320 321 320 323 322 320 321 323 324 326 327 326 324 324 325 325 325 325 326 326 325 324 325 325 325 324 323 323 323 324 323
302 302 302 301 302 304 306 307 307 309 308 311 314 317 317 318 318 318 318 320 319 320 319 320 323 322 322 322 322 324 324 324 323 320 317 322 325 325 325 325 325 324 325 325 324 324 324 323 324 325 324 323 322 322
302 302 301 302 304 306 306 307 307 308 309 311 315 316 317 319 318 319 318 319 318 320 322 321 322 320 321 323 323 324 325 323 321 320 321 323 323 322 324 324 324 323 323 320 320 321 323 324 325 325 323 322 321 321
305 303 305 307 306 306 306 307 308 310 310 312 314 317 314 317 319 319 318 319 319 318 320 321 319 324 324 323 323 321 320 321 323 322 324 321 321 324 323 323 324 323 322 318 320 322 322 322 323 323 322 323 322 322
306 307 307 305 305 306 307 307 308 312 312 312 315 314 313 317 320 318 316 315 315 315 316 319 322 322 323 320 321 322 321 321 323 323 323 323 321 322 322 321 322 321 320 319 318 320 319 320 318 318 320 321 320 319
306 307 307 308 308 309 310 309 309 312 314 315 314 315 316 318 319 319 317 317 315 316 318 320 321 318 319 320 320 321 320 321 322 323 323 321 322 322 320 319 319 319 319 318 318 319 319 319 320 320 321 320 320 320
307 307 308 310 310 311 312 313 313 311 313 315 316 315 317 318 318 318 319 318 318 316 316 320 320 320 321 319 318 321 320 322 322 322 321 320 320 319 320 320 318 319 320 320 320 320 320 320 320 318 319 319 319 319
307 307 308 309 310 312 312 313 314 315 315 315 317 317 317 318 318 317 317 319 320 317 318 320 319 318 319 319 320 320 321 321 319 321 318 319 319 319 320 320 320 321 320 320 321 320 319 317 317 318 318 318 318 320
308 309 310 310 311 309 312 315 315 315 316 315 316 317 318 317 317 317 318 319 320 319 319 320 319 318 317 318 321 321 321 320 318 320 318 319 319 318 319 319 319 318 319 319 319 318 318 318 318 319 319 319 318 318
309 310 312 311 311 311 314 314 315 315 315 316 316 317 317 318 317 316 319 319 319 319 320 319 318 319 320 320 320 320 319 319 317 318 318 318 318 318 318 318 318 315 315 315 315 315 316 316 317 318 316 313 314 315
308 309 311 307 312 313 314 314 314 315 316 316 317 318 318 318 320 320 320 318 317 318 319 320 321 320 320 320 320 320 319 317 318 318 317 317 317 317 317 316 313 313 313 313 312 312 312 312 311 311 312 312 313 312
305 312 312 313 313 314 314 315 315 315 316 317 318 316 314 315 316 316 316 315 317 318 320 320 319 320 319 319 317 319 317 318 319 318 318 317 315 315 314 314 312 310 310 310 309 309 308 308 309 308 309 309 309 309
309 313 314 314 314 315 315 316 316 317 317 318 315 315 314 313 313 313 314 317 317 317 318 319 319 318 319 318 317 318 317 318 317 315 316 315 314 313 311 311 309 309 309 308 308 308 307 307 308 308 308 308 308 307
313 314 315 316 315 316 317 317 316 316 316 315 315 315 316 315 316 315 317 317 316 319 318 317 316 317 317 316 316 315 316 316 316 317 317 314 312 311 310 309 309 309 308 308 307 307 307 307 307 308 307 307 305 303
314 314 314 315 315 315 315 315 314 314 314 314 315 314 313 316 317 317 317 318 318 317 317 317 317 316 316 316 315 314 314 313 313 313 312 312 311 309 309 309 308 308 308 308 307 307 307 306 306 305 304 303 302 300
314 315 315 314 314 314 314 315 315 315 315 316 315 315 315 314 314 315 316 315 316 316 315 315 315 315 315 314 313 312 311 311 310 310 309 308 308 308 307 307 307 308 308 308 307 306 305 305 304 302 301 300 299 299
313 313 314 313 313 313 315 316 316 317 317 315 316 316 315 315 314 314 314 314 314 314 314 314 314 314 313 313 312 311 309 307 306 304 306 306 305 304 305 306 307 307 307 306 306 304 303 302 302 301 300 299 298 298
313 313 313 313 313 314 315 316 317 317 316 317 317 316 315 314 313 313 314 314 314 314 314 314 314 312 311 311 311 310 309 308 307 307 304 303 302 304 304 305 306 306 306 305 305 303 302 301 301 300 299 299 298 298
314 314 314 315 315 316 316 318 318 316 316 316 315 315 314 314 314 314 314 313 313 313 313 313 312 310 309 309 310 310 308 308 307 306 304 303 303 302 302 302 303 303 304 304 303 302 302 301 300 299 299 299 299 298

GFSWCAN_850_thetae_102.txt.gz
Theta_e
301 300 301 301 301 301 301 301 301 302 302 300 301 302 304 313 315 318 318 311 311 316 318 319 318 318 318 317 316 319 317 319 317 318 317 316 316 318 325 326 328 328 328 328 327 330 332 331 333 331 327 332 331 329
301 301 300 301 301 301 301 301 301 301 302 302 300 301 304 311 313 315 317 311 312 313 316 317 318 318 318 317 316 318 318 318 319 316 318 318 320 320 323 325 324 329 327 327 325 325 325 328 331 332 332 331 332 331
301 302 301 301 301 301 301 301 301 301 301 302 301 302 304 308 307 312 316 313 310 315 316 316 316 318 318 318 317 316 317 318 320 318 319 317 319 319 322 323 326 327 325 321 325 326 325 328 327 329 331 331 330 330
302 302 302 301 301 301 301 301 301 301 301 301 301 303 308 308 311 312 313 309 313 315 315 316 317 317 318 318 318 317 316 315 315 316 316 315 318 317 317 316 317 321 324 324 321 320 321 325 329 331 329 330 328 329
302 302 302 301 301 301 301 301 300 301 301 301 302 304 307 311 311 312 312 310 312 314 315 316 315 318 318 319 320 318 317 315 317 317 314 315 316 315 313 313 315 325 325 324 320 322 324 329 328 328 326 327 328 327
302 301 301 301 302 302 301 301 300 300 301 302 303 305 308 312 310 304 307 308 308 313 314 311 315 316 316 319 319 318 317 316 317 317 316 318 318 318 316 315 317 319 320 321 323 325 324 328 327 326 324 324 326 327
302 301 301 302 302 301 301 301 300 300 301 301 304 308 311 311 307 308 313 314 310 310 314 313 313 319 317 318 318 317 317 315 316 317 316 317 317 318 313 315 317 318 318 319 323 328 329 327 325 325 324 324 325 327
303 302 302 302 302 302 300 300 300 301 301 303 307 308 311 309 306 305 313 314 314 313 314 312 314 316 317 318 317 317 316 316 316 317 317 316 317 316 314 315 317 319 321 325 325 326 327 327 328 327 327 326 325 327
302 303 302 302 302 302 301 300 300 301 303 306 309 309 308 304 304 305 313 313 315 314 315 314 313 315 318 318 317 317 317 314 317 313 314 315 312 314 317 325 327 329 328 327 326 327 328 328 324 323 324 325 326 326
302 302 302 302 302 302 301 301 300 301 306 308 307 308 309 308 309 310 313 313 313 314 314 312 314 311 316 317 316 317 317 311 312 313 315 314 313 318 324 325 325 326 327 327 326 324 325 324 321 320 322 324 325 325
303 302 302 302 302 301 301 301 301 303 306 308 308 308 309 309 312 313 313 313 314 313 315 315 313 310 314 314 317 319 317 318 320 320 320 318 320 322 323 323 322 322 322 323 325 325 324 323 321 322 324 323 324 322
302 303 302 303 302 300 301 301 302 305 306 307 309 312 310 311 312 313 315 313 313 314 315 313 315 313 314 317 319 320 319 318 320 320 321 324 322 325 323 320 320 319 320 321 322 324 325 323 323 322 322 323 323 324
302 302 302 302 300 301 301 301 305 307 307 309 311 310 311 311 314 314 315 314 313 315 317 317 314 316 315 318 318 316 318 320 321 322 323 321 321 324 324 321 319 321 320 321 320 322 323 324 324 324 324 323 323 326
301 301 301 300 301 302 301 303 306 308 309 311 310 309 311 312 312 312 312 312 315 316 318 317 317 316 317 316 315 321 319 321 323 325 323 320 324 324 321 318 319 324 321 320 324 321 320 322 322 322 320 324 324 322
300 300 301 301 302 301 302 304 307 308 309 310 310 312 311 312 314 315 314 314 315 318 318 318 318 319 316 318 315 315 322 324 323 324 322 322 323 322 322 324 324 325 324 324 324 323 323 324 325 324 323 323 323 324
301 301 302 302 301 302 303 306 308 307 308 309 310 314 316 316 316 316 318 318 318 319 320 320 319 319 318 316 320 322 322 323 320 318 318 320 322 321 323 324 324 323 322 321 321 323 323 324 324 324 324 323 322 321
302 302 302 301 302 304 306 306 307 308 309 310 313 313 315 317 317 318 318 319 320 318 319 318 320 320 317 321 321 321 323 321 320 319 321 323 324 324 323 323 324 323 320 318 319 321 322 324 323 321 319 323 323 322
303 302 301 302 304 305 306 307 307 308 310 310 311 313 314 313 315 317 316 318 319 319 318 319 319 323 322 320 321 319 320 322 321 322 323 322 321 321 321 323 323 322 318 318 320 320 320 322 322 321 320 320 321 321
303 302 303 305 306 306 307 307 308 310 311 311 312 314 314 314 315 315 315 315 316 317 318 318 320 320 320 319 320 321 322 322 323 322 322 322 321 320 321 322 322 321 319 318 319 319 319 319 320 320 319 320 319 318
306 306 306 306 306 309 309 309 308 310 314 314 315 314 315 315 318 317 316 316 315 316 317 318 319 318 319 320 319 320 322 323 321 322 321 320 320 319 319 319 319 319 319 319 319 320 320 319 319 318 320 319 319 318
304 305 306 306 307 310 312 312 312 311 312 312 313 314 316 317 317 317 318 317 314 313 315 318 319 320 319 319 321 319 320 318 320 320 320 319 319 319 319 319 319 319 320 320 320 319 318 318 318 318 319 319 320 319
307 308 309 309 310 312 312 310 310 314 313 312 314 316 318 317 316 318 318 318 317 318 318 319 318 319 319 319 320 321 320 319 319 318 319 318 319 320 318 318 320 320 320 320 318 317 318 319 319 319 319 318 318 318
309 308 310 311 312 310 311 313 315 315 313 314 316 317 316 316 318 318 318 318 319 319 319 319 319 319 317 319 320 320 320 318 320 318 317 318 319 319 319 316 315 316 317 318 318 318 316 318 318 315 312 313 315 316
308 309 311 311 311 309 313 314 315 315 316 314 314 316 318 317 317 318 317 318 318 317 317 317 319 319 319 319 318 318 317 317 318 319 319 317 317 315 317 315 313 314 312 312 312 312 312 311 310 312 313 314 314 312
308 309 311 309 312 313 313 313 313 313 315 315 316 316 313 316 314 315 315 315 316 319 319 319 318 319 318 318 318 317 317 317 317 318 318 317 318 318 313 312 310 310 310 310 309 309 308 308 308 309 310 309 311 310
302 312 312 314 313 314 313 314 314 316 316 317 317 314 314 312 313 314 313 314 317 319 319 319 319 318 317 318 318 317 318 317 317 318 317 314 314 313 311 310 309 309 308 308 307 307 307 308 308 308 308 307 307 306
308 313 314 314 315 315 316 316 316 315 316 316 313 314 313 314 314 313 315 317 317 317 318 317 316 316 317 317 316 316 318 317 316 316 312 311 310 309 309 309 309 308 308 308 308 307 307 308 307 307 307 306 304 302
313 314 313 315 315 315 315 314 315 315 313 314 315 315 314 313 314 316 316 317 317 316 316 317 317 316 316 316 315 314 314 315 317 311 311 310 309 309 308 308 308 308 308 308 307 307 307 307 306 306 304 302 300 299
314 315 315 314 314 314 314 315 314 314 315 314 314 313 315 317 316 317 317 317 316 317 317 317 316 317 317 314 313 313 313 313 313 312 309 309 309 308 308 308 308 308 308 307 306 306 305 304 303 302 301 300 299 298
313 314 314 313 314 314 315 315 315 315 315 315 315 315 314 314 315 315 316 316 316 316 314 314 314 313 312 312 312 311 310 309 307 308 309 308 307 306 306 307 307 307 307 306 306 305 303 302 301 301 300 299 298 298
313 313 313 312 313 315 315 316 317 316 316 316 315 315 315 314 314 314 314 314 314 314 314 314 313 311 311 311 310 309 308 307 307 305 304 304 304 304 305 306 307 306 305 305 304 303 302 301 301 300 299 299 298 298
313 313 313 313 314 315 316 317 317 316 316 316 316 316 314 313 313 313 313 313 313 313 313 312 311 310 310 310 310 309 308 308 307 304 303 302 302 303 304 305 306 305 304 303 302 302 301 301 300 299 299 299 299 298
314 314 314 314 315 315 316 317 317 316 316 316 315 315 314 314 314 314 312 312 312 312 311 311 310 310 309 309 309 309 308 307 306 305 305 304 304 304 304 304 304 303 303 302 302 301 301 300 299 299 299 299 299 299

GFSWCAN_850_thetae_105.txt.gz
Theta_e
302 302 301 300 300 301 301 301 301 301 301 301 301 299 301 304 309 312 314 313 310 313 315 317 318 318 318 317 314 317 316 316 315 316 315 315 314 315 322 323 328 326 326 325 325 329 329 329 331 330 325 329 331 331
303 302 301 301 301 300 301 301 301 301 301 301 301 300 300 304 307 312 312 311 311 310 313 316 317 317 317 317 317 317 316 316 317 314 315 315 319 317 320 323 322 323 323 324 325 327 323 327 329 328 328 330 330 331
303 303 302 301 301 300 300 301 301 301 301 301 301 301 301 302 305 311 311 312 311 311 312 313 316 318 316 316 316 317 317 316 318 319 316 315 317 316 319 321 323 323 324 322 324 325 324 325 328 327 322 328 331 330
302 303 303 303 302 301 300 301 301 301 300 301 301 301 302 302 308 310 311 309 309 313 314 315 315 315 316 317 316 317 317 316 317 315 315 312 317 316 315 316 314 314 322 321 321 321 321 323 323 327 327 330 330 328
303 303 303 302 303 302 301 300 301 301 300 300 301 301 302 306 308 309 310 310 309 312 312 314 313 313 315 317 317 318 317 317 315 315 312 313 314 313 311 310 311 321 321 322 321 320 321 324 327 328 329 326 329 328
303 302 302 302 302 302 301 301 301 301 300 300 301 301 304 307 311 309 309 309 310 308 312 310 313 313 315 316 315 318 319 317 315 316 314 315 317 316 314 313 313 317 318 318 319 318 323 323 328 328 325 323 325 326
303 302 302 302 301 302 302 302 301 301 300 300 301 302 305 308 310 310 310 312 307 307 312 312 311 316 317 317 315 317 317 315 316 316 315 316 317 316 311 315 316 318 318 318 320 319 325 327 326 326 324 325 325 326
302 302 302 302 301 302 302 302 301 301 300 300 301 304 306 307 310 307 310 312 309 309 314 311 311 314 315 316 316 317 316 315 315 315 314 314 314 314 313 313 316 321 326 324 325 323 326 328 326 325 324 324 325 326
302 303 302 303 302 302 302 302 301 300 300 301 305 307 307 307 307 308 307 313 312 313 314 312 311 313 316 315 316 316 316 313 314 313 312 314 311 313 312 322 324 325 326 326 325 325 326 327 326 325 325 325 325 324
303 302 302 302 302 302 303 301 301 301 301 305 307 307 308 307 307 307 312 312 313 313 313 310 313 311 314 315 314 314 314 312 310 310 313 311 312 315 323 323 323 324 325 326 326 326 327 327 326 323 323 324 325 325
302 302 302 302 302 302 303 301 301 301 303 306 307 308 309 308 309 311 313 312 312 312 313 313 313 309 312 314 316 317 314 315 319 316 315 314 316 319 323 321 321 321 323 324 325 325 325 323 323 321 321 323 324 324
302 302 303 302 302 303 301 301 301 302 305 307 308 309 309 311 310 312 313 311 312 314 313 311 313 312 313 313 318 318 318 316 318 317 318 321 318 322 322 321 320 319 320 321 323 325 325 324 322 322 322 322 322 323
302 302 303 303 303 302 301 301 301 303 306 308 308 309 310 311 312 313 316 313 311 313 315 314 312 314 313 315 316 314 317 316 319 319 321 319 319 322 321 321 321 320 320 320 321 321 324 323 322 321 322 323 322 323
302 302 303 302 302 300 301 301 301 303 306 309 308 310 311 312 311 310 311 311 314 314 315 315 314 312 314 314 314 319 315 319 322 323 322 318 322 319 319 319 320 322 321 321 321 321 322 324 324 324 324 322 321 322
302 302 302 301 301 301 301 302 303 306 307 309 310 311 309 309 311 313 313 313 314 314 315 316 315 316 313 315 313 314 321 322 323 323 321 321 321 320 321 322 323 323 323 323 323 323 322 322 323 323 323 322 323 323
301 301 301 301 302 301 302 304 306 306 308 309 310 311 313 315 315 316 317 318 317 317 318 318 316 317 317 316 320 320 321 320 319 316 318 321 321 322 323 324 323 323 322 319 321 322 323 323 323 324 323 323 323 323
301 302 302 302 301 302 303 306 306 307 307 309 311 310 311 314 315 315 317 318 318 318 315 317 319 319 316 319 320 318 320 319 318 319 322 322 322 321 322 322 323 322 318 319 320 321 323 323 323 323 322 321 321 322
302 302 302 301 302 304 306 306 307 308 309 309 310 310 311 314 314 316 316 317 318 317 318 318 319 320 321 321 320 318 320 320 322 322 321 321 321 321 322 323 322 319 318 319 319 319 322 321 320 320 320 320 321 319
302 302 302 304 305 306 307 307 307 309 310 310 311 312 314 314 315 315 316 316 317 317 318 317 319 320 319 318 319 320 321 321 322 322 322 320 319 321 321 321 320 318 319 319 319 319 320 320 320 319 319 319 318 318
301 302 304 306 307 308 307 307 307 308 311 314 314 314 315 314 317 317 317 317 316 316 316 317 318 318 318 319 320 321 321 322 321 320 320 319 318 319 319 319 318 318 319 319 319 319 319 319 319 319 319 317 318 318
303 305 305 306 307 308 311 311 310 312 311 312 312 314 315 314 316 317 317 317 315 315 316 318 318 319 320 320 319 318 319 320 320 319 319 319 319 319 319 319 319 319 320 319 319 318 317 318 318 318 319 319 318 318
306 306 306 306 308 311 312 310 309 310 310 311 313 315 316 316 317 317 318 317 317 318 318 319 319 319 319 320 320 320 319 318 319 318 318 317 317 318 318 319 319 319 319 318 318 318 318 318 316 314 314 317 317 317
307 309 309 310 311 310 311 311 309 311 316 315 315 315 315 316 317 316 315 317 317 317 318 319 318 318 319 319 319 319 318 319 318 318 319 319 318 317 317 315 315 317 316 313 313 314 317 318 316 313 312 314 316 315
308 308 311 312 311 309 311 313 314 314 313 312 314 316 314 315 316 316 317 317 316 318 317 318 319 318 318 318 317 317 318 318 318 319 316 315 317 313 313 313 312 311 310 310 309 309 309 310 310 312 313 314 311 310
308 308 310 309 310 312 313 312 311 312 316 314 314 312 311 314 313 314 315 315 317 318 318 317 318 318 317 317 317 318 318 318 318 318 317 317 315 312 312 310 309 308 308 307 307 307 308 308 308 309 310 311 310 308
305 311 311 312 313 313 313 315 316 315 314 315 312 313 312 310 312 314 313 315 317 318 319 318 318 318 318 317 317 317 317 318 317 315 315 316 315 311 309 308 308 308 308 307 308 307 308 308 308 307 307 306 304 303
311 313 314 315 315 315 314 315 315 313 314 313 312 314 313 314 314 313 316 317 317 317 317 317 316 316 316 317 316 317 317 316 314 312 310 309 309 309 308 308 308 308 307 308 307 307 307 307 306 306 304 302 300 299
313 314 314 314 314 314 313 312 312 312 313 314 314 315 314 313 314 316 316 316 316 316 317 317 317 316 314 313 313 314 315 313 312 310 309 309 308 308 308 308 308 308 307 307 307 306 306 306 305 304 302 300 299 298
313 314 313 312 313 314 314 314 314 314 314 314 314 314 316 316 316 316 316 316 317 316 315 316 318 317 313 312 312 311 312 311 310 310 310 309 309 308 307 307 307 307 307 307 306 305 304 303 302 301 300 299 298 297
313 313 313 312 313 315 315 315 315 315 315 315 314 315 315 315 315 315 315 315 314 315 315 314 315 313 312 311 310 310 309 307 306 305 307 307 306 305 305 306 307 307 306 305 304 303 302 301 300 300 299 299 298 298
313 312 313 314 314 315 316 316 316 316 316 315 314 314 313 313 313 314 314 314 313 313 312 312 311 311 310 310 309 308 307 306 304 303 303 303 303 304 305 306 306 305 304 304 303 302 302 301 300 299 299 299 299 298
313 313 313 311 315 316 316 316 316 316 316 316 314 313 313 313 312 311 312 313 313 312 311 311 310 310 309 309 309 308 307 307 305 303 302 302 302 303 303 304 304 304 303 302 302 301 301 300 299 299 299 298 299 300
314 314 314 314 314 315 316 316 316 315 316 315 314 313 313 313 313 312 311 311 311 311 311 311 310 309 309 308 308 308 307 306 305 305 305 305 305 304 304 304 303 302 301 301 301 301 300 300 300 299 299 300 299 300

GFSWCAN_850_thetae_108.txt.gz
Theta_e
302 302 302 302 301 301 300 301 301 301 301 301 301 302 301 300 304 308 310 311 312 311 313 314 317 317 316 316 314 316 315 313 313 315 313 313 313 314 320 318 326 324 323 323 322 327 326 328 331 331 325 327 328 330
302 302 303 303 302 301 301 300 301 301 301 301 301 301 302 300 304 307 308 310 311 310 311 313 314 315 316 317 317 316 315 314 315 312 313 314 318 315 317 323 320 321 320 321 322 322 321 325 327 328 328 329 327 329
301 302 302 303 302 301 301 301 301 301 301 301 300 301 301 301 304 306 308 309 311 310 311 312 314 315 315 315 316 316 316 317 317 318 315 313 317 314 319 318 321 320 322 320 321 321 322 323 324 325 326 329 326 330
301 301 302 302 303 303 302 301 301 301 301 301 300 300 301 301 302 305 306 309 310 310 313 313 313 315 315 316 316 316 316 316 316 317 313 311 316 315 314 314 314 313 320 319 319 320 319 319 321 324 325 327 328 328
301 301 302 303 303 303 303 302 301 300 301 301 300 300 301 301 303 304 307 308 307 310 312 311 313 312 312 312 314 315 315 316 315 314 311 312 313 312 310 309 310 317 317 320 320 319 318 318 320 325 326 327 326 328
302 302 302 303 302 302 302 303 301 300 301 301 300 300 300 302 304 306 308 308 308 309 308 310 311 310 308 313 314 315 314 314 314 315 312 314 316 315 312 312 313 315 317 319 319 318 316 317 317 321 327 324 323 326
302 302 302 303 302 302 301 302 302 301 301 301 300 300 301 302 305 307 308 310 310 308 309 310 310 314 315 314 314 313 313 314 314 315 313 315 316 314 310 315 314 316 316 316 316 315 317 320 320 323 326 324 325 326
302 301 302 303 302 302 301 302 302 302 301 301 300 300 302 304 306 308 307 309 306 307 311 309 309 312 314 314 313 314 313 314 314 314 313 313 313 312 312 313 316 316 318 319 320 321 323 323 326 326 324 325 324 326
302 303 302 302 302 302 301 302 302 302 301 300 300 303 306 306 307 307 308 308 309 309 312 311 312 313 314 313 314 314 315 311 312 311 310 313 310 313 313 315 317 322 324 324 326 325 324 325 327 326 325 324 325 325
301 301 303 303 302 302 302 302 303 301 300 301 303 307 307 307 307 307 309 311 309 310 313 311 311 311 312 313 313 314 313 310 312 311 312 310 311 313 314 317 322 322 322 324 325 325 325 325 326 326 325 325 325 325
302 304 303 302 302 302 302 302 302 301 301 303 306 306 308 307 307 309 310 310 311 310 312 312 312 311 312 312 313 315 311 311 316 313 313 312 312 316 322 321 321 321 322 324 325 324 324 324 324 325 323 322 322 324
303 302 302 303 302 302 302 303 301 301 303 305 307 308 308 308 309 310 312 309 310 310 311 311 312 312 312 311 314 316 316 314 318 314 317 319 315 321 322 322 321 320 319 319 321 321 322 324 323 323 321 322 322 323
302 302 302 302 302 302 303 301 301 301 303 306 307 307 309 309 311 311 312 311 309 311 313 312 310 312 312 311 314 316 317 316 316 317 319 317 319 321 320 320 321 321 321 321 320 321 322 323 322 321 322 323 323 323
302 302 302 303 302 303 301 301 301 301 303 305 304 306 311 311 311 309 309 310 312 313 314 314 312 311 312 312 314 317 314 317 320 321 321 317 321 318 318 319 320 320 322 321 322 322 321 323 323 324 323 320 320 322
302 302 302 303 303 301 301 301 301 303 305 305 309 311 308 308 310 311 312 312 313 313 313 314 312 312 311 313 311 314 320 320 321 321 319 321 321 320 318 319 322 323 322 320 321 322 322 322 323 322 322 321 320 322
302 302 302 302 301 301 301 302 303 304 306 308 310 310 312 312 315 315 315 315 316 314 314 315 315 316 316 315 318 319 321 321 319 316 317 320 321 321 322 322 323 322 318 318 320 321 322 322 322 323 323 322 322 322
301 302 301 301 302 301 302 304 306 306 308 308 310 310 310 311 314 314 315 316 317 317 315 314 317 319 315 318 319 317 319 318 317 319 321 321 321 321 321 322 322 319 318 320 320 321 322 322 323 323 322 321 322 321
302 301 302 301 302 303 306 305 306 307 308 309 309 309 309 310 311 315 316 316 318 317 316 318 318 319 319 320 319 318 319 319 321 321 321 320 320 321 322 322 318 318 319 319 320 321 320 320 320 319 319 319 319 319
301 301 301 303 305 306 307 306 307 308 309 310 310 311 314 314 315 316 316 317 317 317 317 318 319 320 319 318 319 319 320 321 321 321 319 319 320 321 321 319 319 319 319 319 319 320 320 320 319 318 318 318 318 318
301 301 303 306 306 307 307 307 307 308 309 312 313 313 314 314 315 317 316 315 316 316 316 317 318 318 319 318 319 320 320 321 320 319 318 318 319 319 319 318 319 319 319 318 319 319 319 319 318 318 318 317 316 318
302 305 305 306 307 307 310 310 309 311 311 311 313 314 314 315 316 317 317 316 317 316 317 316 314 319 320 320 319 320 321 320 319 319 319 319 319 319 319 319 319 319 318 318 318 319 318 318 318 319 319 318 318 318
304 304 306 306 306 309 311 311 309 309 310 310 314 314 316 317 317 317 317 318 318 317 318 318 318 319 320 320 319 318 318 319 318 318 317 317 318 318 318 319 318 317 316 316 317 318 317 314 314 316 316 316 316 316
306 306 307 308 310 308 308 309 308 310 314 312 311 315 316 316 316 315 316 316 316 317 318 318 318 319 319 319 319 319 318 318 318 317 318 316 317 316 315 313 312 312 311 310 310 312 315 316 315 313 314 316 315 313
308 308 310 308 307 310 310 311 311 314 314 312 314 315 312 313 315 316 316 314 317 317 317 318 318 318 317 318 318 318 318 318 318 316 317 314 313 313 311 310 309 308 307 307 307 307 308 309 310 313 315 315 314 310
307 308 309 309 309 310 312 311 311 311 314 312 312 311 310 312 312 313 312 314 317 317 317 317 317 317 318 317 317 318 318 317 315 315 313 312 313 311 309 309 308 308 307 307 307 307 308 308 308 310 309 308 307 305
305 310 309 311 311 312 311 313 313 312 312 312 311 311 311 309 311 312 313 316 317 317 317 317 317 317 318 317 317 318 318 317 316 315 315 316 311 310 309 308 308 307 307 307 307 307 307 307 307 307 306 304 302 300
312 312 313 314 314 314 312 313 313 311 312 312 313 312 312 313 315 314 316 316 317 317 317 316 317 317 316 316 317 316 316 316 314 313 313 311 309 309 308 308 308 307 307 307 307 306 306 306 305 304 302 301 300 299
313 313 313 312 313 314 311 311 312 314 313 314 314 314 313 314 316 316 316 316 317 317 317 316 313 314 315 315 315 315 314 312 311 311 310 309 309 308 308 308 307 307 307 306 306 305 305 304 302 301 300 299 299 298
312 312 313 312 313 315 315 315 315 314 314 314 314 315 316 315 316 316 316 316 316 315 317 317 313 311 311 311 311 311 310 309 308 308 309 308 307 307 307 307 307 307 306 305 305 304 302 302 301 300 299 298 298 297
312 313 313 314 314 315 315 315 316 316 315 315 315 315 315 314 315 315 314 314 315 315 316 315 313 311 310 309 308 308 308 308 307 306 306 306 305 305 305 306 307 306 305 304 303 303 302 301 301 300 299 299 298 298
313 314 314 314 314 315 316 315 315 314 313 313 312 312 312 313 313 313 313 313 312 312 311 311 310 310 309 309 308 307 306 305 303 302 303 303 303 303 304 305 305 305 304 303 302 301 301 301 300 299 298 298 298 299
313 313 312 310 314 315 315 316 316 316 314 313 312 312 312 311 311 311 312 311 311 311 311 310 310 309 309 308 308 307 306 304 304 303 304 304 304 304 303 303 304 303 302 302 301 301 300 300 299 299 299 299 299 299
314 314 314 314 315 315 316 315 315 315 314 313 313 313 313 313 312 311 311 311 310 310 310 310 309 309 308 308 307 306 306 305 305 305 305 305 304 304 304 303 303 302 302 302 301 301 300 300 300 300 300 300 300 299

GFSWCAN_850_thetae_111.txt.gz
Theta_e
302 302 302 302 302 302 301 301 301 300 301 301 301 301 301 302 302 305 306 308 310 310 311 312 314 317 317 316 320 318 319 316 319 322 321 321 321 321 321 322 328 328 330 333 332 334 330 328 332 332 331 331 329 329
301 301 302 302 302 302 302 301 301 300 301 301 301 301 300 301 301 304 306 306 308 310 310 311 311 313 314 315 316 317 317 317 318 320 321 321 323 322 325 325 326 329 327 326 331 328 327 327 327 328 328 329 331 329
301 301 301 302 302 302 302 301 301 301 300 301 301 301 300 301 301 302 304 307 309 308 309 309 309 310 313 314 315 316 317 317 317 316 319 319 322 320 326 326 326 325 324 327 325 326 325 323 323 324 326 328 329 329
301 301 301 301 301 302 302 302 302 301 300 301 301 301 300 300 300 301 303 305 308 309 310 310 310 311 312 314 314 314 316 316 316 315 317 318 319 319 321 320 321 320 324 325 325 323 321 322 322 320 321 325 326 327
302 301 301 301 301 303 303 303 302 301 301 301 301 301 301 300 300 301 302 304 306 309 310 310 309 309 311 313 314 315 315 315 315 316 317 318 316 317 317 316 318 318 322 322 321 320 320 321 319 320 321 325 326 325
302 301 301 302 302 302 302 303 302 303 301 301 300 300 300 300 300 302 305 305 305 306 307 310 310 309 309 311 311 312 314 314 315 316 317 316 315 317 318 318 317 316 316 317 318 318 320 318 316 316 319 326 325 324
302 301 302 302 302 303 302 302 302 302 301 300 300 300 300 300 300 303 307 308 308 306 308 311 312 312 313 312 312 312 313 313 315 315 315 317 317 315 318 319 317 316 317 317 317 319 317 317 318 324 323 325 323 325
300 303 302 301 302 302 302 302 301 302 302 301 301 300 300 300 301 303 306 308 308 308 307 311 314 314 313 313 313 312 313 313 313 316 314 317 315 316 319 318 317 317 317 318 324 322 319 319 322 324 325 325 325 326
300 300 302 302 302 302 302 302 301 302 302 301 300 300 301 303 303 304 305 307 307 307 310 312 313 317 314 313 312 312 314 316 312 317 316 317 318 319 319 318 318 319 325 324 323 325 326 326 326 326 327 326 327 326
299 299 300 302 302 302 302 301 302 302 301 300 300 302 305 305 305 307 307 307 307 308 308 313 312 315 313 315 315 316 314 319 319 318 313 318 319 317 316 315 316 322 322 322 325 324 326 326 326 327 326 326 325 325
299 300 302 301 303 302 302 301 302 302 301 301 304 305 307 306 307 307 310 307 306 310 311 312 312 315 313 317 320 317 319 317 320 318 319 319 319 320 322 322 321 321 320 321 321 321 321 322 324 324 325 325 323 324
298 302 303 303 303 302 302 302 302 302 301 303 305 306 308 307 308 310 311 311 312 313 312 313 313 312 313 311 318 320 322 320 322 317 322 325 324 321 323 321 321 321 321 321 320 321 321 322 323 323 323 322 322 322
301 303 302 302 302 302 302 301 302 301 301 303 306 307 308 309 308 310 311 312 313 313 313 312 314 313 311 311 318 320 322 322 319 324 323 323 322 321 320 321 320 320 321 321 321 321 321 322 322 322 322 322 323 322
302 302 302 302 302 302 302 303 301 301 302 304 305 305 309 310 308 311 312 313 313 312 314 313 315 314 313 316 319 320 318 321 323 323 324 324 321 320 318 318 319 322 322 322 322 322 322 322 323 323 323 322 323 323
302 302 302 303 302 303 301 301 301 302 304 305 302 308 311 310 309 310 312 312 312 312 312 315 315 313 317 319 317 319 322 322 322 323 323 321 319 319 320 317 321 322 318 318 319 322 322 322 323 322 322 321 321 320
302 302 302 303 303 301 301 301 302 303 305 305 307 311 311 313 313 313 315 315 315 315 314 315 318 319 319 319 319 320 321 322 322 321 318 320 320 321 321 321 322 320 319 319 320 322 322 323 323 322 322 322 322 321
302 302 302 302 301 301 302 303 303 305 306 308 310 310 310 310 312 313 313 315 316 316 319 318 320 320 319 322 321 322 323 322 319 319 320 320 320 320 321 322 319 318 319 320 320 320 321 322 322 321 320 321 322 321
302 302 301 301 301 302 304 306 306 307 308 309 309 310 309 310 311 312 316 316 316 316 317 320 320 321 322 322 322 322 321 318 320 320 319 321 321 321 319 318 318 319 319 320 319 319 319 319 319 318 318 319 319 319
301 301 301 301 303 306 306 305 306 308 310 309 310 311 311 311 314 315 316 316 317 317 317 319 319 322 322 321 321 321 320 321 320 318 318 320 321 319 319 319 318 318 319 319 320 319 319 318 318 317 317 318 317 317
301 301 302 305 306 307 307 307 306 307 309 310 311 312 312 313 314 316 315 315 316 317 319 320 319 319 319 319 319 319 320 320 319 319 320 319 319 319 319 319 318 318 318 318 318 319 319 318 318 318 317 317 317 317
301 302 305 305 306 307 308 310 309 309 311 311 311 313 314 315 317 318 317 317 317 317 315 316 314 316 318 319 320 321 320 319 318 319 318 318 318 319 319 319 318 318 318 318 318 318 318 318 318 318 318 318 318 315
303 304 304 305 307 308 310 311 309 309 310 311 313 313 316 317 317 316 317 318 317 316 317 317 317 318 319 318 318 318 318 318 318 317 318 318 318 318 317 314 315 314 315 317 318 317 315 314 317 317 317 316 314 312
304 305 307 307 308 308 308 308 309 310 312 312 313 315 315 315 315 316 316 315 316 316 317 317 318 319 319 319 318 318 318 317 316 316 315 315 312 311 311 310 309 309 309 307 307 308 311 314 314 315 315 313 312 310
307 307 307 306 307 307 309 310 309 312 313 314 315 315 313 313 315 316 316 315 316 316 317 318 317 318 319 318 318 318 318 317 318 316 315 313 311 310 309 308 307 307 307 307 307 307 308 309 313 315 314 312 308 306
307 307 307 308 310 312 312 313 313 313 315 314 314 314 313 312 315 316 315 315 316 317 317 317 317 317 317 318 317 317 317 315 317 315 313 312 310 309 308 308 307 307 307 308 307 307 307 308 310 309 307 306 304 302
307 309 310 313 313 314 315 316 315 315 315 314 314 313 312 314 315 315 314 316 316 317 316 317 317 317 317 317 316 317 316 316 316 315 314 312 310 309 309 309 308 307 307 307 307 307 307 307 306 306 304 303 301 299
313 314 313 312 313 313 313 313 313 315 316 315 314 314 315 316 316 315 316 317 317 316 316 317 317 316 316 316 316 316 317 316 314 315 315 312 309 309 308 308 308 307 307 306 306 306 306 305 304 302 301 300 299 298
312 311 313 313 314 314 314 314 314 315 316 315 315 315 315 316 316 316 316 316 317 316 313 315 316 316 315 315 314 313 313 312 311 310 309 308 308 308 308 308 307 307 307 306 305 304 303 302 302 301 300 299 299 298
312 312 313 315 315 315 315 315 315 314 314 315 315 317 316 315 314 316 316 315 316 317 312 310 310 310 310 311 311 310 309 309 308 308 308 308 308 307 307 306 307 307 306 305 304 303 302 301 301 300 299 299 298 298
312 314 314 315 315 315 315 314 314 314 315 314 315 315 314 315 315 315 315 315 316 315 313 311 309 309 308 308 307 307 306 306 306 306 306 305 304 304 304 305 306 306 305 304 303 302 301 301 300 300 299 299 299 299
313 314 315 315 315 314 314 314 313 313 313 313 312 313 312 311 312 312 312 312 312 311 311 310 309 309 308 308 307 306 304 303 302 302 303 303 303 303 303 305 305 305 304 303 302 301 301 300 300 300 299 300 300 300
314 313 314 316 316 315 315 315 314 313 312 312 312 312 312 312 312 311 311 311 311 310 310 310 309 309 308 308 307 306 305 304 304 304 304 304 304 304 303 303 303 302 302 301 301 301 300 300 300 300 300 300 300 300
314 314 314 314 315 315 315 315 314 314 313 313 313 313 313 313 313 311 311 311 310 310 310 309 309 309 308 307 306 306 305 305 305 305 305 304 304 304 304 303 303 303 302 302 302 301 300 300 300 300 300 300 300 300

GFSWCAN_850_thetae_117.txt.gz
Theta_e
303 303 303 303 303 303 302 302 303 302 302 302 301 302 302 301 301 301 309 310 311 312 313 313 314 316 317 318 321 323 322 322 323 324 322 323 324 324 325 326 327 328 329 329 329 329 329 332 331 332 333 331 330 330
301 301 301 302 302 303 302 302 303 303 302 302 302 302 302 302 301 301 307 311 311 311 312 312 313 313 313 315 318 321 322 323 324 323 322 323 323 324 326 326 327 327 326 327 328 334 333 330 329 327 328 329 329 330
301 302 302 302 303 303 303 302 303 302 302 302 301 301 302 302 301 301 305 307 308 311 311 312 312 312 311 310 313 317 318 318 320 322 324 327 328 324 325 326 325 325 325 328 329 328 326 326 327 325 326 327 327 328
301 302 302 302 302 302 302 302 302 302 302 302 302 301 301 301 301 301 304 306 307 309 311 312 311 311 313 312 311 313 315 317 320 321 322 324 324 323 324 325 325 324 326 328 328 326 323 325 326 325 326 325 325 325
301 301 301 301 302 302 302 302 302 302 303 302 302 301 301 301 301 301 303 304 306 308 313 312 311 309 310 312 314 313 314 316 317 320 320 321 321 322 322 324 323 323 324 325 325 323 324 324 323 323 323 323 323 324
300 300 299 301 302 301 302 302 302 303 303 303 302 301 301 301 301 303 307 307 305 306 308 311 312 311 311 311 311 312 314 315 316 316 317 319 319 320 322 323 322 321 320 320 321 321 321 321 321 321 322 322 324 327
299 298 298 300 302 302 302 302 303 303 303 303 303 301 301 301 301 303 305 307 306 307 309 312 313 313 314 312 311 311 312 315 316 317 319 319 320 320 322 324 322 321 321 320 319 319 320 320 321 322 321 321 325 326
300 297 298 300 302 302 303 302 303 302 302 302 302 301 301 301 301 302 303 307 306 308 310 312 313 312 312 315 313 312 313 313 315 318 319 319 320 320 325 322 320 320 320 321 321 321 320 323 324 324 323 322 324 328
301 297 297 300 302 302 302 303 303 302 301 302 302 301 302 302 303 305 305 307 307 308 309 312 313 314 316 316 316 314 313 317 315 319 318 320 321 324 322 321 320 321 321 321 324 324 324 323 325 326 326 325 326 328
301 300 296 299 300 303 302 303 302 302 302 302 302 304 304 306 305 307 305 308 308 309 307 310 310 315 314 317 318 316 315 319 321 318 317 321 322 320 320 320 321 322 322 322 323 323 322 325 325 326 327 326 326 328
301 301 297 299 299 301 302 303 302 301 302 303 305 305 307 307 308 309 309 310 310 310 309 310 310 313 312 316 319 318 320 319 321 321 320 323 323 321 321 322 324 323 323 324 324 324 325 325 325 326 328 329 330 329
300 298 297 298 300 300 303 302 302 302 304 305 306 306 306 308 309 311 312 312 313 313 312 313 313 313 314 315 317 318 313 318 321 321 322 324 326 325 324 324 325 325 325 325 326 326 326 325 325 326 327 328 330 329
300 299 298 299 302 301 303 303 302 303 303 304 306 308 309 309 313 312 312 314 315 314 315 316 318 315 314 316 317 319 321 323 323 324 322 324 326 325 326 326 326 326 326 326 326 326 326 326 327 327 326 326 328 328
301 300 301 303 303 303 303 302 302 302 303 306 305 309 310 312 312 312 312 315 315 316 316 317 315 316 316 318 316 320 321 322 323 324 325 328 326 325 323 324 325 325 325 325 325 326 326 326 326 326 327 328 328 327
303 303 302 303 303 302 302 302 302 303 305 304 306 309 311 311 311 312 313 313 314 316 316 317 318 317 318 319 320 321 321 323 323 325 325 324 324 322 322 321 321 323 323 325 325 325 323 320 320 323 325 326 326 326
302 302 303 303 302 302 302 302 302 303 305 306 307 308 310 313 314 314 314 315 316 317 318 317 319 320 320 319 322 322 323 323 324 324 323 322 323 320 319 321 318 323 324 324 324 325 322 322 324 323 322 321 321 320
302 303 303 302 303 302 302 303 304 306 307 309 310 310 310 310 311 312 314 316 317 319 321 320 322 319 319 322 322 324 323 324 321 322 323 324 324 324 324 322 323 324 323 323 324 325 325 324 323 323 322 321 321 320
304 303 302 303 302 301 302 304 306 306 308 309 310 312 311 310 310 313 313 314 317 319 320 322 322 323 322 322 324 325 323 321 321 323 324 324 324 324 324 323 323 323 323 323 324 324 324 324 324 324 322 320 320 320
304 302 302 301 303 303 304 305 306 309 310 309 309 309 309 310 312 312 312 315 316 319 321 322 323 323 325 324 323 322 322 322 323 323 322 321 322 322 323 323 323 323 323 323 323 322 322 322 321 320 319 318 318 318
302 302 301 302 304 306 309 309 308 309 309 310 309 311 310 312 314 315 318 319 320 318 321 322 323 322 322 322 321 322 323 324 323 323 322 321 319 320 323 323 323 324 322 322 322 322 322 320 320 320 318 317 316 317
302 301 303 305 306 306 307 310 310 311 312 311 309 310 313 314 317 318 320 317 318 318 320 320 321 322 323 323 323 323 324 323 323 323 322 318 321 321 319 319 319 319 319 318 319 320 320 321 319 319 319 317 315 314
305 303 305 305 306 308 310 310 312 311 311 311 312 312 315 318 318 317 317 317 316 316 316 319 321 322 322 322 323 322 322 322 320 318 316 316 316 318 317 316 316 315 316 316 317 318 318 318 317 315 313 313 312 311
304 305 306 307 307 308 309 309 312 312 314 312 315 316 318 319 319 318 318 318 317 318 318 320 321 322 322 322 321 320 319 318 316 314 314 310 312 312 311 311 311 312 312 312 313 315 315 314 314 314 313 312 311 310
306 307 307 307 307 308 308 310 309 311 312 315 315 316 319 319 319 318 320 319 320 320 321 322 322 321 322 321 320 318 317 315 314 314 315 314 313 312 311 311 311 312 312 312 313 314 314 313 313 313 312 311 310 309
305 305 305 306 308 309 313 317 316 316 318 319 319 319 318 318 319 319 319 319 320 321 322 321 321 321 321 321 320 321 319 318 316 315 314 315 315 314 313 312 311 311 312 312 312 312 312 312 311 310 309 308 307 306
307 311 309 317 318 318 318 319 319 318 318 318 318 317 318 318 318 318 319 320 320 320 321 321 320 317 316 320 319 319 319 319 316 316 315 313 313 314 314 313 311 311 311 311 311 311 310 310 309 308 307 304 303 305
315 318 318 317 317 317 318 317 317 318 318 319 318 319 319 318 318 318 319 320 320 319 319 318 318 317 317 317 317 318 317 316 316 315 314 313 313 313 312 312 311 310 310 310 310 309 309 308 307 307 306 306 305 304
316 316 318 317 318 318 318 318 318 317 318 317 318 319 318 317 317 319 320 318 315 316 316 317 317 316 315 314 314 314 314 314 314 314 313 313 312 312 311 310 309 306 308 308 308 307 307 307 306 306 306 306 305 305
315 316 317 317 318 318 318 319 318 318 319 318 319 319 319 319 319 319 320 318 314 314 314 314 314 313 312 311 310 310 310 311 312 314 314 314 313 311 309 309 310 310 309 307 305 305 304 304 304 304 305 305 305 305
317 317 317 317 319 318 318 319 318 317 318 318 317 317 317 316 316 317 318 317 315 313 313 312 313 313 312 312 311 309 309 309 309 310 310 310 309 308 309 309 309 309 308 308 307 306 305 305 305 305 305 306 306 306
317 317 317 317 317 316 316 316 316 316 316 316 316 315 315 315 315 314 314 314 314 314 314 314 313 312 311 310 310 310 310 308 308 307 308 308 307 307 307 307 308 308 307 307 306 306 306 306 306 306 306 306 306 305
316 316 316 317 316 315 314 314 315 315 314 315 315 315 315 315 314 314 313 314 314 315 313 314 313 312 310 309 309 307 307 308 307 307 307 307 307 307 307 306 306 306 306 306 306 306 306 305 305 306 306 306 305 305
316 316 316 316 315 315 315 314 315 315 315 315 315 315 314 315 316 315 315 314 313 313 314 313 312 312 310 310 309 308 308 307 305 305 304 304 303 304 305 306 306 306 307 307 306 306 306 306 306 306 306 306 305 305

GFSWCAN_850_thetae_120.txt.gz
Theta_e
302 302 303 303 303 303 304 303 302 302 303 302 302 302 302 302 303 302 308 311 313 314 314 315 316 315 317 320 324 322 324 322 323 326 326 326 324 324 325 329 329 331 333 331 332 329 330 333 333 334 336 334 332 331
303 303 302 302 302 303 303 303 302 302 303 303 302 302 302 302 302 302 307 312 312 312 313 314 314 314 315 315 316 318 322 324 326 327 325 324 324 324 328 326 329 330 331 331 332 337 333 332 332 330 330 330 330 329
303 301 301 302 302 302 303 303 303 302 303 303 302 302 302 302 302 302 304 307 309 310 311 312 312 313 313 312 312 314 317 320 321 322 323 326 328 328 327 324 328 328 327 329 332 329 329 329 329 329 327 327 327 327
301 300 301 302 302 302 302 302 303 303 303 302 303 302 302 302 302 301 304 307 308 309 311 313 313 313 314 314 314 312 312 314 317 319 321 325 325 323 326 325 327 325 327 329 330 328 326 326 325 327 326 328 327 326
300 299 301 302 301 301 303 303 302 302 303 302 303 302 302 301 302 302 304 306 307 309 312 313 312 313 313 313 314 314 313 313 315 317 319 321 320 321 322 324 324 324 328 327 328 329 328 328 326 325 325 325 325 324
300 299 301 301 300 302 302 302 303 303 303 303 303 302 302 301 301 303 308 308 307 307 308 312 312 312 312 313 312 312 314 315 314 316 317 317 318 319 321 324 323 322 323 323 325 322 322 323 323 323 323 323 324 324
300 300 299 299 299 301 302 302 302 303 304 303 303 303 301 301 302 304 306 308 307 308 309 312 314 314 312 313 313 312 313 313 314 315 317 317 317 317 319 324 322 322 322 322 323 322 322 322 321 322 322 323 322 322
300 301 298 297 299 302 302 303 303 303 303 303 303 303 301 301 301 302 304 305 307 308 310 313 314 313 314 315 315 315 313 313 313 315 316 317 317 319 321 320 319 321 322 322 321 322 322 322 321 322 324 325 322 322
300 301 298 298 300 302 302 302 303 303 302 302 302 302 302 302 304 307 305 305 308 309 312 311 312 313 315 316 316 316 316 316 314 318 318 318 320 321 320 320 320 321 322 322 321 321 321 320 321 324 325 326 326 324
300 301 300 296 299 301 302 302 303 302 302 302 302 304 305 305 306 306 305 308 308 310 309 311 310 313 313 314 316 318 317 319 319 317 316 319 320 318 317 320 322 321 322 322 323 324 324 323 323 325 325 325 327 324
300 301 301 297 299 301 303 303 303 302 302 303 305 305 307 308 307 308 309 308 310 311 311 311 311 312 310 313 317 317 317 319 320 318 317 318 320 321 318 318 318 319 320 323 322 322 323 324 325 325 325 326 327 327
300 301 301 298 298 300 302 303 302 302 304 305 306 307 307 309 309 311 312 312 312 313 313 313 313 312 312 313 317 318 318 319 321 319 321 322 322 320 319 320 322 319 320 324 323 324 326 326 325 326 325 325 327 326
299 298 298 297 297 300 302 303 302 303 304 305 306 308 308 310 313 311 313 314 314 313 315 316 319 316 315 316 317 319 319 316 314 320 320 323 323 319 318 318 324 325 327 326 327 326 326 326 326 327 328 329 329 328
299 301 300 297 299 301 302 303 302 303 303 306 307 311 310 311 312 312 312 313 313 316 316 316 318 318 316 318 318 318 318 322 322 325 327 327 324 323 320 326 326 326 326 326 327 326 327 327 327 327 328 328 328 323
301 300 301 303 303 302 303 303 302 302 304 307 306 309 310 310 312 314 315 314 315 316 317 317 319 318 320 319 320 317 322 323 325 322 324 322 323 324 323 323 324 325 325 325 326 324 325 325 325 325 325 323 322 327
303 302 303 304 303 303 302 302 302 304 305 307 307 310 310 312 314 314 315 315 316 318 319 319 320 320 320 320 321 322 323 320 322 324 323 322 323 321 322 321 322 324 324 324 325 326 318 324 324 322 323 322 323 322
303 304 303 303 302 302 302 303 304 305 307 309 310 311 311 312 313 313 314 315 316 318 319 320 321 320 318 320 322 318 323 323 323 325 325 325 325 322 318 319 320 325 321 326 327 325 325 323 323 321 321 320 320 320
304 303 303 303 303 303 303 304 306 307 308 309 310 311 313 312 312 312 314 316 316 318 320 320 321 320 322 325 324 324 323 324 324 325 324 322 322 322 322 322 322 322 323 324 325 324 325 324 323 323 323 322 320 320
304 303 303 303 303 304 304 304 305 308 310 311 311 310 309 310 312 313 313 314 316 317 317 321 323 324 325 322 323 324 324 324 323 323 321 321 323 322 323 324 324 323 322 322 323 323 323 322 321 320 319 320 319 318
303 303 302 302 304 304 306 307 306 309 310 310 309 309 310 311 312 315 318 319 320 320 321 322 323 323 323 323 324 325 324 323 323 322 319 319 321 323 321 322 323 323 322 322 322 321 322 321 320 319 318 317 317 315
302 301 301 302 304 305 306 308 309 309 310 311 309 310 313 316 317 317 316 317 318 318 320 321 322 322 323 324 323 322 321 321 322 322 320 319 318 319 319 319 320 319 319 321 321 321 320 320 320 318 318 317 316 313
306 302 305 304 305 308 309 310 311 311 310 310 310 313 315 317 317 316 317 319 318 319 319 320 321 322 323 324 323 323 322 321 319 318 318 317 316 316 316 317 317 318 318 319 319 319 318 316 318 318 315 313 313 312
304 305 306 307 307 308 309 309 311 312 312 313 316 317 318 318 318 319 320 318 317 319 321 322 323 322 321 322 322 320 319 318 317 316 314 314 314 313 313 313 313 314 314 315 317 317 315 316 315 314 313 313 312 311
306 307 307 308 307 307 308 310 310 312 316 318 319 320 320 320 320 320 320 321 321 322 322 323 321 322 320 320 318 317 315 315 315 316 317 315 314 313 312 313 314 314 314 314 315 315 314 314 314 314 313 312 312 311
305 306 304 306 306 308 312 317 318 318 318 319 321 321 320 319 319 320 321 321 320 320 320 321 322 322 322 318 317 318 319 320 318 316 316 316 316 315 314 313 313 313 314 313 313 313 313 313 312 311 310 309 309 308
307 310 309 312 315 316 320 320 320 319 319 319 319 319 319 318 320 320 321 321 322 321 319 320 320 320 320 320 317 318 318 316 317 316 315 314 315 315 315 314 313 312 312 313 313 312 312 311 310 309 308 306 305 306
312 319 318 318 319 318 319 318 318 319 319 319 320 320 319 320 320 320 321 321 320 320 319 317 317 317 317 318 318 317 317 317 317 316 315 314 314 314 313 313 312 312 312 311 311 311 310 310 309 309 308 308 307 307
317 317 320 318 318 318 319 318 318 319 319 318 319 320 319 319 320 320 320 319 318 318 318 318 318 317 317 316 315 314 314 315 315 315 315 315 314 312 312 312 310 309 309 309 309 309 308 308 308 308 308 308 308 307
319 319 319 319 319 319 319 319 319 319 319 319 321 321 320 320 319 320 318 316 316 316 315 315 314 314 313 313 312 312 312 312 314 315 315 315 313 312 311 311 311 311 310 308 307 306 306 305 305 306 307 307 307 307
318 319 318 319 320 319 319 318 318 318 318 318 318 318 318 318 318 317 317 316 315 314 314 314 314 314 314 313 313 311 310 310 311 311 312 312 311 310 310 310 311 310 310 309 309 307 307 306 307 307 307 307 308 308
318 317 317 317 316 317 317 317 316 317 317 316 316 317 317 317 316 315 315 315 316 316 315 315 315 313 312 311 311 312 311 310 309 309 308 309 309 309 308 309 309 309 308 308 308 308 308 307 307 308 308 308 308 307
316 316 317 318 316 316 316 316 316 316 316 317 317 317 317 316 316 315 314 315 316 316 315 314 314 313 312 311 310 309 309 309 308 307 308 308 309 309 308 308 308 308 308 308 308 308 308 308 308 308 308 308 307 307
317 317 317 317 317 316 316 316 316 316 316 316 316 316 316 316 317 316 316 315 314 314 315 314 313 313 312 312 310 309 309 308 309 308 309 306 302 305 306 307 307 308 309 309 309 308 308 308 308 308 308 308 308 307

GFSWCAN_850_thetae_123.txt.gz
Theta_e
302 302 302 303 303 303 303 303 304 303 302 303 303 302 302 302 303 303 310 311 312 313 313 313 315 316 316 317 319 318 322 324 325 325 326 325 325 325 324 325 328 329 331 329 329 330 329 333 334 337 336 333 331 330
303 303 303 303 302 302 302 303 303 303 302 303 303 302 302 302 302 303 307 309 311 312 313 313 312 314 315 315 315 316 318 320 325 325 325 326 328 327 325 325 325 324 327 331 328 328 331 328 332 332 330 330 330 329
300 302 303 302 301 302 303 302 303 303 303 303 303 303 302 302 302 302 304 307 308 309 310 311 312 308 313 313 312 313 314 316 317 315 320 324 328 327 328 329 328 325 327 329 330 332 329 326 331 331 328 328 328 328
299 300 302 301 301 302 302 302 303 303 303 303 303 303 302 302 302 302 302 305 307 309 310 312 313 314 314 315 314 313 312 312 312 313 317 321 323 324 324 321 320 322 322 326 327 326 328 331 330 327 329 328 327 327
300 300 300 300 302 302 301 302 303 303 302 303 302 302 302 302 301 302 303 304 307 308 310 310 311 312 314 314 314 314 314 314 312 314 316 318 319 319 319 319 319 319 321 325 324 325 326 326 325 325 326 327 327 326
300 300 300 299 302 301 300 302 302 302 303 303 303 303 302 301 301 303 307 307 307 308 308 310 311 310 310 312 312 313 314 315 315 315 315 316 317 317 319 319 318 319 319 320 323 322 324 323 323 324 324 323 323 323
299 300 301 299 300 300 299 302 302 302 303 303 303 303 303 301 301 303 305 309 308 308 310 310 313 314 312 313 313 313 313 312 313 315 316 316 316 316 317 318 318 319 319 318 319 322 323 323 322 323 323 322 322 322
300 300 301 300 298 298 301 302 302 303 303 304 304 304 303 302 301 302 304 306 306 308 308 311 313 313 314 314 314 314 314 314 314 314 314 315 316 317 318 317 317 317 318 318 319 322 322 322 323 321 321 321 324 324
300 300 300 300 297 300 303 302 303 303 303 303 302 302 301 302 303 305 306 305 306 308 311 311 312 313 313 315 315 316 316 317 316 315 315 315 315 318 316 317 316 316 318 318 320 322 322 322 322 323 322 322 323 325
300 300 301 300 297 300 303 302 303 303 302 302 302 304 304 306 306 305 306 308 308 309 309 309 310 312 311 311 315 317 316 319 320 318 318 317 316 315 316 316 316 316 316 321 319 320 322 320 321 322 324 326 327 326
300 300 301 301 296 300 302 302 303 302 302 302 304 306 306 307 306 307 309 310 311 311 311 311 311 311 311 313 313 317 319 319 320 318 319 319 318 318 317 317 317 317 318 319 318 318 320 321 322 322 325 325 326 326
300 300 301 301 298 300 302 303 303 302 304 304 305 306 306 307 308 310 312 311 311 312 313 313 314 312 312 311 316 317 319 319 319 318 322 321 322 319 319 318 320 320 321 319 318 318 319 322 326 326 327 328 327 327
301 300 300 301 298 299 300 303 303 302 304 304 306 307 308 309 310 310 312 312 313 313 316 316 318 316 316 316 317 319 320 320 316 318 321 321 316 317 319 317 320 320 320 319 317 319 322 327 327 327 327 326 326 327
299 298 298 298 298 298 300 303 302 303 302 305 307 305 308 311 311 311 315 317 314 314 315 316 315 316 316 317 318 319 319 319 320 319 320 321 323 321 319 322 324 316 320 318 318 322 324 323 324 324 324 324 325 325
299 302 301 299 297 299 301 303 302 302 304 306 306 307 309 309 311 312 312 312 314 314 312 316 316 316 319 319 320 317 319 321 322 324 322 320 322 322 323 323 324 323 323 324 324 323 322 324 324 324 321 320 320 323
301 302 302 302 302 301 303 303 302 303 305 306 307 308 309 311 313 313 314 314 315 315 316 316 318 320 320 321 321 321 321 322 322 323 322 320 322 320 318 321 322 323 323 324 323 319 322 322 322 323 322 321 321 320
303 305 303 303 303 303 302 302 303 304 305 308 309 309 309 311 313 313 313 314 315 317 319 318 319 320 320 321 322 321 322 321 319 323 322 321 320 318 318 319 321 321 323 320 322 321 322 322 320 321 320 320 319 319
304 303 303 302 302 302 303 304 305 307 308 308 310 311 312 312 312 312 313 314 315 317 318 319 317 320 315 319 322 317 315 322 321 320 321 321 321 321 322 322 322 322 323 324 323 323 323 323 322 321 320 320 320 321
304 303 302 302 303 304 304 304 305 307 309 310 311 311 311 311 312 313 314 315 315 316 317 316 319 324 323 319 321 324 323 321 321 320 321 322 322 322 321 321 321 322 323 323 323 322 321 320 320 320 319 319 319 319
303 303 303 303 303 305 304 305 305 306 309 309 309 310 310 311 313 313 315 317 318 319 319 321 322 321 322 321 320 321 320 319 319 320 322 318 319 320 321 320 320 320 320 320 320 318 318 318 318 317 315 314 314 313
303 303 303 303 303 303 304 306 308 308 308 309 310 310 312 314 315 317 318 317 319 318 320 319 319 321 322 318 319 321 321 319 319 319 319 320 319 320 320 320 321 321 321 320 320 320 320 318 316 316 316 317 314 312
306 303 302 302 303 306 307 308 309 311 310 310 310 312 315 317 317 316 317 319 319 319 317 317 319 321 322 321 320 320 320 319 318 316 315 316 319 318 318 319 318 319 320 319 318 318 319 320 316 315 313 312 312 311
303 304 305 306 307 307 308 309 310 311 311 313 315 316 317 317 317 318 318 318 318 320 320 319 321 320 318 319 319 319 317 316 314 314 314 313 313 313 314 314 315 316 318 319 317 316 316 315 315 313 313 312 312 310
305 307 307 307 307 308 307 309 311 311 314 316 318 319 319 319 319 319 320 319 321 319 321 320 319 319 319 319 317 317 317 316 317 317 316 314 313 313 314 314 314 314 315 316 315 314 314 314 314 313 312 313 311 310
305 304 304 304 306 308 311 316 318 319 321 320 321 320 321 319 320 320 320 320 319 320 320 320 319 317 317 318 318 319 318 318 317 315 316 316 315 314 313 313 313 313 314 313 313 313 313 313 312 310 310 310 308 308
301 305 306 310 313 313 319 321 321 321 321 320 320 320 319 320 320 321 319 318 318 320 320 320 317 316 317 317 318 317 316 316 315 315 314 314 314 314 314 314 313 312 312 313 313 312 311 311 310 309 308 307 306 307
312 314 313 315 318 321 321 320 319 320 320 320 321 321 320 319 320 321 320 320 318 317 317 317 318 318 319 317 318 318 316 316 315 316 314 314 314 313 313 312 311 311 311 311 311 310 310 310 309 309 309 309 308 307
318 318 320 320 319 319 319 318 319 320 320 319 320 319 319 320 320 317 320 319 318 319 319 318 317 317 317 315 313 313 313 314 316 315 315 315 313 312 313 312 311 309 310 309 309 309 308 308 308 308 308 308 308 308
319 319 319 320 319 319 319 320 320 320 320 320 320 320 319 319 319 320 316 316 316 316 316 316 315 315 314 313 312 311 311 312 312 314 315 315 313 311 311 312 311 311 310 309 309 308 307 306 306 306 307 308 308 308
318 318 319 319 318 319 319 319 319 318 318 318 318 319 318 316 317 318 318 317 315 315 315 315 314 314 313 313 313 312 311 310 311 311 310 311 311 310 310 310 311 310 310 310 309 308 307 307 308 308 308 308 308 308
318 318 317 317 318 317 317 317 318 318 318 317 317 317 317 317 316 315 316 316 316 316 315 316 314 313 312 311 311 312 311 310 309 309 309 309 309 309 309 309 309 309 308 308 308 308 308 308 308 308 308 308 308 308
317 317 317 318 318 318 317 317 317 317 318 318 317 317 317 316 317 317 315 316 316 316 315 315 315 314 313 312 310 309 309 308 305 305 307 307 309 309 309 309 308 308 309 309 309 309 309 309 308 308 308 308 308 308
318 318 318 318 317 317 316 317 317 318 317 317 318 317 317 318 318 317 317 315 315 315 315 314 313 313 312 311 311 310 309 310 310 310 310 309 306 306 307 306 306 309 309 309 310 310 309 309 309 309 309 309 308 308

GFSWCAN_850_thetae_129.txt.gz
Theta_e
302 302 302 302 302 302 302 302 303 303 303 303 303 302 303 302 302 303 306 307 308 309 310 309 311 311 312 314 312 314 316 316 317 318 316 316 318 318 318 318 319 319 318 318 319 323 325 324 328 326 322 325 327 330
303 303 303 303 303 303 303 302 301 301 302 302 303 303 303 302 302 302 304 305 307 308 309 311 309 309 310 312 310 314 314 314 314 315 314 317 322 319 317 321 319 320 317 319 320 321 322 324 326 325 329 329 330 330
303 302 301 300 301 302 302 301 301 302 302 302 303 303 303 303 302 301 302 303 307 308 308 307 309 311 309 310 309 313 313 313 312 313 314 314 320 317 321 320 320 317 317 317 319 319 321 323 320 322 323 326 329 329
299 300 301 300 299 300 302 301 301 301 302 302 303 303 303 302 302 301 301 302 306 306 305 307 310 310 312 311 311 311 312 312 311 311 311 311 317 317 318 317 317 318 317 316 317 317 319 321 319 319 323 324 325 326
299 299 299 300 300 300 301 300 301 301 301 302 302 302 303 302 302 301 304 302 304 305 305 306 305 307 309 312 313 313 314 313 312 310 308 310 313 313 310 310 312 316 315 314 315 317 318 318 318 319 322 322 322 324
298 298 299 299 300 300 300 301 301 300 301 302 302 302 302 302 301 301 305 304 305 305 306 305 307 306 307 311 313 314 314 313 312 311 309 312 313 312 309 309 310 314 316 316 316 317 317 317 316 317 317 321 322 322
298 299 299 299 300 300 299 301 300 301 301 301 302 303 302 302 302 301 305 306 305 306 307 306 306 310 311 311 311 312 313 313 313 313 312 312 313 313 307 310 313 314 314 313 312 312 314 315 315 315 315 316 318 321
299 300 300 299 300 301 299 299 300 302 302 302 303 303 303 303 302 304 302 306 306 306 307 305 306 308 311 310 310 311 311 311 312 311 310 310 311 311 310 311 313 313 313 313 314 314 315 315 316 317 316 315 316 319
299 300 300 299 300 299 297 300 303 302 303 303 303 303 302 301 303 305 305 306 305 307 307 307 306 308 310 309 311 313 312 308 310 308 307 309 307 309 309 311 312 313 313 313 314 314 314 315 317 319 320 321 320 320
299 301 300 300 300 298 300 303 303 303 302 302 302 302 304 306 306 305 305 305 306 306 307 305 307 305 308 308 308 312 313 310 313 312 313 307 308 313 313 313 313 315 317 315 312 313 314 316 317 319 318 320 321 322
300 300 300 300 299 298 302 302 302 303 302 302 303 304 306 305 305 307 307 306 306 307 308 308 307 304 306 305 304 313 310 309 311 310 315 312 310 310 318 320 318 319 318 319 319 316 314 316 317 317 318 319 320 321
300 300 300 301 299 298 301 302 303 301 302 303 305 306 306 306 307 308 307 306 307 308 308 309 310 309 310 310 310 312 311 311 313 311 314 316 312 319 320 321 321 318 318 319 319 316 315 316 318 318 317 319 320 324
300 300 300 302 298 298 302 303 302 303 303 303 305 305 306 306 308 309 311 309 308 310 313 313 314 313 312 312 312 310 313 312 312 313 315 313 316 319 320 321 322 322 321 320 320 319 319 318 319 319 321 318 321 321
300 301 300 301 299 299 301 304 302 302 303 304 306 304 305 306 307 306 307 310 311 311 313 312 313 312 314 312 311 314 312 313 316 317 316 317 318 320 320 320 319 321 320 319 319 319 322 319 319 320 321 322 320 322
299 299 299 299 299 298 301 303 303 302 304 304 305 305 304 306 308 310 311 311 312 313 314 312 313 314 311 314 312 313 315 316 318 319 318 318 320 320 320 318 321 320 320 319 322 322 321 321 322 325 324 323 323 323
300 301 301 300 298 299 302 302 302 302 303 304 304 304 305 305 308 310 311 312 312 312 314 314 314 314 316 316 317 318 318 320 319 317 319 320 320 320 318 319 322 321 321 322 322 321 321 321 321 321 321 323 323 323
302 303 299 299 297 301 302 302 302 302 303 303 305 306 305 306 306 308 311 312 311 312 315 314 316 316 317 318 319 318 321 317 318 320 320 320 320 321 320 321 321 320 321 321 321 320 320 320 320 320 321 322 322 322
303 302 301 299 301 302 302 302 302 304 304 304 305 307 309 310 311 311 311 311 311 313 314 316 314 317 317 318 318 315 314 319 320 322 321 321 322 322 321 322 321 321 320 321 321 320 320 320 320 320 320 321 319 319
303 303 302 302 302 302 302 303 303 304 306 307 307 308 308 309 309 310 311 312 313 314 314 312 313 314 316 313 314 319 319 320 320 320 320 320 321 321 321 321 321 322 321 322 321 320 320 320 319 319 319 320 319 318
302 302 302 302 303 304 304 304 305 305 305 306 307 308 310 310 311 312 313 313 313 315 315 314 314 318 319 317 318 319 319 319 320 320 320 320 320 320 321 321 321 321 321 321 321 320 319 319 318 318 318 317 316 315
302 302 302 302 303 303 303 304 305 305 306 307 309 310 310 311 313 316 317 316 317 317 317 318 318 318 320 320 318 319 320 319 317 319 319 320 321 321 318 317 316 315 315 316 315 314 313 313 312 312 311 310 310 309
303 302 302 302 302 303 304 304 305 308 309 310 310 311 312 314 315 317 316 318 318 317 318 319 320 320 318 318 319 319 317 314 316 316 316 317 317 319 320 319 319 317 315 315 314 315 315 314 313 312 312 312 311 310
304 304 304 304 303 304 305 307 309 310 312 311 312 314 315 316 316 318 317 317 318 318 319 319 319 319 319 318 317 317 315 314 313 313 313 314 316 317 319 318 318 318 317 318 317 317 316 314 312 312 311 310 310 309
304 305 306 306 305 306 306 308 309 310 312 313 315 316 316 316 318 318 319 318 319 319 319 318 317 317 317 317 316 316 317 315 315 314 314 314 314 314 315 316 317 315 315 314 315 316 315 313 313 312 311 311 310 309
305 303 302 301 303 303 307 310 312 313 316 317 319 318 318 318 319 318 318 316 317 317 317 316 317 317 317 315 315 314 315 316 316 313 313 313 313 314 314 313 314 314 314 314 313 313 313 312 312 311 310 310 310 309
305 306 305 307 309 309 314 318 317 316 315 317 317 317 318 316 318 318 317 317 316 317 317 316 316 317 317 317 317 317 316 314 314 314 314 313 313 312 312 312 312 312 312 312 312 311 310 310 309 309 308 307 308 308
309 313 313 311 311 313 317 317 318 315 317 317 315 315 315 318 318 317 317 318 318 318 317 317 317 317 316 315 316 316 314 314 315 314 314 313 312 312 311 310 310 310 310 310 310 310 310 309 309 308 308 307 307 307
314 316 316 318 316 316 316 316 317 317 316 318 318 317 318 316 314 317 318 318 319 318 318 317 318 318 314 312 312 312 312 312 314 314 313 311 311 311 311 310 310 310 309 308 308 307 307 307 308 308 308 308 307 307
318 317 317 316 317 318 318 316 316 317 316 316 314 314 316 317 317 317 317 317 316 317 317 316 315 317 312 311 311 312 311 312 315 312 312 311 311 311 311 311 311 309 309 309 308 307 307 308 307 307 307 307 307 308
317 317 316 316 315 314 317 317 316 316 316 316 317 317 317 317 316 316 316 315 315 314 313 313 314 314 312 312 312 311 310 309 310 311 310 310 309 309 309 309 310 310 310 309 308 308 308 308 308 307 307 307 308 308
316 316 316 316 316 317 317 317 317 316 316 316 316 316 316 315 315 315 315 315 315 313 314 314 313 312 312 311 310 309 308 307 305 307 309 309 309 309 308 308 308 308 308 308 308 309 309 308 308 308 308 308 308 308
317 317 316 314 316 317 317 317 317 317 317 317 317 316 316 316 316 314 314 314 314 314 314 313 313 314 313 311 310 309 310 310 310 310 311 310 310 308 307 308 308 308 308 308 309 309 309 309 308 308 308 308 308 308
318 318 318 318 318 318 316 317 317 317 317 317 317 317 317 317 317 315 315 315 314 314 313 313 313 313 313 312 312 311 311 311 311 310 310 311 311 311 309 306 306 307 308 308 309 309 309 309 309 309 309 308 308 308

GFSWCAN_850_thetae_132.txt.gz
Theta_e
302 303 302 302 302 302 302 302 302 302 302 302 302 303 302 302 302 302 305 305 307 308 309 309 311 312 311 312 311 313 315 315 315 316 315 315 316 317 316 317 318 316 316 318 317 321 322 323 325 327 322 327 328 327
300 302 303 303 303 303 303 303 302 301 301 302 302 302 302 302 303 302 303 304 304 307 308 309 310 309 308 309 311 311 313 312 313 313 313 315 320 317 315 320 316 320 316 318 318 319 320 322 321 318 322 323 326 328
299 299 301 301 302 301 301 302 301 301 301 302 302 302 303 302 303 302 301 302 304 307 308 307 308 308 307 307 309 309 312 312 311 313 313 313 319 315 320 320 320 317 315 316 316 318 320 321 319 318 320 323 324 323
298 298 299 299 300 300 299 300 302 301 301 301 302 302 303 303 302 302 301 301 302 306 305 306 308 310 310 310 309 309 311 311 311 311 310 311 315 315 316 316 316 316 316 315 315 316 318 318 318 318 318 321 322 322
298 298 298 298 299 299 300 300 301 300 301 301 302 302 302 303 302 302 303 304 302 305 304 306 305 306 308 311 311 310 310 311 312 309 307 308 311 311 308 309 312 314 315 316 316 316 316 317 317 317 316 317 318 320
298 298 298 298 299 300 300 300 301 301 300 301 302 302 302 302 302 301 305 303 305 305 305 304 307 306 308 309 311 312 312 311 312 311 308 310 311 310 308 309 310 314 315 317 316 316 314 312 312 311 313 314 315 316
298 298 298 299 299 300 301 299 301 300 300 301 301 302 302 302 302 302 304 305 305 305 306 306 305 308 310 310 310 311 312 312 313 312 310 311 312 311 306 309 311 312 314 315 315 312 311 312 313 313 314 315 315 313
299 299 299 300 300 300 300 299 300 300 302 301 302 303 302 303 302 304 303 305 306 304 306 305 305 308 309 309 309 310 312 311 310 310 309 309 309 309 309 309 312 312 312 312 312 313 313 313 313 314 314 316 317 316
299 299 300 300 299 300 298 298 301 302 302 303 303 303 302 302 304 304 305 305 305 306 307 306 306 309 309 307 311 312 309 307 308 306 306 307 305 308 309 311 311 312 312 312 313 315 314 312 313 313 314 316 318 318
299 300 300 299 300 298 298 302 303 303 302 302 302 302 303 305 304 305 305 305 305 306 307 304 305 305 306 305 307 311 312 310 311 310 312 305 306 311 311 312 315 318 318 318 318 318 318 317 314 314 314 314 317 317
299 300 300 300 300 297 301 302 303 302 302 302 303 305 305 305 305 306 306 304 304 305 306 306 306 303 306 304 303 311 309 308 310 308 314 310 310 309 319 320 321 322 320 318 317 317 319 318 318 315 315 317 317 317
300 300 300 300 300 298 301 302 303 301 302 304 304 305 305 306 306 307 305 304 305 306 307 309 309 309 309 308 308 310 310 309 311 309 313 315 311 316 318 320 320 320 320 322 321 319 318 315 315 314 315 316 316 317
300 299 300 301 298 299 302 303 302 302 303 304 305 305 306 305 307 308 309 307 307 309 313 312 312 312 310 310 310 309 312 310 310 312 314 311 313 317 320 320 319 318 319 321 320 319 318 318 318 319 319 318 320 319
300 300 301 301 298 300 302 303 302 302 303 304 305 305 306 305 305 306 307 310 310 311 313 312 311 311 312 310 309 313 310 311 315 316 314 310 317 319 320 320 318 318 320 319 319 321 320 321 318 320 320 320 320 320
299 299 299 299 299 300 302 303 302 302 304 304 305 304 303 304 306 308 310 311 312 312 313 311 311 313 309 312 310 311 314 315 315 315 313 318 320 320 320 319 318 321 319 319 321 321 320 320 322 322 324 323 322 323
299 300 300 299 298 300 302 302 302 302 303 303 304 303 304 304 306 309 308 311 312 311 311 313 312 312 313 312 315 315 316 316 316 317 319 319 320 320 319 318 321 319 319 321 321 321 321 321 320 320 321 323 320 321
301 302 300 300 299 301 302 302 302 302 302 303 303 305 305 305 305 307 309 311 311 312 313 313 315 316 314 316 317 317 318 317 317 318 317 320 321 320 320 320 321 321 321 321 320 320 320 320 321 322 321 321 320 321
302 300 298 298 301 301 302 302 302 303 304 303 303 305 306 308 309 309 309 309 310 311 311 313 314 315 317 317 319 316 315 316 316 319 320 321 322 321 321 321 321 321 321 321 319 320 320 320 320 319 319 319 318 318
301 300 299 301 302 302 302 303 303 303 304 305 306 306 307 308 309 310 310 310 311 311 313 312 313 314 315 314 314 314 319 319 320 320 321 321 321 321 321 321 321 320 321 319 319 319 318 319 319 320 319 318 317 313
302 302 303 303 303 303 303 303 304 304 304 305 305 306 308 309 310 312 313 313 312 313 314 311 311 312 315 317 318 319 319 319 319 320 320 319 321 321 321 321 321 322 321 320 320 319 318 318 318 316 316 315 314 314
302 302 302 302 302 303 302 304 305 305 305 306 308 309 310 311 312 314 313 314 314 312 313 312 318 318 317 319 319 319 318 316 319 319 320 320 317 316 315 315 317 319 319 317 316 314 313 312 312 313 312 310 309 308
304 302 302 302 302 302 303 304 305 306 307 309 310 311 311 313 314 315 314 317 317 317 317 319 319 318 318 319 319 318 314 315 316 316 316 318 319 318 318 316 314 313 313 313 312 312 312 311 312 311 310 310 309 308
304 304 304 304 304 303 305 306 307 309 311 311 312 314 315 315 317 317 317 318 318 318 318 317 316 318 318 317 316 315 314 313 313 314 314 316 318 318 318 318 318 317 315 314 315 315 315 314 312 311 311 311 310 309
304 305 306 305 305 305 306 308 308 310 311 313 314 316 316 317 317 318 318 317 317 317 317 318 318 316 315 315 316 316 315 315 313 313 313 313 313 314 316 317 317 316 315 314 315 316 315 313 313 312 311 311 310 309
304 304 304 303 304 303 306 309 311 313 315 316 319 318 317 318 318 317 316 317 317 317 317 317 316 316 316 316 314 314 315 316 313 313 313 313 313 313 313 314 315 314 314 313 313 314 313 312 312 312 311 310 310 310
303 306 305 307 308 307 312 317 316 315 315 317 316 317 316 314 317 317 316 317 318 317 316 317 317 316 316 316 316 315 314 314 314 314 313 313 312 312 313 312 312 312 312 313 313 312 312 310 310 309 308 308 308 309
309 312 312 311 310 311 314 316 316 314 315 316 314 314 315 317 315 315 317 317 317 318 318 318 318 317 314 315 315 314 312 312 313 314 313 313 312 311 311 310 309 310 310 310 310 310 310 309 309 308 308 308 307 307
313 315 314 316 313 314 313 314 314 315 314 316 316 315 315 315 314 317 317 317 317 317 317 317 317 317 316 312 311 311 312 312 313 314 312 311 311 311 311 310 309 310 309 308 308 307 307 307 308 308 308 308 307 307
316 315 315 314 315 315 316 314 314 315 315 315 313 312 315 317 317 317 317 316 315 316 316 314 315 316 314 311 311 311 311 310 314 313 312 311 311 311 311 311 310 310 309 309 308 307 307 307 307 306 307 307 307 307
315 316 316 315 313 313 316 316 316 316 316 316 316 315 315 315 315 316 315 315 315 314 313 313 313 312 311 311 310 310 309 308 308 310 310 310 310 309 309 308 308 309 309 309 309 308 307 307 307 307 307 307 307 307
316 316 316 316 316 317 317 316 316 316 316 316 315 315 314 314 314 314 314 314 313 314 313 313 313 313 311 310 309 309 310 310 310 308 308 308 308 308 308 308 308 308 308 309 308 308 308 308 308 307 308 308 308 307
317 316 316 314 316 316 317 317 317 317 317 317 316 316 316 316 315 315 314 313 314 313 313 313 313 313 312 312 311 310 310 310 310 310 310 310 311 310 310 307 307 308 308 308 307 307 308 309 309 308 308 308 308 308
318 318 317 317 317 317 317 316 317 316 316 317 317 317 317 316 315 315 314 314 314 314 315 314 314 313 314 313 313 314 313 312 312 311 311 311 311 310 311 310 310 308 307 307 308 309 309 309 309 309 309 309 308 309